[[{"header":{"parameterUnit":"m.s-1","parameterCategory":1,"la1":30.6,"la2":28.766,"lo1":-90.7593,"lo2":-88.6598,"dy":0.0162,"dx":0.0183,"nx":116,"ny":114,"refTime":"2024-06-15T00:00:00:Z","depth":0,"parameterNumber":2,"parameterNumberName":"U-component_of_WINDS"},"data":[0.0,0.0,0.0,0.0,0.0,0.0,0.0,0.0,0.0,0.0,0.0,0.0,0.0,0.0,0.0,0.0,0.0,0.0,0.0,0.0,0.0,0.0,0.0,0.0,0.0,0.0,0.0,0.0,0.0,0.0,0.0,0.0,0.0,0.0,0.0,0.0,0.0,0.0,0.0,0.0,0.0,0.0,0.0,0.0,0.0,0.0,0.0,0.0,0.0,0.0,0.0,0.0,0.0,0.0,0.0,0.0,0.0,0.0,0.0,0.0,0.0,0.0,0.0,0.0,0.0,0.0,0.0,0.0,0.0,0.0,0.0,0.0,0.0,0.0,0.0,0.0,0.0,0.0,0.0,0.0,0.0,0.0,0.0,0.0,0.0,0.0,0.0,0.0,0.0,0.0,0.0,0.0,0.0,0.0,0.0,0.0,0.0,0.0,0.0,0.0,0.0,0.0,0.0,0.0,0.0,0.0,0.0,0.0,0.0,0.0,0.0,0.0,0.0,0.0,0.0,0.0,0.0,0.0,0.0,0.0,0.0,0.0,0.0,0.0,0.0,0.0,0.0,0.0,0.0,0.0,0.0,0.0,0.0,0.0,0.0,0.0,0.0,0.0,0.0,0.0,0.0,0.0,0.0,0.0,0.0,0.0,0.0,0.0,0.0,0.0,0.0,0.0,0.0,0.0,0.0,0.0,0.0,0.0,0.0,0.0,0.0,0.0,0.0,0.0,0.0,0.0,0.0,0.0,0.0,0.0,0.0,0.0,0.0,0.0,0.0,0.0,0.0,0.0,0.0,0.0,0.0,0.0,0.0,0.0,0.0,0.0,0.0,0.0,0.0,0.0,0.0,0.0,0.0,0.0,0.0,0.0,0.0,0.0,0.0,0.0,0.0,0.0,0.0,0.0,0.0,0.0,0.0,0.0,0.0,0.0,0.0,0.0,0.0,0.0,0.0,0.0,0.0,0.0,0.0,0.0,0.0,0.0,0.0,0.0,0.0,0.0,0.0,0.0,0.0,0.0,0.0,0.0,0.0,0.0,0.0,0.0,0.0,0.0,0.0,0.0,0.0,0.0,0.0,0.0,0.0,0.0,0.0,0.0,0.0,0.0,0.0,0.0,0.0,0.0,0.0,0.0,0.0,0.0,0.0,0.0,0.0,0.0,0.0,0.0,0.0,0.0,0.0,0.0,0.0,0.0,0.0,0.0,0.0,0.0,0.0,0.0,0.0,0.0,0.0,0.0,0.0,0.0,0.0,0.0,0.0,0.0,0.0,0.0,0.0,0.0,0.0,0.0,0.0,0.0,0.0,0.0,0.0,0.0,0.0,0.0,0.0,0.0,0.0,0.0,0.0,0.0,0.0,0.0,0.0,0.0,0.0,0.0,0.0,0.0,0.0,0.0,0.0,0.0,0.0,0.0,0.0,0.0,0.0,0.0,0.0,0.0,0.0,0.0,0.0,0.0,0.0,0.0,0.0,0.0,0.0,0.0,0.0,0.0,0.0,0.0,0.0,0.0,0.0,0.0,0.0,0.0,0.0,0.0,0.0,0.0,0.0,0.0,0.0,0.0,0.0,0.0,0.0,0.0,0.0,0.0,0.0,0.0,0.0,0.0,0.0,0.0,0.0,0.0,0.0,0.0,0.0,0.0,0.0,0.0,0.0,0.0,0.0,0.0,0.0,0.0,0.0,0.0,0.0,0.0,0.0,0.0,0.0,0.0,0.0,0.0,0.0,0.0,0.0,0.0,0.0,0.0,0.0,0.0,0.0,0.0,0.0,0.0,0.0,0.0,0.0,0.0,0.0,0.0,0.0,0.0,0.0,0.0,0.0,0.0,0.0,0.0,0.0,0.0,0.0,0.0,0.0,0.0,0.0,0.0,0.0,0.0,0.0,0.0,0.0,0.0,0.0,0.0,0.0,0.0,0.0,0.0,0.0,0.0,0.0,0.0,0.0,0.0,0.0,0.0,0.0,0.0,0.0,0.0,0.0,0.0,0.0,0.0,0.0,0.0,0.0,0.0,0.0,0.0,0.0,0.0,0.0,0.0,0.0,0.0,0.0,0.0,0.0,0.0,0.0,0.0,0.0,0.0,0.0,0.0,0.0,0.0,0.0,0.0,0.0,0.0,0.0,0.0,0.0,0.0,0.0,0.0,0.0,0.0,0.0,0.0,0.0,0.0,0.0,0.0,0.0,0.0,0.0,0.0,0.0,0.0,0.0,0.0,0.0,0.0,0.0,0.0,0.0,0.0,0.0,0.0,0.0,0.0,0.0,0.0,0.0,0.0,0.0,0.0,0.0,0.0,0.0,0.0,0.0,0.0,0.0,0.0,0.0,0.0,0.0,0.0,0.0,0.0,0.0,0.0,0.0,0.0,0.0,0.0,0.0,0.0,0.0,0.0,0.0,0.0,0.0,0.0,0.0,0.0,0.0,0.0,0.0,0.0,0.0,0.0,0.0,0.0,0.0,0.0,0.0,0.0,0.0,0.0,0.0,0.0,0.0,0.0,0.0,0.0,0.0,0.0,0.0,0.0,0.0,0.0,0.0,0.0,0.0,0.0,0.0,0.0,0.0,0.0,0.0,0.0,0.0,0.0,0.0,0.0,0.0,0.0,0.0,0.0,0.0,0.0,0.0,0.0,0.0,0.0,0.0,0.0,0.0,0.0,0.0,0.0,0.0,0.0,0.0,0.0,0.0,0.0,0.0,0.0,0.0,0.0,0.0,0.0,0.0,0.0,0.0,0.0,0.0,0.0,0.0,0.0,0.0,0.0,0.0,0.0,0.0,0.0,0.0,0.0,0.0,0.0,0.0,0.0,0.0,0.0,0.0,0.0,0.0,0.0,0.0,0.0,0.0,0.0,0.0,0.0,0.0,0.0,0.0,0.0,0.0,0.0,0.0,0.0,0.0,0.0,0.0,0.0,0.0,0.0,0.0,0.0,0.0,0.0,0.0,0.0,0.0,0.0,0.0,0.0,0.0,0.0,0.0,0.0,0.0,0.0,0.0,0.0,0.0,0.0,0.0,0.0,0.0,0.0,0.0,0.0,0.0,0.0,0.0,0.0,0.0,0.0,0.0,0.0,0.0,0.0,0.0,0.0,0.0,0.0,0.0,0.0,0.0,0.0,0.0,0.0,0.0,0.0,0.0,0.0,0.0,0.0,0.0,0.0,0.0,0.0,0.0,0.0,0.0,0.0,0.0,0.0,0.0,0.0,0.0,0.0,0.0,0.0,0.0,0.0,0.0,0.0,0.0,0.0,0.0,0.0,0.0,0.0,0.0,0.0,0.0,0.0,0.0,0.0,0.0,0.0,0.0,0.0,0.0,0.0,0.0,0.0,0.0,0.0,0.0,0.0,0.0,0.0,0.0,0.0,0.0,0.0,0.0,0.0,0.0,0.0,0.0,0.0,0.0,0.0,0.0,0.0,0.0,0.0,0.0,0.0,0.0,0.0,0.0,0.0,0.0,0.0,0.0,0.0,0.0,0.0,0.0,0.0,0.0,0.0,0.0,0.0,0.0,0.0,0.0,0.0,0.0,0.0,0.0,0.0,0.0,0.0,0.0,0.0,0.0,0.0,0.0,0.0,0.0,0.0,0.0,0.0,0.0,0.0,0.0,0.0,0.0,0.0,0.0,0.0,0.0,0.0,0.0,0.0,0.0,0.0,0.0,0.0,0.0,0.0,0.0,0.0,0.0,0.0,0.0,0.0,0.0,0.0,0.0,0.0,0.0,0.0,0.0,0.0,0.0,0.0,0.0,0.0,0.0,0.0,0.0,0.0,0.0,0.0,0.0,0.0,0.0,0.0,0.0,0.0,0.0,0.0,0.0,0.0,0.0,0.0,0.0,0.0,0.0,0.0,0.0,0.0,0.0,0.0,0.0,0.0,0.0,0.0,0.0,0.0,0.0,0.0,0.0,0.0,0.0,0.0,0.0,0.0,0.0,0.0,0.0,0.0,0.0,0.0,0.0,0.0,0.0,0.0,0.0,0.0,0.0,0.0,0.0,0.0,0.0,0.0,0.0,0.0,0.0,0.0,0.0,0.0,0.0,0.0,0.0,0.0,0.0,0.0,0.0,0.0,0.0,0.0,0.0,0.0,0.0,0.0,0.0,0.0,0.0,0.0,0.0,0.0,0.0,0.0,0.0,0.0,0.0,0.0,0.0,0.0,0.0,0.0,0.0,0.0,0.0,0.0,0.0,0.0,0.0,0.0,0.0,0.0,0.0,0.0,0.0,0.0,0.0,0.0,0.0,0.0,0.0,0.0,0.0,0.0,0.0,0.0,0.0,0.0,0.0,0.0,0.0,0.0,0.0,0.0,0.0,0.0,0.0,0.0,0.0,0.0,0.0,0.0,0.0,0.0,0.0,0.0,0.0,0.0,0.0,0.0,0.0,0.0,0.0,0.0,0.0,0.0,0.0,0.0,0.0,0.0,0.0,0.0,0.0,0.0,0.0,0.0,0.0,0.0,0.0,0.0,0.0,0.0,0.0,0.0,0.0,0.0,0.0,0.0,0.0,0.0,0.0,0.0,0.0,0.0,0.0,0.0,0.0,0.0,0.0,0.0,0.0,0.0,0.0,0.0,0.0,0.0,0.0,0.0,0.0,0.0,0.0,0.0,0.0,0.0,0.0,0.0,0.0,0.0,0.0,0.0,0.0,0.0,0.0,0.0,0.0,0.0,0.0,0.0,0.0,0.0,0.0,0.0,0.0,0.0,0.0,0.0,0.0,0.0,0.0,0.0,0.0,0.0,0.0,0.0,0.0,0.0,0.0,0.0,0.0,0.0,0.0,0.0,0.0,0.0,0.0,0.0,0.0,0.0,0.0,0.0,0.0,0.0,0.0,0.0,0.0,0.0,0.0,0.0,0.0,0.0,0.0,0.0,0.0,0.0,0.0,0.0,0.0,0.0,0.0,0.0,0.0,0.0,0.0,0.0,0.0,0.0,0.0,0.0,0.0,0.0,0.0,0.0,0.0,0.0,0.0,0.0,0.0,0.0,0.0,0.0,0.0,0.0,0.0,0.0,0.0,0.0,0.0,0.0,0.0,0.0,0.0,0.0,0.0,0.0,0.0,0.0,0.0,0.0,0.0,0.0,0.0,0.0,0.0,0.0,0.0,0.0,0.0,0.0,0.0,0.0,0.0,0.0,0.0,0.0,0.0,0.0,0.0,0.0,0.0,0.0,0.0,0.0,0.0,0.0,0.0,0.0,0.0,0.0,0.0,0.0,0.0,0.0,0.0,0.0,0.0,0.0,0.0,0.0,0.0,0.0,0.0,0.0,0.0,0.0,0.0,0.0,0.0,0.0,0.0,0.0,0.0,0.0,0.0,0.0,0.0,0.0,0.0,0.0,0.0,0.0,0.0,0.0,0.0,0.0,0.0,0.0,0.0,0.0,0.0,0.0,0.0,0.0,0.0,0.0,0.0,0.0,0.0,0.0,0.0,0.0,0.0,0.0,0.0,0.0,0.0,0.0,0.0,0.0,0.0,0.0,0.0,0.0,0.0,0.0,0.0,0.0,0.0,0.0,0.0,0.0,0.0,0.0,0.0,0.0,0.0,0.0,0.0,0.0,0.0,0.0,0.0,0.0,0.0,0.0,0.0,0.0,0.0,0.0,0.0,0.0,0.0,0.0,0.0,0.0,0.0,0.0,0.0,0.0,0.0,0.0,0.0,0.0,0.0,0.0,0.0,0.0,0.0,0.0,0.0,0.0,0.0,0.0,0.0,0.0,0.0,0.0,0.0,0.0,0.0,0.0,0.0,0.0,0.0,0.0,0.0,0.0,0.0,0.0,0.0,0.0,0.0,0.0,0.0,0.0,0.0,0.0,0.0,0.0,0.0,0.0,0.0,0.0,0.0,0.0,0.0,0.0,0.0,0.0,0.0,0.0,0.0,0.0,0.0,0.0,0.0,0.0,0.0,0.0,0.0,0.0,0.0,0.0,0.0,0.0,0.0,0.0,0.0,0.0,0.0,0.0,0.0,0.0,0.0,0.0,0.0,0.0,0.0,0.0,0.0,0.0,0.0,0.0,0.0,0.0,0.0,0.0,0.0,0.0,0.0,0.0,0.0,0.0,0.0,0.0,0.0,0.0,0.0,0.0,-0.7337,-0.6953,0.0,0.0,0.0,0.0,0.0,0.0,0.0,0.0,0.0,0.0,0.0,0.0,0.0,0.0,0.0,0.0,0.0,0.0,0.0,0.0,0.0,0.0,0.0,-1.0143,-1.0433,-1.0747,-1.0779,-1.0833,-1.093,0.0,0.0,0.0,0.0,0.0,-1.0241,-1.0261,-1.027,-1.027,-1.0606,-1.0961,-1.1284,-1.0583,-0.9774,-0.8903,0.0,0.0,0.0,0.0,0.0,0.0,0.0,0.0,0.0,0.0,0.0,0.0,0.0,0.0,0.0,0.0,0.0,0.0,0.0,0.0,0.0,0.0,0.0,0.0,0.0,0.0,0.0,0.0,0.0,0.0,0.0,0.0,0.0,0.0,0.0,0.0,0.0,0.0,0.0,0.0,0.0,0.0,0.0,0.0,0.0,0.0,0.0,0.0,0.0,0.0,0.0,0.0,0.0,0.0,0.0,0.0,0.0,0.0,0.0,0.0,0.0,0.0,0.0,0.0,0.0,0.0,0.0,0.0,0.0,0.0,-0.8799,-0.8231,0.0,0.0,0.0,0.0,0.0,0.0,0.0,0.0,0.0,0.0,0.0,0.0,0.0,0.0,0.0,0.0,0.0,0.0,0.0,0.0,0.0,-0.9529,-1.0027,-1.0326,-1.0659,-1.1144,-1.1187,-1.1252,-1.1434,-1.1241,-1.1133,-1.1133,-1.0822,-1.0693,-1.0715,-1.0982,-1.1186,-1.1337,-1.1923,-1.2433,-1.2799,-1.3056,-1.2406,-1.1004,-1.0603,0.0,0.0,0.0,0.0,0.0,0.0,0.0,0.0,0.0,0.0,0.0,0.0,0.0,0.0,0.0,0.0,0.0,0.0,0.0,0.0,0.0,0.0,0.0,0.0,0.0,0.0,0.0,0.0,0.0,0.0,0.0,0.0,0.0,0.0,0.0,0.0,0.0,0.0,0.0,0.0,0.0,0.0,0.0,0.0,0.0,0.0,0.0,0.0,0.0,0.0,0.0,0.0,0.0,0.0,0.0,0.0,0.0,0.0,0.0,0.0,0.0,0.0,0.0,-1.0934,-1.1008,-1.1193,-1.1505,-1.1749,-1.186,-1.0887,-1.0143,-0.9596,-0.9462,0.0,0.0,0.0,0.0,0.0,0.0,0.0,0.0,0.0,0.0,0.0,0.0,0.0,0.0,0.0,0.0,0.0,0.0,0.0,-1.0089,-1.0788,-1.1047,-1.1381,-1.191,-1.1954,-1.1964,-1.1997,-1.1758,-1.1607,-1.1607,-1.1176,-1.1036,-1.1209,-1.1467,-1.1935,-1.265,-1.3774,-1.4338,-1.4405,-1.456,-1.4385,-1.3895,-1.2635,-1.1701,-1.1059,0.0,0.0,0.0,0.0,0.0,0.0,0.0,0.0,0.0,0.0,0.0,0.0,0.0,0.0,0.0,0.0,0.0,0.0,0.0,0.0,0.0,0.0,0.0,0.0,0.0,0.0,0.0,0.0,0.0,0.0,0.0,0.0,0.0,0.0,0.0,0.0,0.0,0.0,0.0,0.0,0.0,-1.2402,-1.2709,0.0,0.0,0.0,0.0,0.0,0.0,0.0,0.0,0.0,0.0,0.0,0.0,0.0,-1.4166,-1.3304,-1.2865,-1.243,-1.1922,-1.2432,-1.2823,-1.3142,-1.3822,-1.4224,-1.4455,-1.4635,0.0,-1.1261,-1.1139,0.0,0.0,0.0,0.0,0.0,0.0,0.0,0.0,0.0,0.0,0.0,0.0,0.0,0.0,0.0,0.0,0.0,0.0,0.0,0.0,0.0,-1.2278,-1.2699,-1.3391,-1.3438,-1.338,-1.3171,-1.3055,-1.2847,-1.2503,-1.2323,-1.228,-1.2371,-1.2928,-1.3852,-1.5151,-1.614,-1.6563,-1.6495,-1.6883,-1.6725,-1.6112,-1.549,-1.427,-1.2681,-1.2199,0.0,0.0,0.0,0.0,0.0,0.0,0.0,0.0,0.0,0.0,0.0,0.0,0.0,0.0,0.0,0.0,0.0,0.0,0.0,0.0,0.0,0.0,0.0,0.0,0.0,0.0,0.0,0.0,0.0,0.0,0.0,0.0,0.0,0.0,0.0,0.0,0.0,0.0,0.0,-1.3262,-1.4012,-1.4207,-1.459,-1.482,0.0,0.0,0.0,0.0,0.0,0.0,0.0,0.0,0.0,-1.6779,-1.6198,-1.563,-1.5014,-1.4849,-1.4542,-1.4131,-1.4748,-1.5249,-1.5636,-1.6218,-1.667,-1.7003,-1.74,-1.6916,-1.5778,-1.4303,-1.362,-1.3386,0.0,0.0,0.0,0.0,-1.2842,-1.2974,0.0,0.0,0.0,0.0,0.0,0.0,0.0,0.0,0.0,0.0,0.0,0.0,-1.3149,-1.3672,-1.4287,-1.5183,-1.5196,-1.5059,-1.4883,-1.4647,-1.4324,-1.386,-1.3758,-1.3791,-1.3902,-1.5034,-1.6306,-1.7694,-1.8506,-1.8785,-1.8589,-1.8984,-1.8772,-1.8046,-1.7976,-1.6599,-1.4272,-1.3645,-1.2899,-1.2081,0.0,0.0,0.0,0.0,0.0,0.0,0.0,0.0,0.0,0.0,0.0,0.0,0.0,0.0,0.0,0.0,0.0,0.0,0.0,0.0,0.0,0.0,0.0,0.0,0.0,0.0,0.0,0.0,0.0,0.0,0.0,0.0,0.0,0.0,0.0,0.0,0.0,-1.4545,-1.5268,-1.555,-1.5817,-1.5922,0.0,0.0,0.0,0.0,0.0,0.0,-1.7544,-1.7862,-1.8066,-1.8095,-1.7507,-1.7072,-1.6851,-1.6813,-1.6647,-1.6364,-1.7032,-1.7587,-1.8016,-1.8503,-1.8937,-1.9342,-1.967,-1.991,-1.9851,-1.7468,-1.6459,-1.6273,-1.5485,-1.4811,-1.4336,-1.4588,-1.4695,-1.4886,0.0,0.0,0.0,0.0,0.0,0.0,0.0,0.0,0.0,0.0,0.0,-1.3066,-1.4302,-1.512,-1.606,-1.7247,-1.7066,-1.6977,-1.7213,-1.6385,-1.589,-1.5856,-1.5368,-1.5337,-1.585,-1.7816,-1.92,-1.9849,-2.0637,-2.0844,-2.045,-2.0446,-2.0162,-1.9772,-1.9551,-1.8081,-1.5656,-1.5116,-1.4323,-1.3312,-1.2113,0.0,0.0,0.0,0.0,0.0,0.0,0.0,0.0,0.0,0.0,0.0,0.0,0.0,0.0,0.0,0.0,0.0,0.0,0.0,0.0,0.0,0.0,0.0,0.0,0.0,0.0,0.0,0.0,0.0,0.0,0.0,0.0,0.0,0.0,0.0,0.0,0.0,0.0,-1.657,-1.6829,0.0,0.0,0.0,0.0,-1.8039,-1.8088,-1.8263,-1.8684,-1.8738,-1.8964,-1.9391,-1.8996,-1.8729,-1.86,-1.845,-1.8281,-1.8092,-1.8932,-1.9555,-1.9958,-2.0659,-2.1062,-2.1285,-2.1464,-2.1828,-2.2073,-2.0105,-1.9081,-1.8691,-1.8194,-1.7625,-1.71,-1.7035,-1.7181,-1.7533,0.0,0.0,0.0,0.0,0.0,-0.958,-0.9753,-1.0557,-1.1484,-1.2398,-1.3524,-1.4955,-1.6868,-1.7899,-1.8943,-2.0172,-2.017,-1.9949,-1.9605,-1.9023,-1.8429,-1.7829,-1.7669,-1.8091,-1.9189,-2.0765,-2.1925,-2.2705,-2.3591,-2.3708,-2.31,-2.331,-2.2844,-2.1828,-2.1758,-2.0912,-1.9437,-1.7636,-1.6299,-1.5242,-1.3927,-1.2721,0.0,0.0,0.0,0.0,0.0,0.0,0.0,0.0,0.0,0.0,0.0,0.0,0.0,0.0,0.0,0.0,0.0,0.0,0.0,0.0,0.0,0.0,0.0,0.0,0.0,0.0,0.0,0.0,0.0,0.0,0.0,0.0,0.0,0.0,0.0,0.0,0.0,-1.712,-1.7464,0.0,-1.7858,-1.8149,-1.8384,-1.8576,-1.8979,-1.9267,-1.9241,-1.9531,-1.9741,-1.9832,-1.9689,-1.9595,-1.9611,-1.9816,-1.9874,-1.9841,-2.0545,-2.1335,-2.205,-2.2422,-2.2975,-2.3633,-2.3564,-2.3583,-2.3662,-2.2807,-2.1926,-2.1062,-2.0144,-1.9532,-1.9108,-1.9015,-1.9107,-1.9374,0.0,0.0,0.0,0.0,-0.9528,-1.0025,-1.0257,-1.1361,-1.2579,-1.3703,-1.5161,-1.6901,-1.9014,-2.021,-2.1386,-2.2619,-2.2632,-2.2377,-2.1892,-2.1421,-2.0814,-2.0,-2.0164,-2.0888,-2.2231,-2.3296,-2.4233,-2.5051,-2.5793,-2.5805,-2.5215,-2.5445,-2.4967,-2.3984,-2.3859,-2.3454,-2.2768,-2.0695,-1.8858,-1.725,-1.5745,-1.4488,-1.3376,0.0,0.0,0.0,0.0,0.0,0.0,0.0,0.0,0.0,0.0,0.0,0.0,0.0,0.0,0.0,0.0,0.0,0.0,0.0,0.0,0.0,0.0,0.0,0.0,0.0,0.0,0.0,0.0,0.0,0.0,0.0,0.0,0.0,0.0,-1.6839,-1.7464,-1.7712,-1.8164,-1.8444,-1.8433,-1.8864,-1.918,-1.918,-1.9763,-2.0097,-1.9973,-2.0274,-2.048,-2.0551,-2.0636,-2.0748,-2.0838,-2.1421,-2.1736,-2.1746,-2.254,-2.3223,-2.3809,-2.4062,-2.4531,-2.5113,-2.4744,-2.4585,-2.4596,-2.4226,-2.3646,-2.2886,-2.1893,-2.1266,-2.084,-2.0706,-2.0772,-2.1115,0.0,0.0,0.0,-0.9022,-0.9798,-1.0501,-1.0691,-1.2326,-1.3824,-1.4666,-1.6752,-1.8832,-2.0588,-2.1905,-2.3195,-2.4542,-2.435,-2.4146,-2.4064,-2.341,-2.2836,-2.2386,-2.2844,-2.3632,-2.4777,-2.5484,-2.6175,-2.6817,-2.7169,-2.7113,-2.6713,-2.6678,-2.6488,-2.6123,-2.5736,-2.5539,-2.5447,-2.4142,-2.1978,-1.9343,-1.7593,-1.6446,-1.561,0.0,0.0,0.0,0.0,0.0,0.0,0.0,0.0,0.0,0.0,0.0,0.0,0.0,0.0,0.0,0.0,0.0,0.0,0.0,0.0,0.0,0.0,0.0,0.0,0.0,0.0,0.0,0.0,0.0,0.0,0.0,0.0,0.0,-1.7156,-1.7685,-1.8196,-1.8398,-1.8849,-1.9129,-1.9129,-1.9596,-1.9903,-1.9903,-2.0356,-2.0723,-2.0899,-2.0931,-2.1157,-2.1631,-2.1909,-2.2158,-2.2363,-2.3347,-2.384,-2.3852,-2.4788,-2.5206,-2.5273,-2.5514,-2.5674,-2.5628,-2.508,-2.484,-2.4806,-2.4313,-2.4129,-2.4051,-2.3395,-2.2836,-2.2425,-2.2156,-2.2238,-2.2775,0.0,0.0,-0.9306,-0.9592,-1.0273,-1.0898,-1.1294,-1.3077,-1.4822,-1.6069,-1.8105,-2.0264,-2.2352,-2.3629,-2.4773,-2.5872,-2.5885,-2.5608,-2.507,-2.4552,-2.4278,-2.4189,-2.5098,-2.6039,-2.6938,-2.8189,-2.9033,-2.9452,-2.9745,-2.9559,-2.8929,-2.8604,-2.8069,-2.7256,-2.6851,-2.6541,-2.6269,-2.5653,-2.4647,-2.3229,-2.0268,-1.8553,-1.763,0.0,0.0,0.0,0.0,0.0,0.0,0.0,0.0,0.0,0.0,0.0,0.0,0.0,0.0,0.0,0.0,0.0,0.0,0.0,0.0,0.0,0.0,0.0,0.0,0.0,0.0,0.0,0.0,0.0,0.0,0.0,-1.7763,-1.7878,-1.7847,-1.8287,-1.8681,-1.8892,-1.937,-1.9698,-1.9698,-2.013,-2.0399,-2.0399,-2.0852,-2.1154,-2.1168,-2.1491,-2.1889,-2.2374,-2.2791,-2.3204,-2.3589,-2.443,-2.481,-2.481,-2.5263,-2.5788,-2.6281,-2.6351,-2.6676,-2.7131,-2.6248,-2.5875,-2.5828,-2.4941,-2.4517,-2.4323,-2.3823,-2.3531,-2.3358,-2.3128,-2.3748,-2.4913,0.0,-0.9443,-0.9622,-0.986,-1.0489,-1.1153,-1.1722,-1.3435,-1.5251,-1.6774,-1.9072,-2.1253,-2.3089,-2.4552,-2.5666,-2.6439,-2.6645,-2.6503,-2.5903,-2.5634,-2.5678,-2.6062,-2.6991,-2.7972,-2.8925,-2.9901,-3.0596,-3.096,-3.095,-3.0716,-3.0286,-2.9881,-2.9367,-2.8775,-2.8412,-2.8032,-2.7677,-2.7199,-2.6663,-2.5963,-2.3389,-2.1515,-2.0139,-1.8648,-1.7642,-1.6883,-1.6022,-1.5487,-1.5103,-1.4847,0.0,0.0,0.0,0.0,0.0,0.0,0.0,0.0,0.0,0.0,0.0,0.0,0.0,0.0,0.0,0.0,0.0,0.0,0.0,0.0,0.0,0.0,0.0,0.0,-1.8426,-1.8605,-1.8835,-1.9094,-1.9284,-1.9424,-1.9892,-2.0183,-2.0183,-2.0529,-2.0788,-2.0895,-2.1211,-2.1513,-2.1706,-2.2282,-2.278,-2.3162,-2.3807,-2.4284,-2.4576,-2.5273,-2.567,-2.567,-2.6153,-2.6581,-2.7011,-2.7118,-2.7388,-2.7765,-2.697,-2.6642,-2.6548,-2.5797,-2.5249,-2.4897,0.0,0.0,0.0,0.0,-2.4898,-2.6018,0.0,-0.9651,-0.9925,-0.9985,-1.0557,-1.125,-1.1991,-1.3577,-1.53,-1.7003,-1.9533,-2.1736,-2.315,-2.4782,-2.5931,-2.6336,-2.676,-2.6846,-2.6508,-2.6559,-2.7003,-2.7843,-2.8637,-2.958,-3.0672,-3.1068,-3.1433,-3.1782,-3.1425,-3.1239,-3.119,-3.0692,-3.0437,-3.0368,-2.9958,-2.9616,-2.9215,-2.8644,-2.8146,-2.7717,-2.6573,-2.4841,-2.2811,-2.1267,-2.0305,-1.9593,-1.8553,-1.7968,-1.7724,-1.7443,0.0,0.0,0.0,0.0,0.0,0.0,0.0,0.0,0.0,0.0,0.0,0.0,0.0,0.0,0.0,0.0,0.0,0.0,0.0,0.0,0.0,0.0,0.0,0.0,-1.9119,-1.9355,-1.9903,-1.9989,-1.9989,-1.9968,-2.0367,-2.0637,-2.0637,-2.0813,-2.105,-2.1297,-2.1534,-2.1857,-2.2352,-2.3051,0.0,0.0,0.0,-2.5295,-2.5318,-2.6047,-2.6403,-2.6438,-2.7075,-2.7403,-2.751,-2.7751,-2.7872,-2.7861,-2.738,-2.7193,-2.7146,-2.6687,-2.6158,-2.5631,-2.4872,-2.4423,-2.4364,-2.5102,-2.5803,-2.6512,0.0,-0.9848,-1.0033,-1.0472,-1.0802,-1.1253,-1.1993,-1.3494,-1.5212,-1.7101,-1.9296,-2.134,-2.3123,-2.4323,-2.5189,-2.5577,-2.5943,-2.6251,-2.6473,-2.7056,-2.7864,-2.8945,-3.002,-3.0975,-3.179,-3.247,-3.2898,-3.2966,-3.2843,-3.2618,-3.235,-3.1624,-3.1124,-3.0829,-3.0123,-2.9741,-2.9678,-2.9542,-2.9116,-2.851,-2.8573,-2.7004,-2.45,-2.3098,-2.202,-2.1237,-2.1022,-2.0752,-2.0482,-2.028,-1.9979,-1.9598,-1.8718,-1.7735,0.0,0.0,0.0,0.0,0.0,0.0,0.0,0.0,0.0,0.0,0.0,0.0,0.0,0.0,0.0,0.0,0.0,0.0,0.0,-1.9641,-1.9725,-1.9914,-2.0399,-2.0587,-2.0669,-2.0486,-2.0712,-2.0834,-2.0834,-2.106,-2.1308,-2.1534,-2.1782,-2.2208,-2.2829,-2.3431,-2.3994,-2.4605,-2.5347,-2.5883,-2.6082,-2.6594,-2.6953,-2.7203,-2.7355,0.0,-2.8053,-2.8101,-2.8246,-2.8416,-2.7878,-2.7638,-2.7638,-2.7159,-2.6804,-2.635,-2.5206,-2.4945,-2.5415,-2.612,-2.6777,-2.7368,-1.0169,-1.0298,-1.037,-1.0653,-1.1003,-1.1451,-1.2103,-1.3315,-1.4741,-1.644,-1.8542,-2.0423,-2.1807,-2.3365,-2.4387,-2.4584,-2.5412,-2.6221,-2.7004,-2.7775,-2.8785,-3.0104,-3.1028,-3.1936,-3.2689,-3.3254,-3.3563,-3.3563,-3.3301,-3.3112,-3.2944,-3.2324,-3.196,-3.1776,-3.1383,-3.0985,-3.0638,-3.0638,-3.0209,-2.9482,-2.9353,-2.8337,-2.6818,-2.5608,-2.463,-2.3944,-2.3714,-2.3465,-2.3229,-2.3145,-2.2917,-2.2535,-2.159,-2.0683,-1.9722,0.0,0.0,0.0,0.0,0.0,0.0,0.0,0.0,0.0,0.0,0.0,0.0,0.0,0.0,-1.8885,-1.914,0.0,-1.9848,-2.0211,-2.0248,-2.0367,-2.0684,-2.1032,-2.1144,-2.0788,-2.0942,-2.1173,-2.1373,-2.1632,-2.1995,-2.2433,-2.2688,-2.307,-2.3528,-2.4262,-2.4812,-2.516,-2.599,-2.6533,-2.6664,-2.6891,-2.7114,-2.7425,-2.7558,-2.7824,-2.821,-2.8343,-2.8487,-2.8572,-2.8332,-2.8187,-2.8176,-2.7646,-2.7372,-2.7149,-2.6306,-2.604,-2.6235,-2.6882,-2.7354,-2.7722,-1.0545,-1.0749,-1.0797,-1.0846,-1.12,-1.1675,-1.2211,-1.3082,-1.4181,-1.5636,-1.7565,-1.9189,-2.0233,-2.2028,-2.3325,-2.3678,-2.4907,-2.6221,-2.7518,-2.8408,-2.959,-3.1165,-3.1849,-3.2604,-3.3357,-3.3645,-3.3799,-3.3799,-3.3479,-3.331,-3.3327,-3.2892,-3.2702,-3.2702,-3.2626,-3.2287,-3.1706,-3.1706,-3.1307,-3.0601,-2.9961,-2.9529,-2.9134,-2.8123,-2.718,-2.6356,-2.6105,-2.5845,-2.5587,-2.5589,-2.5436,-2.5124,-2.4221,-2.3489,-2.2602,-2.096,-2.0161,0.0,0.0,0.0,0.0,0.0,0.0,0.0,0.0,-1.8396,-1.8724,-1.8585,-1.9021,-1.9471,-1.9692,-2.0016,-2.0399,-2.0743,-2.0787,-2.0902,-2.1181,-2.1616,-2.1729,-2.1359,-2.1461,-2.1702,-2.207,-2.233,-2.2688,-2.3314,-2.3572,-2.3866,-2.4293,-2.5036,-2.5581,-2.5716,-2.6549,-2.6981,-2.6981,-2.7042,-2.7198,-2.7498,-2.7763,-2.8029,-2.8294,-2.8524,-2.862,-2.862,-2.862,-2.862,-2.8572,-2.8128,-2.7935,-2.7935,-2.755,-2.7278,-2.7104,-2.7438,-2.771,-2.8031,0.0,-1.0894,-1.1123,-1.1376,-1.1453,-1.1677,-1.2212,-1.279,-1.3762,-1.5339,-1.6388,-1.7605,-1.9198,-2.0253,-2.1552,-2.3224,-2.4306,-2.5674,-2.7484,-2.8631,-3.0069,-3.19,-3.2398,-3.2981,-3.3713,-3.3782,-3.3799,-3.3799,-3.3761,-3.3723,-3.3723,-3.3327,-3.312,-3.312,-3.274,-3.2533,-3.25,-3.25,-3.2264,-3.1865,-3.1416,-3.1055,-3.0694,-2.99,-2.8542,-2.7118,-2.7356,-2.725,-2.6971,-2.6969,-2.6966,-2.6804,-2.6115,-2.5449,-2.4667,-2.364,-2.2885,-2.2097,-2.0842,-2.0009,-1.9397,-1.8751,-1.9176,-1.9631,0.0,-1.9426,-1.9754,-1.9781,-1.9818,-1.9952,-2.0399,-2.0529,-2.0754,-2.1388,-2.1501,-2.1709,-2.2327,-2.2675,-2.2812,-2.2771,-2.256,-2.2567,-2.2835,-2.2921,-2.3138,-2.3618,-2.3675,-2.4063,-2.4925,-2.5305,-2.5796,-2.6446,-2.6837,-2.6981,-2.6981,-2.7256,-2.751,-2.7775,-2.8029,-2.8306,-2.8572,-2.8608,-2.862,-2.862,-2.862,-2.862,-2.862,-2.8524,-2.8524,-2.8524,-2.8428,-2.8404,-2.8332,-2.7948,-2.8056,-2.8524,0.0,-1.1072,-1.1424,-1.1689,-1.1737,-1.1858,-1.2231,-1.2752,-1.341,-1.4225,-1.5169,-1.615,-1.7164,-1.873,-2.0432,-2.2269,-2.3574,-2.515,-2.7176,-2.8563,-3.0121,-3.202,-3.2484,-3.3049,-3.3782,-3.3799,-3.3799,-3.3799,-3.3799,-3.3799,-3.3799,-3.3647,-3.3555,-3.3517,-3.3365,-3.3175,-3.293,-3.293,-3.2733,-3.2324,-3.1746,-3.1432,-3.1185,-3.0244,-2.9297,-2.8387,-2.8326,-2.8048,0.0,-2.7779,-2.764,-2.7392,-2.7146,-2.6725,-2.6148,-2.5416,-2.4867,-2.4158,-2.2642,-2.1683,-2.0903,-1.9932,-1.9971,-2.0205,-1.9761,-2.0151,-2.0612,-2.0631,-2.0942,-2.1301,-2.1514,-2.167,-2.1844,-2.2145,-2.2321,-2.2497,-2.2802,-2.3277,-2.3562,-2.3562,-2.3675,-2.3733,-2.3592,-2.3702,-2.3972,-2.4434,-2.4729,-2.5074,-2.5504,-2.5922,-2.6297,-2.6596,-2.6994,-2.721,-2.721,-2.7522,-2.7775,-2.8041,-2.8149,-2.8355,-2.862,-2.862,-2.862,-2.862,-2.862,-2.862,-2.862,-2.862,-2.862,-2.862,-2.862,-2.862,-2.8572,-2.8332,-2.8428,-2.862,0.0,-1.1125,-1.1515,-1.1838,-1.1966,-1.2099,-1.2364,-1.2738,-1.3108,-1.3467,-1.4231,-1.5074,-1.5888,-1.754,-1.9349,-2.1167,-2.258,-2.4306,-2.6542,-2.8062,-2.9713,-3.1588,-3.2206,-3.2895,-3.3665,-3.3748,-3.3799,-3.3799,-3.3799,-3.3799,-3.3799,-3.3799,-3.3799,-3.3799,-3.3799,-3.3647,-3.3365,-3.3365,-3.3146,-3.273,-3.2096,-3.1729,-3.1429,-3.0328,-2.958,-2.9108,-2.8707,-2.8294,-2.786,-2.7758,-2.7535,-2.7316,-2.7342,-2.7264,-2.6991,-2.6564,-2.6208,-2.5628,-2.4119,-2.3056,-2.2078,-2.08,-2.0628,-2.0674,-2.0324,-2.0828,-2.1397,-2.1422,-2.2004,-2.2532,-2.2561,-2.2792,-2.3017,-2.3179,-2.3248,-2.3323,-2.3446,-2.3915,-2.4288,-2.4288,-2.4657,-2.4837,-2.4543,-2.462,-2.4854,-2.5168,-2.5644,-2.5933,-2.6005,-2.6451,-2.6728,-2.6801,-2.7247,-2.7534,-2.7534,-2.7787,-2.8017,-2.8198,-2.8282,-2.8427,-2.862,-2.862,-2.862,-2.862,-2.862,-2.862,-2.862,-2.862,-2.862,-2.862,-2.862,-2.862,-2.862,-2.862,-2.862,-2.862,0.0,0.0,-1.1359,-1.1818,-1.2111,-1.2385,-1.265,-1.2699,-1.2903,-1.3445,-1.3753,-1.4516,-1.6021,-1.688,-1.8118,-1.9981,-2.1258,-2.2994,-2.5496,-2.6982,-2.8603,-3.0457,-3.157,-3.2501,-3.3309,-3.3611,-3.3799,-3.3799,-3.3799,-3.3799,-3.3799,-3.3799,-3.3799,-3.3799,-3.3799,-3.3799,-3.3761,-3.3761,-3.3594,-3.3254,-3.2844,-3.2244,-3.1474,-3.0327,-2.947,-2.8738,-2.8349,-2.7735,-2.7086,-2.6662,-2.6525,-2.6525,-2.6542,-2.6799,-2.7098,-2.7086,-2.6842,-2.6316,-2.5222,-2.4043,-2.2743,-2.1323,-2.1138,-2.1246,-2.1092,-2.1572,-2.21,-2.2148,-2.2749,-2.3338,-2.3516,-2.3774,-2.4105,-2.4571,-2.4241,-2.4116,-2.4489,-2.4771,-2.4951,-2.4951,-2.5439,-2.5752,-2.5752,-2.5523,-2.5487,-2.574,-2.6017,-2.6283,-2.656,-2.6825,-2.709,-2.7389,-2.7655,-2.7799,-2.7799,-2.8065,-2.8198,-2.821,-2.8475,-2.8608,-2.862,-2.862,-2.862,-2.862,-2.862,-2.862,-2.862,-2.862,-2.862,-2.862,-2.862,-2.862,-2.862,-2.862,-2.862,-2.862,0.0,0.0,0.0,-1.207,-1.2397,-1.2602,-1.2687,-1.2699,-1.2829,-1.3195,-1.3619,0.0,0.0,0.0,0.0,0.0,-1.9985,-2.1633,-2.3562,-2.5403,-2.7125,-2.8708,-3.0017,-3.1038,-3.1765,-3.2373,-3.267,-3.267,-3.2946,-3.3203,-3.346,-3.346,-3.3597,-3.3799,-3.3799,-3.37,-3.346,-3.346,-3.3237,-3.2863,-3.2229,-3.1645,-3.108,-2.995,-2.8871,-2.7912,0.0,-2.6355,-2.592,-2.5515,-2.5378,-2.5429,-2.5697,-2.6212,-2.6781,-2.7277,-2.7195,-2.6682,-2.558,-2.4404,-2.3184,-2.1848,-2.1567,-2.1601,-2.1746,-2.217,-2.2776,-2.3556,-2.4314,-2.4976,-2.5549,-2.5716,-2.5884,-2.6239,-2.6042,-2.585,-2.5921,-2.6136,-2.6178,-2.5832,-2.5977,-2.6085,-2.6085,-2.5969,-2.5989,-2.6042,-2.6463,-2.6753,-2.6849,-2.7271,-2.7594,-2.7679,-2.7932,-2.8077,-2.8077,-2.8343,-2.8475,-2.8487,-2.8572,-2.862,-2.862,-2.862,-2.862,-2.862,-2.862,-2.862,-2.862,-2.862,-2.862,-2.862,-2.862,-2.862,-2.862,-2.862,-2.862,-2.862,0.0,0.0,0.0,0.0,0.0,0.0,0.0,0.0,0.0,0.0,0.0,0.0,0.0,0.0,0.0,0.0,0.0,-2.0242,-2.1602,-2.3598,-2.527,-2.6568,-2.8296,-2.9547,-3.0238,-3.1229,-3.1695,-3.1695,-3.2107,-3.2452,-3.2692,-3.2692,-3.2792,-3.3032,-3.3032,-3.2895,-3.2692,-3.2692,-3.24,-3.1833,-3.1354,-3.0686,-2.9915,-2.9042,-2.7966,0.0,-2.5708,-2.5088,-2.4793,-2.4527,-2.4499,-2.4658,-2.4788,-2.5449,-2.6307,-2.7019,-2.6967,-2.6428,-2.5406,-2.4264,-2.3124,-2.2031,-2.18,-2.1947,-2.2348,-2.2856,-2.3605,-2.4709,-2.5614,-2.641,-2.6997,-2.7348,-2.7549,-2.7614,-2.7451,-2.7195,-2.6791,-2.6953,-2.6913,-2.6274,-2.6387,-2.6508,-2.6508,-2.6677,-2.6713,-2.6475,-2.6873,-2.7162,-2.7259,-2.7715,-2.7956,-2.7956,-2.821,-2.8355,-2.8355,-2.8536,-2.862,-2.862,-2.862,-2.862,-2.862,-2.862,-2.862,-2.862,-2.862,-2.862,-2.862,-2.862,-2.862,-2.862,-2.862,-2.862,-2.862,-2.862,-2.862,-2.862,0.0,0.0,0.0,0.0,0.0,0.0,0.0,0.0,0.0,0.0,0.0,0.0,0.0,0.0,0.0,0.0,0.0,0.0,-1.9728,-2.1569,-2.3068,-2.4062,-2.6418,-2.801,-2.8704,-3.0106,-3.0823,-3.0874,-3.1251,-3.1475,-3.1509,-3.1509,-3.1526,-3.1543,-3.1543,-3.1526,-3.1474,-3.1474,-3.1011,-3.0276,-3.0258,-2.9403,-2.8083,-2.7689,-2.682,-2.5708,-2.4631,-2.4057,-2.3796,-2.3752,-2.3982,-2.4205,-2.4007,-2.4685,-2.5643,-2.6271,-2.6121,-2.564,-2.4778,-2.3685,-2.2632,-2.1946,-2.1947,-2.2336,-2.2983,-2.3665,-2.4434,-2.5543,-2.664,-2.7537,-2.792,-2.8591,-2.8952,-2.8753,-2.8542,-2.8098,-2.7241,-2.7332,-2.7172,-2.6371,-2.6704,-2.703,-2.703,-2.7522,-2.7606,-2.7078,-2.7317,-2.757,-2.7824,-2.8077,-2.8222,-2.8222,-2.8487,-2.862,-2.862,-2.862,-2.862,-2.862,-2.862,-2.862,-2.862,-2.862,-2.862,-2.862,-2.862,-2.862,-2.862,-2.862,-2.862,-2.862,-2.862,-2.862,-2.862,-2.862,-2.862,-2.862,0.0,0.0,0.0,0.0,0.0,0.0,0.0,0.0,0.0,0.0,0.0,0.0,0.0,0.0,0.0,0.0,0.0,0.0,-1.813,-1.9541,-2.0782,-2.1743,-2.3724,-2.5246,-2.6046,-2.7451,-2.8407,-2.8905,-2.9332,-2.9812,-3.0326,-3.0326,-3.0463,-3.072,-3.072,-3.0429,-2.997,-2.997,-2.9362,-2.8458,-2.8418,-2.7839,-2.7007,-2.6828,-2.608,-2.5041,-2.475,-2.4295,-2.3735,-2.3154,-2.3238,-2.3665,-2.4348,-2.4607,-2.476,-2.5342,-2.5052,-2.4417,-2.3853,-2.329,-2.2831,-2.25,-2.2673,-2.3099,-2.3779,-2.429,-2.5036,-2.6439,-2.7198,-2.8008,-2.9159,-2.9522,-2.9774,-3.0282,-2.998,-2.9402,-2.8792,-2.8749,-2.8453,-2.7505,-2.7534,-2.7618,-2.7618,-2.7739,-2.7836,-2.7896,-2.7968,-2.8029,-2.8101,-2.8367,-2.8512,-2.8512,-2.8584,-2.862,-2.862,-2.862,-2.862,-2.862,-2.862,-2.862,-2.862,-2.862,-2.862,-2.862,-2.862,-2.862,-2.862,-2.862,-2.862,-2.862,-2.862,-2.862,-2.862,-2.862,-2.862,-2.862,0.0,0.0,0.0,0.0,0.0,0.0,0.0,0.0,0.0,0.0,0.0,0.0,0.0,0.0,0.0,0.0,0.0,0.0,0.0,-1.8049,-1.9016,-1.9821,-2.1572,-2.2917,-2.377,-2.5307,-2.6352,-2.6844,-2.7229,-2.7731,-2.8263,-2.8135,-2.8235,-2.8567,-2.8567,-2.8287,-2.7812,-2.7941,-2.748,0.0,0.0,-2.6352,-2.5696,-2.5788,-2.5298,-2.4629,-2.4569,-2.4117,-2.3513,-2.309,-2.3022,-2.3241,-2.4057,-2.4098,-2.3899,-2.4339,-2.4071,-2.3544,-2.3251,-2.3042,-2.2893,-2.2816,-2.3241,-2.3896,-2.448,-2.5001,-2.5761,-2.7179,-2.7801,-2.8431,-2.9547,-2.9862,-3.0091,-3.0493,-3.0204,-2.9699,-2.9179,-2.904,-2.8697,-2.7905,-2.7908,-2.798,-2.798,-2.8089,-2.8222,-2.8379,-2.827,-2.8258,-2.8379,-2.8536,-2.862,-2.862,-2.862,-2.862,-2.862,-2.862,-2.862,-2.862,-2.862,-2.862,-2.862,-2.862,-2.862,-2.862,-2.862,-2.862,-2.862,-2.862,-2.862,-2.862,-2.862,-2.862,-2.862,-2.862,-2.862,-2.862,0.0,0.0,0.0,0.0,0.0,0.0,0.0,0.0,0.0,0.0,0.0,0.0,0.0,0.0,0.0,0.0,0.0,0.0,0.0,0.0,-1.7673,-1.8252,-1.9745,-2.0947,-2.172,-2.3346,-2.4353,-2.4651,-2.502,-2.5345,-2.5682,-2.5424,-2.5454,-2.5742,-2.5742,-2.5545,-2.5289,-2.561,-2.5307,-2.4684,-2.5149,-2.4919,-2.4355,0.0,-2.4547,-2.4239,-2.4145,-2.3752,-2.3322,-2.3295,-2.3084,-2.289,-2.3438,-2.3372,-2.3152,-2.3365,-2.3192,-2.2926,-2.2905,-2.2893,-2.2905,-2.3017,-2.3729,-2.456,-2.5048,-2.5689,-2.6481,-2.7628,-2.8156,-2.8696,-2.944,-2.9797,-3.0053,-3.0093,-2.9943,-2.9602,-2.9092,-2.8863,-2.8538,-2.7967,-2.8125,-2.8258,-2.8258,-2.8475,-2.862,-2.862,-2.8391,-2.8367,-2.8608,-2.862,-2.862,-2.862,-2.862,-2.862,-2.862,-2.862,-2.862,-2.862,-2.862,-2.862,-2.862,-2.862,-2.862,-2.862,-2.862,-2.862,-2.862,-2.862,-2.862,-2.862,-2.862,-2.862,-2.862,-2.862,-2.862,-2.862,0.0,0.0,0.0,0.0,0.0,0.0,0.0,0.0,0.0,0.0,-1.4437,-1.4726,0.0,0.0,0.0,0.0,0.0,0.0,0.0,0.0,0.0,-1.6986,-1.8238,-1.9227,-1.9847,-2.0927,-2.176,-2.2361,-2.243,-2.2645,-2.2967,-2.3126,-2.3257,-2.3314,-2.3314,-2.3142,-2.2899,-2.3179,-2.2927,-2.2375,-2.3449,-2.361,-2.3327,-2.3863,0.0,0.0,-2.3528,-2.3507,-2.3444,-2.335,-2.3079,-2.2852,-2.3041,-2.2842,-2.2591,-2.2917,-2.2707,-2.2496,-2.2806,-2.2893,-2.3017,-2.3505,-2.4104,-2.474,-2.5428,-2.5984,-2.6602,-2.7466,-2.7736,-2.8112,-2.9149,-2.9541,-2.9915,-3.0565,-3.0714,-3.0518,-2.9808,-2.9606,-2.9262,-2.8547,-2.8524,-2.8548,-2.8548,-2.8596,-2.862,-2.862,-2.8572,-2.8572,-2.862,-2.862,-2.862,-2.862,-2.862,-2.862,-2.862,-2.862,-2.862,-2.862,-2.862,-2.862,-2.862,-2.862,-2.862,-2.862,-2.862,-2.862,-2.862,-2.862,-2.862,-2.862,-2.862,-2.862,-2.862,-2.862,-2.862,-2.862,0.0,0.0,0.0,0.0,0.0,0.0,0.0,-1.3957,-1.4666,-1.5077,-1.5366,-1.5475,-1.533,-1.5427,0.0,0.0,0.0,0.0,0.0,0.0,0.0,-1.6471,-1.7184,-1.7836,-1.8461,-1.9338,-2.0035,-2.0498,0.0,-2.0708,-2.1052,-2.1001,-2.1067,-2.1249,-2.1249,-2.1082,-2.0818,-2.1255,-2.1271,-2.1068,-2.2093,-2.251,-2.2598,-2.305,0.0,0.0,-2.359,-2.3628,-2.3505,-2.3574,-2.3467,-2.3295,-2.3089,-2.295,-2.2941,-2.3116,-2.3042,-2.293,-2.3116,-2.3302,-2.3588,-2.4089,-2.4572,-2.5162,-2.5924,-2.6287,-2.6728,-2.7437,-2.7736,-2.8177,-2.911,-2.9501,-2.9926,-3.0779,-3.0699,-3.0524,-3.0418,-2.987,-2.9375,-2.9051,-2.8764,-2.862,-2.862,-2.862,-2.862,-2.862,-2.862,-2.862,-2.862,-2.862,-2.862,-2.862,-2.862,-2.862,-2.862,-2.862,-2.862,-2.862,-2.862,-2.862,-2.862,-2.862,-2.862,-2.862,-2.862,-2.862,-2.862,-2.862,-2.862,-2.862,-2.862,-2.862,-2.862,-2.862,-2.862,-2.862,0.0,0.0,0.0,0.0,0.0,0.0,0.0,-1.4218,-1.5049,-1.5801,-1.6175,-1.6238,-1.5801,-1.5704,-1.5728,0.0,0.0,0.0,0.0,0.0,0.0,0.0,0.0,0.0,-1.7476,0.0,0.0,-1.8906,-1.8971,0.0,0.0,0.0,0.0,0.0,-1.9484,-1.9346,-1.9126,-1.9668,-1.9949,0.0,0.0,-2.1575,-2.1945,0.0,0.0,0.0,0.0,-2.3524,-2.3369,-2.371,-2.3814,-2.3778,-2.3514,-2.3469,-2.3547,-2.3537,-2.3525,-2.3525,-2.3525,-2.3822,-2.423,-2.4636,-2.5139,-2.5705,-2.6398,-2.6622,-2.6876,-2.7572,-2.7854,-2.8197,-2.898,-2.9458,-2.994,-3.0713,-3.0602,-3.0522,-3.0868,-3.0185,-2.9602,-2.9465,-2.9063,-2.8716,-2.862,-2.862,-2.862,-2.862,-2.862,-2.862,-2.862,-2.862,-2.862,-2.862,-2.862,-2.862,-2.862,-2.862,-2.862,-2.862,-2.862,-2.862,-2.862,-2.862,-2.862,-2.862,-2.862,-2.862,-2.862,-2.862,-2.862,-2.862,-2.862,-2.862,-2.862,-2.862,-2.862,-2.862,0.0,0.0,0.0,0.0,0.0,0.0,0.0,-1.4167,-1.5274,-1.5823,-1.6344,-1.6646,-1.6598,-1.6356,-1.6154,0.0,0.0,0.0,0.0,0.0,0.0,0.0,0.0,0.0,0.0,0.0,0.0,-1.7672,-1.7669,0.0,0.0,0.0,0.0,0.0,0.0,-1.8159,-1.8158,-1.8433,0.0,0.0,0.0,0.0,0.0,0.0,0.0,0.0,0.0,-2.2722,-2.2759,-2.3339,-2.374,-2.4072,-2.4641,-2.4455,-2.4007,-2.3953,-2.3933,-2.3933,-2.3933,-2.423,-2.4636,-2.5042,-2.5721,-2.6413,-2.6844,-2.6983,-2.7231,-2.7927,-2.7796,-2.7796,-2.8527,-2.9226,-2.9846,-3.021,-3.0873,-3.1262,-3.0933,-3.0826,-3.049,-2.9777,-2.9465,-2.9148,-2.8668,-2.862,-2.862,-2.862,-2.862,-2.862,-2.862,-2.862,-2.862,-2.862,-2.862,-2.862,-2.862,-2.862,-2.862,-2.862,-2.862,-2.862,-2.862,-2.862,-2.862,-2.862,-2.862,-2.862,-2.862,-2.862,-2.862,-2.862,-2.862,-2.862,-2.862,-2.862,-2.862,-2.862,0.0,0.0,0.0,0.0,0.0,0.0,-1.2936,-1.4382,-1.5592,-1.6293,-1.6839,-1.7117,-1.696,-1.6694,-1.6416,0.0,0.0,0.0,0.0,0.0,0.0,0.0,0.0,0.0,0.0,0.0,-1.7276,-1.7276,-1.7276,0.0,0.0,0.0,0.0,0.0,0.0,-1.7464,-1.7477,-1.7783,0.0,0.0,0.0,0.0,0.0,0.0,0.0,0.0,0.0,0.0,-2.2506,-2.3496,-2.4191,-2.478,-2.539,-2.5584,-2.5531,-2.5252,-2.5112,-2.5065,-2.5065,-2.5042,-2.5152,-2.607,-2.6229,-2.6446,-2.7486,-2.7382,-2.7274,-2.795,-2.8092,-2.8264,-2.8796,-2.9493,-3.0253,-3.1081,-3.1663,-3.2145,-3.2497,-3.2135,-3.1746,-3.1488,-3.0768,-3.0093,-2.9567,-2.9232,-2.8956,-2.862,-2.862,-2.862,-2.862,-2.862,-2.862,-2.862,-2.862,-2.862,-2.862,-2.862,-2.862,-2.862,-2.862,-2.862,-2.862,-2.862,-2.862,-2.862,-2.862,-2.862,-2.862,-2.862,-2.862,-2.862,-2.862,-2.862,-2.862,-2.862,-2.862,-2.862,0.0,0.0,0.0,0.0,0.0,-1.1295,-1.2754,-1.429,-1.5559,-1.6377,-1.6996,-1.7274,-1.7008,-1.6815,-1.6585,-1.6335,0.0,0.0,0.0,0.0,0.0,0.0,0.0,0.0,0.0,0.0,-1.7278,-1.7351,-1.7351,-1.7399,0.0,0.0,-1.7346,-1.7346,0.0,0.0,0.0,0.0,0.0,0.0,0.0,0.0,0.0,0.0,0.0,0.0,0.0,0.0,0.0,0.0,0.0,-2.4891,-2.5625,-2.62,-2.6565,-2.6319,-2.62,-2.6133,-2.6024,-2.5856,-2.5937,-2.6792,-2.6741,-2.6881,-2.8212,-2.7933,-2.76,-2.842,-2.8539,-2.8637,-2.8998,-2.9705,-3.0491,-3.1421,-3.2064,-3.265,-3.3322,-3.2947,-3.2541,-3.2355,-3.1524,-3.0717,-2.9984,-2.9471,-2.9004,-2.862,-2.862,-2.862,-2.862,-2.862,-2.862,-2.862,-2.862,-2.862,-2.862,-2.862,-2.862,-2.862,-2.862,-2.862,-2.862,-2.862,-2.862,-2.862,-2.862,-2.862,-2.862,-2.862,-2.862,-2.862,-2.862,-2.862,-2.862,-2.862,-2.862,-2.862,0.0,0.0,0.0,0.0,0.0,0.0,-1.2008,-1.3627,-1.5007,-1.5808,-1.6598,-1.6996,-1.673,-1.6706,-1.6585,-1.6335,0.0,0.0,0.0,0.0,0.0,0.0,0.0,0.0,0.0,0.0,-1.7641,-1.7895,-1.7895,-1.804,-1.8275,-1.8028,-1.7895,-1.7883,0.0,0.0,0.0,0.0,0.0,0.0,0.0,0.0,0.0,0.0,0.0,0.0,0.0,0.0,0.0,0.0,0.0,0.0,0.0,-2.5989,-2.6644,-2.6892,-2.6999,-2.6899,-2.6486,-2.6664,-2.6967,-2.6989,-2.7326,-2.7962,-2.9026,-2.8666,-2.8389,-2.9453,-2.9058,-2.8606,-2.8934,-2.9654,-3.0336,-3.0735,-3.177,-3.2599,-3.289,-3.288,-3.2567,-3.171,-3.137,-3.0732,-2.9494,-2.8908,-2.862,-2.862,-2.862,-2.862,-2.862,-2.862,-2.862,-2.862,-2.862,-2.862,-2.862,-2.862,-2.862,-2.862,-2.862,-2.862,-2.862,-2.862,-2.862,-2.862,-2.862,-2.862,-2.862,-2.862,-2.862,-2.862,-2.862,-2.862,-2.862,-2.862,-2.862,-2.862,0.0,0.0,0.0,0.0,0.0,0.0,0.0,-1.3349,-1.4623,-1.576,-1.6272,-1.6573,-1.6682,-1.6525,-1.638,-1.6311,0.0,0.0,0.0,0.0,0.0,0.0,0.0,0.0,0.0,-1.7556,-1.7822,-1.7907,-1.8282,-1.8415,-1.83,-1.8384,-1.8258,-1.7895,-1.781,-1.7677,0.0,0.0,0.0,0.0,0.0,0.0,0.0,0.0,0.0,0.0,0.0,0.0,0.0,0.0,0.0,0.0,0.0,0.0,0.0,-2.7029,-2.7367,-2.7435,-2.7513,-2.7485,-2.7524,-2.8041,-2.8271,-2.8589,-2.9429,-2.9185,-2.8954,-2.9578,-2.924,-2.8874,-2.8975,-2.9453,-3.0067,-3.0703,-3.1563,-3.2521,-3.3576,-3.3556,-3.3436,-3.3512,-3.1995,-3.0717,-2.9937,-2.9088,-2.862,-2.862,-2.862,-2.862,-2.862,-2.862,-2.862,-2.862,-2.862,-2.862,-2.862,-2.862,-2.862,-2.862,-2.862,-2.862,-2.862,-2.862,-2.862,-2.862,-2.862,-2.862,-2.862,-2.862,-2.862,-2.862,-2.862,-2.862,-2.862,-2.862,-2.862,-2.862,0.0,0.0,0.0,0.0,0.0,0.0,0.0,-1.2914,-1.4079,-1.516,-1.5716,-1.6054,-1.6235,-1.6272,-1.6263,-1.6166,0.0,0.0,0.0,0.0,0.0,0.0,0.0,0.0,-1.6948,-1.7581,-1.8004,-1.8209,-1.8645,-1.8886,-1.8891,-1.8886,-1.8681,-1.8342,-1.804,-1.781,0.0,0.0,0.0,0.0,0.0,0.0,0.0,0.0,0.0,0.0,0.0,0.0,0.0,0.0,0.0,0.0,0.0,0.0,0.0,0.0,-2.7212,-2.7474,-2.8127,-2.8136,-2.8086,-2.856,-2.8643,-2.887,-2.9589,-2.9439,-2.9207,-2.9578,-2.9422,-2.9243,-2.9243,-2.9707,-3.0343,-3.1121,-3.1809,-3.2614,-3.3703,-3.3619,-3.3354,-3.3228,-3.1651,-3.0379,-2.9902,-2.91,-2.862,-2.862,-2.862,-2.862,-2.862,-2.862,-2.862,-2.862,-2.862,-2.862,-2.862,-2.862,-2.862,-2.862,-2.862,-2.862,-2.862,-2.862,-2.862,-2.862,-2.862,-2.862,0.0,-2.8729,-2.8765,-2.8777,-2.8886,-2.8922,-2.8922,-2.8922,-2.8922,-2.8922,0.0,0.0,0.0,0.0,0.0,0.0,0.0,0.0,-1.3421,-1.4198,-1.4979,-1.545,-1.5497,-1.5946,-1.6178,-1.591,0.0,0.0,0.0,0.0,0.0,0.0,0.0,0.0,-1.6706,-1.752,-1.8185,-1.8686,-1.9019,-1.9418,-1.9881,-1.9418,-1.9165,-1.908,-1.8306,-1.7931,0.0,0.0,0.0,0.0,0.0,0.0,0.0,0.0,0.0,0.0,0.0,0.0,0.0,0.0,0.0,0.0,0.0,0.0,0.0,0.0,0.0,0.0,0.0,-2.8616,-2.8663,-2.8685,-2.871,-2.8881,-2.96,-2.9431,0.0,-2.955,-2.9592,-2.9611,-2.9617,-3.0261,-3.107,-3.1794,-3.2261,-3.2729,-3.3316,-3.3052,-3.2398,-3.1341,-3.0531,-2.9889,-2.9423,-2.8908,-2.862,-2.862,-2.862,-2.862,-2.862,-2.862,-2.862,-2.862,-2.862,-2.862,-2.862,-2.862,-2.862,-2.862,-2.862,-2.862,-2.862,-2.862,-2.862,-2.862,-2.862,-2.8632,-2.8669,-2.891,-2.9019,-2.9067,-2.9308,-2.9405,-2.9405,-2.9405,-2.9405,-2.9405,0.0,0.0,0.0,0.0,0.0,0.0,0.0,0.0,0.0,0.0,-1.4636,-1.5033,-1.5461,-1.5789,-1.5958,0.0,0.0,0.0,0.0,0.0,0.0,0.0,0.0,0.0,-1.6706,-1.7684,-1.836,-1.8686,-1.9394,-1.9793,-1.9881,-1.9999,-1.9697,-1.9092,-1.8705,-1.8185,0.0,0.0,0.0,0.0,0.0,0.0,0.0,0.0,0.0,0.0,-1.8077,-1.8428,0.0,0.0,0.0,0.0,0.0,0.0,0.0,0.0,-2.6516,-2.7,-2.8151,0.0,-2.9084,-2.9422,-2.9697,-2.9968,0.0,-2.9816,-2.952,-2.9562,-2.9592,-2.9611,-2.9583,-3.0312,-3.0937,-3.1115,-3.1675,-3.2161,-3.2394,-3.2045,-3.1619,-3.1249,-3.0247,-2.9519,-2.9423,-2.8908,-2.862,-2.862,-2.862,-2.862,-2.862,-2.862,-2.862,-2.862,-2.862,-2.862,-2.862,-2.862,-2.862,-2.862,-2.862,-2.862,-2.862,-2.862,-2.862,-2.862,-2.862,-2.8741,-2.8922,-2.8982,-2.9127,-2.932,-2.9381,-2.9405,-2.9405,-2.9405,-2.9405,-2.9405,0.0,0.0,0.0,0.0,0.0,0.0,0.0,0.0,0.0,0.0,0.0,0.0,0.0,0.0,0.0,0.0,0.0,0.0,0.0,0.0,0.0,0.0,0.0,-1.6875,-1.6875,-1.7805,-1.8481,-1.8899,-1.9588,-2.0108,-2.0458,-2.0362,-2.0071,-1.9624,-1.8874,-1.8221,0.0,0.0,0.0,0.0,0.0,0.0,0.0,0.0,0.0,0.0,-1.7696,-1.796,0.0,-1.9298,-1.999,-2.0816,0.0,0.0,0.0,0.0,-2.622,-2.6687,-2.7853,-2.8606,-2.9177,-2.9604,-2.9963,-3.0197,-3.0028,-2.9769,-2.9556,-2.9372,-2.9623,-2.9948,-3.0113,-3.0849,-3.1461,-3.1616,-3.2031,-3.2218,-3.1898,-3.157,-3.1089,-3.0453,-2.9813,-2.9292,-2.9052,-2.8764,-2.862,-2.862,-2.862,-2.862,-2.862,-2.862,-2.862,-2.862,-2.862,-2.862,-2.862,-2.862,-2.862,-2.862,-2.862,-2.862,-2.862,-2.862,-2.8693,-2.8801,-2.8801,-2.8958,-2.92,-2.932,-2.9453,-2.9598,-2.9731,-2.9779,-2.9779,-2.9779,-2.9779,-2.9779,0.0,0.0,0.0,0.0,0.0,0.0,0.0,0.0,0.0,0.0,0.0,0.0,0.0,0.0,0.0,0.0,0.0,0.0,0.0,0.0,0.0,0.0,-1.6996,-1.7117,-1.7153,-1.7937,-1.8613,-1.9165,-1.9757,-2.0398,-2.1087,-2.064,-2.0325,-2.0071,-1.8831,-1.8143,-1.7907,0.0,0.0,0.0,0.0,0.0,0.0,0.0,0.0,0.0,0.0,0.0,0.0,-1.8612,-1.9401,-2.0414,-2.1904,0.0,0.0,0.0,0.0,0.0,-2.7492,-2.8364,-2.9064,-2.9647,-3.0041,-3.0228,-2.9865,-2.9737,-2.9592,-2.9192,-2.9756,-3.0434,-3.0823,-3.1513,-3.2084,-3.2309,-3.238,-3.2182,-3.155,-3.1093,-3.0483,-2.9542,-2.934,-2.91,-2.862,-2.862,-2.862,-2.862,-2.862,-2.862,-2.862,-2.862,-2.862,-2.862,-2.862,-2.862,-2.862,-2.862,-2.862,-2.862,-2.862,-2.862,-2.862,-2.862,-2.8801,-2.9019,-2.9055,-2.9224,-2.9477,-2.9707,-2.9815,-2.9888,-3.0117,-3.0214,-3.0214,-3.0214,-3.0214,-3.0214,0.0,0.0,0.0,0.0,0.0,0.0,0.0,0.0,0.0,0.0,0.0,0.0,0.0,0.0,0.0,0.0,0.0,0.0,0.0,0.0,0.0,-1.7399,-1.7189,-1.7201,-1.7418,-1.8246,-1.8911,-1.9443,-2.0204,-2.0761,-2.1087,-2.1015,-2.0374,-1.9261,-1.8577,-1.8143,-1.7919,-1.8131,0.0,0.0,-1.8336,0.0,0.0,0.0,0.0,0.0,0.0,0.0,0.0,-1.8262,-1.89,-1.972,-2.1249,0.0,0.0,0.0,0.0,0.0,-2.7162,-2.8074,-2.8994,-3.0351,-3.0709,-3.0707,-3.0688,-3.0392,-3.0009,-2.9658,-3.0218,-3.0888,-3.1236,-3.1648,-3.1861,-3.1771,-3.1018,-3.0541,-3.0797,-2.9938,-2.9302,-2.9398,-2.9004,-2.8668,-2.862,-2.862,-2.862,-2.862,-2.862,-2.862,-2.862,-2.862,-2.862,-2.862,-2.862,-2.862,-2.862,-2.862,-2.862,-2.862,-2.862,-2.862,-2.8632,-2.885,-2.897,-2.9031,-2.9248,-2.9489,-2.9743,-2.9779,-2.9936,-3.0153,-3.0202,-3.0214,-3.0214,-3.0214,-3.0214,-3.0214,0.0,0.0,0.0,0.0,0.0,0.0,0.0,0.0,0.0,0.0,0.0,0.0,0.0,0.0,0.0,0.0,0.0,0.0,0.0,0.0,-1.7569,-1.7714,-1.772,-1.772,-1.7726,-1.8512,-1.9189,-1.9721,-2.0386,-2.099,-2.1522,-2.1087,-2.0253,-1.908,-1.8529,-1.8227,-1.8106,-1.8239,-1.8529,0.0,0.0,0.0,0.0,0.0,0.0,0.0,0.0,0.0,0.0,0.0,-1.8693,-1.9359,-2.0917,0.0,0.0,0.0,0.0,0.0,-2.6854,-2.7847,-2.8926,-3.0271,-3.084,-3.0994,-3.0785,-3.0524,-3.0335,-3.0206,-3.063,-3.1218,-3.1799,-3.2167,-3.2269,-3.1813,-3.0967,-3.0322,-3.0186,-2.9583,-2.9096,-2.8992,-2.8764,-2.862,-2.862,-2.862,-2.862,-2.862,-2.862,-2.862,-2.862,-2.862,-2.862,-2.862,-2.862,-2.862,-2.862,-2.862,-2.862,-2.862,-2.862,-2.862,-2.8632,-2.8898,-2.9091,-2.9236,-2.9501,-2.9767,-3.002,-3.002,-3.0105,-3.0214,-3.0214,-3.0214,-3.0214,-3.0214,-3.0214,-3.0214,0.0,0.0,0.0,0.0,0.0,0.0,0.0,0.0,0.0,0.0,0.0,0.0,0.0,0.0,0.0,0.0,0.0,0.0,0.0,-1.7484,-1.7629,-1.7895,-1.8234,-1.8342,-1.8185,-1.8983,-1.9648,-2.0192,-2.0724,-2.1268,-2.18,-2.1051,-2.0168,-1.9177,-1.8613,-1.8384,-1.8384,-1.8384,-1.8681,-1.9068,0.0,0.0,0.0,0.0,0.0,0.0,0.0,0.0,0.0,0.0,0.0,0.0,0.0,0.0,0.0,-2.386,-2.4723,-2.5611,-2.6562,-2.7548,-2.867,-2.9935,-3.0855,-3.1296,-3.0916,-3.0797,-3.0799,-3.0727,-3.105,-3.156,-3.219,-3.2398,-3.2246,-3.1729,-3.0861,-3.0145,-2.9677,-2.9382,-2.9052,-2.8668,-2.862,-2.862,-2.862,-2.862,-2.862,-2.862,-2.862,-2.862,-2.862,-2.862,-2.862,-2.862,-2.862,-2.862,-2.862,-2.862,-2.862,-2.862,-2.862,-2.862,-2.8632,-2.8958,-2.9212,-2.9429,-2.9755,-3.002,-3.0214,-3.0214,-3.0214,-3.0214,-3.0214,-3.0214,-3.0214,-3.0214,-3.0214,-3.0214,0.0,0.0,0.0,0.0,0.0,0.0,0.0,0.0,0.0,0.0,0.0,0.0,0.0,0.0,0.0,0.0,0.0,0.0,0.0,-1.7346,-1.7629,-1.7895,-1.8403,-1.879,-1.9019,-1.9805,-2.0483,-2.1015,-2.1547,-2.1728,-2.1534,-2.0966,-2.0265,-1.9443,-1.8923,-1.865,-1.865,-1.865,-1.885,-1.908,-1.8802,0.0,0.0,0.0,0.0,0.0,0.0,0.0,0.0,0.0,0.0,0.0,0.0,0.0,-2.2356,-2.3275,-2.4005,-2.4789,-2.6153,-2.7086,-2.8006,-2.9497,-3.0812,-3.1702,-3.148,-3.1572,-3.1567,-3.1142,-3.1462,-3.194,-3.2342,-3.1814,-3.1193,-3.0837,-2.9819,-2.9135,-2.9361,-2.8992,-2.862,-2.862,-2.862,-2.862,-2.862,-2.862,-2.862,-2.862,-2.862,-2.862,-2.862,-2.862,-2.862,-2.862,-2.862,-2.862,-2.862,-2.862,-2.862,-2.862,-2.862,-2.862,-2.8644,-2.9151,-2.9393,-2.9429,-2.996,-3.0202,-3.0214,-3.0214,-3.0214,-3.0214,-3.0214,-3.0214,-3.0214,-3.0214,-3.0214,-3.0214,0.0,0.0,0.0,0.0,0.0,0.0,0.0,0.0,0.0,0.0,0.0,0.0,0.0,0.0,0.0,0.0,0.0,0.0,0.0,-1.7177,-1.7503,-1.8106,-1.8481,-1.8995,-1.9567,-2.0229,-2.0736,-2.1099,-2.1643,-2.1776,-2.1462,-2.0785,-2.012,-1.9479,-1.8947,-1.8686,-1.8686,-1.8686,-1.8862,-1.908,-1.8826,-1.8529,0.0,0.0,0.0,0.0,0.0,0.0,0.0,0.0,-1.7927,-1.8735,-1.9548,-2.073,-2.1943,-2.2711,-2.3634,-2.4621,-2.5603,-2.66,-2.7756,-2.9425,-3.0458,-3.1051,-3.1128,-3.1193,-3.1164,-3.0924,-3.1153,-3.1599,-3.2281,-3.1738,-3.1072,-3.0603,-2.9797,-2.9121,-2.8944,-2.8716,-2.862,-2.862,-2.862,-2.862,-2.862,-2.862,-2.862,-2.862,-2.862,-2.862,-2.862,-2.862,-2.862,-2.862,-2.862,-2.862,-2.862,-2.862,-2.862,-2.862,-2.862,-2.862,-2.8644,-2.9163,-2.9405,-2.9429,-2.9984,-3.0214,-3.0214,-3.0214,-3.0214,-3.0214,-3.0214,-3.0214,-3.0214,-3.0214,-3.0214,-3.0214,0.0,0.0,0.0,0.0,0.0,0.0,0.0,0.0,0.0,0.0,0.0,0.0,0.0,0.0,0.0,0.0,0.0,0.0,-1.6936,-1.7044,-1.7406,-1.8131,-1.8493,-1.9007,-1.9615,-2.035,-2.0918,-2.1353,-2.1813,-2.1813,-2.1365,-2.0652,-2.0071,-1.9612,-1.908,-1.8838,-1.8838,-1.8838,-1.8947,-1.9092,-1.8911,-1.8601,0.0,0.0,0.0,0.0,0.0,0.0,0.0,0.0,-1.7669,-1.8404,-1.9154,-2.0272,-2.1474,-2.2337,-2.3327,-2.433,-2.537,-2.6399,-2.7553,-2.9115,-2.9991,-3.0477,-3.061,-3.0901,-3.1039,-3.0732,-3.0717,-3.1017,-3.1847,-3.1245,-3.0488,-3.0153,-2.9537,-2.9004,-2.8668,-2.862,-2.862,-2.862,-2.862,-2.862,-2.862,-2.862,-2.862,-2.862,-2.862,-2.862,-2.862,-2.862,-2.862,-2.862,-2.862,-2.862,-2.862,-2.862,-2.862,-2.862,-2.862,-2.862,-2.8644,-2.9163,-2.9405,-2.9429,-2.9984,-3.0214,-3.0214,-3.0214,-3.0214,-3.0214,-3.0214,-3.0214,-3.0214,-3.0214,-3.0214,-3.0214,0.0,0.0,0.0,0.0,0.0,0.0,0.0,0.0,0.0,0.0,-1.5737,0.0,0.0,0.0,0.0,0.0,0.0,0.0,-1.6682,-1.6948,-1.7322,-1.7883,-1.8427,-1.8807,-1.9104,-2.0156,-2.1099,-2.1897,-2.2163,-2.1873,-2.1075,-2.0555,-2.0134,-1.9869,-1.9358,-1.9116,-1.9116,-1.9104,-1.9104,-1.9104,-1.9104,-1.879,-1.83,0.0,0.0,0.0,0.0,0.0,0.0,0.0,-1.7064,-1.8065,-1.8394,-1.9492,-2.0946,-2.2222,-2.301,-2.3872,-2.5531,-2.6535,-2.7326,-2.8445,-2.9371,-3.0053,-3.0082,-3.0894,-3.1473,-3.0649,-3.0238,-3.0214,-3.1029,-3.0145,-2.9305,-2.9384,-2.8956,-2.862,-2.862,-2.862,-2.862,-2.862,-2.862,-2.862,-2.862,-2.862,-2.862,-2.862,-2.862,-2.862,-2.862,-2.862,-2.862,-2.862,-2.862,-2.862,-2.862,-2.862,-2.862,-2.862,-2.862,-2.862,-2.8644,-2.9163,-2.9405,-2.9429,-2.9984,-3.0214,-3.0214,-3.0214,-3.0214,-3.0214,-3.0214,-3.0214,-3.0214,-3.0214,-3.0214,-3.0214,0.0,0.0,0.0,0.0,0.0,0.0,0.0,0.0,0.0,-1.5764,-1.5832,0.0,0.0,0.0,0.0,0.0,0.0,0.0,-1.6682,-1.6948,-1.7322,-1.7883,-1.8215,-1.8613,-1.9092,-1.9975,-2.0724,-2.1341,-2.1232,-2.0966,-2.0531,-2.0192,-1.9999,-1.9869,-1.9539,-1.9382,-1.937,-1.9189,-1.9104,-1.9104,-1.9104,-1.879,-1.83,0.0,0.0,0.0,0.0,0.0,0.0,0.0,0.0,0.0,-1.8568,-1.9539,-2.0615,-2.167,-2.2719,-2.3837,-2.5046,-2.5663,-2.6393,-2.8171,-2.8118,-2.7908,-2.9009,-2.964,-2.985,-2.9276,-2.9098,-2.92,-2.9741,-2.9424,-2.9093,-2.9113,-2.8834,-2.862,-2.862,-2.862,-2.862,-2.862,-2.862,-2.862,-2.862,-2.862,-2.862,-2.862,-2.862,-2.862,-2.862,-2.862,-2.862,-2.862,-2.862,-2.862,-2.862,-2.862,-2.862,-2.862,-2.862,-2.862,-2.8644,-2.9163,-2.9405,-2.9429,-2.9984,-3.0214,-3.0214,-3.0214,-3.0214,-3.0214,-3.0214,-3.0214,-3.0214,-3.0214,-3.0214,-3.0214,0.0,0.0,0.0,0.0,0.0,0.0,-1.5355,-1.555,-1.5711,-1.5885,-1.5885,-1.5885,0.0,0.0,0.0,0.0,0.0,0.0,-1.6827,-1.7008,-1.7322,-1.7883,-1.8173,-1.8589,-1.9249,-1.9733,-2.0096,-2.0301,-2.047,-2.041,-2.0156,-1.9999,-1.9881,-1.9869,-1.9624,-1.9443,-1.9322,-1.9056,-1.8886,-1.8802,-1.8911,-1.8633,-1.8143,0.0,0.0,0.0,0.0,0.0,0.0,0.0,0.0,0.0,-1.8223,-1.9082,-2.0161,-2.122,-2.2245,-2.3288,-2.4679,-2.5278,-2.5835,-2.7239,-2.7097,-2.6793,-2.7604,-2.8247,-2.8687,-2.8745,-2.8409,-2.8307,-2.8917,-2.8753,-2.856,-2.8671,-2.863,-2.862,-2.862,-2.862,-2.862,-2.862,-2.862,-2.862,-2.862,-2.862,-2.862,-2.862,-2.862,-2.862,-2.862,-2.862,-2.862,-2.862,-2.862,-2.862,-2.862,-2.862,-2.862,-2.862,-2.862,-2.862,-2.8644,-2.9163,-2.9405,-2.9429,-2.9984,-3.0214,-3.0214,-3.0214,-3.0214,-3.0214,-3.0214,-3.0214,-3.0214,-3.0214,-3.0214,-3.0214,0.0,0.0,-1.4567,-1.508,0.0,-1.5615,-1.5871,-1.5885,-1.5885,-1.5885,-1.5885,-1.5885,0.0,0.0,0.0,-1.6251,-1.6323,0.0,0.0,-1.7105,-1.7346,-1.7883,-1.8167,-1.8674,-1.9443,-1.9467,-1.9334,-1.9068,-1.9854,-2.0108,-1.982,-1.9869,-1.9905,-1.9905,-1.966,-1.9394,-1.9128,-1.8807,-1.8541,-1.8312,-1.8553,-1.8367,-1.7931,-1.8155,0.0,0.0,0.0,0.0,0.0,0.0,0.0,0.0,-1.7666,-1.8424,-1.9553,-2.0799,-2.1572,-2.2405,-2.4301,-2.5052,-2.5382,-2.5871,-2.617,-2.6307,-2.6025,-2.6747,-2.7722,-2.858,-2.797,-2.7563,-2.8282,-2.8077,-2.786,-2.8125,-2.8403,-2.8596,-2.862,-2.862,-2.862,-2.862,-2.862,-2.862,-2.862,-2.862,-2.862,-2.862,-2.862,-2.862,-2.862,-2.862,-2.862,-2.862,-2.862,-2.862,-2.862,-2.862,-2.862,-2.862,-2.862,-2.862,-2.8644,-2.9139,-2.9393,-2.9465,-2.9984,-3.0214,-3.0214,-3.0214,-3.0214,-3.0214,-3.0214,-3.0214,-3.0214,-3.0214,-3.0214,-3.0214,0.0,0.0,-1.5346,-1.5668,0.0,0.0,-1.5885,-1.5885,-1.5885,-1.5885,-1.5885,-1.5885,-1.5885,-1.5885,0.0,-1.597,-1.6368,0.0,0.0,-1.7165,-1.7569,-1.7895,-1.8367,-1.877,-1.9189,-1.9189,-1.9056,-1.8802,-1.9382,-1.9539,-1.9298,-1.9688,-2.0002,-2.0217,-1.9917,-1.9672,-1.9382,-1.8911,-1.8541,-1.83,-1.836,-1.8209,-1.7907,-1.7968,-1.7665,0.0,0.0,0.0,0.0,0.0,0.0,0.0,-1.8068,-1.8481,-1.8892,-1.9901,-2.0745,-2.1596,-2.2989,-2.3522,-2.3928,-2.4916,-2.5205,-2.5216,-2.4975,-2.5428,-2.6078,-2.6697,-2.6787,-2.6822,-2.7017,-2.7278,-2.7594,-2.786,-2.8125,-2.8367,-2.8596,-2.862,-2.862,-2.862,-2.862,-2.862,-2.862,-2.862,-2.862,-2.862,-2.862,-2.862,-2.862,-2.862,-2.862,-2.862,-2.862,-2.862,-2.862,-2.862,-2.862,-2.862,-2.862,-2.862,-2.8632,-2.8958,-2.932,-2.9731,-3.0069,-3.0214,-3.0214,-3.0214,-3.0214,-3.0214,-3.0214,-3.0214,-3.0214,-3.0214,-3.0214,-3.0214,0.0,0.0,0.0,0.0,0.0,0.0,0.0,0.0,-1.5885,-1.5885,-1.5885,-1.5885,-1.5885,-1.5885,0.0,0.0,-1.6359,-1.661,0.0,-1.7141,-1.7527,-1.8076,-1.862,-1.8971,-1.9104,-1.8983,-1.885,-1.8686,-1.9116,-1.9237,-1.9128,-1.9793,-2.018,-2.0301,-2.0134,-1.9805,-1.9273,-1.8753,-1.8263,-1.7913,-1.8076,-1.7883,-1.7544,-1.7665,-1.7387,-1.6923,-1.7056,0.0,0.0,0.0,0.0,0.0,0.0,0.0,-1.8455,-1.9384,-2.0158,-2.0925,-2.2113,-2.2688,-2.3168,-2.4074,-2.434,-2.4397,-2.4581,-2.4909,-2.5318,-2.5716,-2.6222,-2.6596,-2.6596,-2.703,-2.751,-2.7775,-2.8029,-2.8294,-2.8584,-2.862,-2.862,-2.862,-2.862,-2.862,-2.862,-2.862,-2.862,-2.862,-2.862,-2.862,-2.862,-2.862,-2.862,-2.862,-2.862,-2.862,-2.862,-2.862,-2.862,-2.862,-2.862,-2.862,-2.8584,-2.9019,-2.9417,-2.9815,-3.0093,-3.0214,-3.0214,-3.0214,-3.0214,-3.0214,-3.0214,-3.0214,-3.0214,-3.0214,-3.0214,-3.0214,0.0,0.0,0.0,0.0,0.0,0.0,0.0,0.0,0.0,-1.5885,-1.5885,-1.5885,-1.5885,-1.5885,-1.5982,0.0,0.0,0.0,-1.6923,-1.708,-1.7479,-1.8191,-1.8686,-1.8971,-1.8971,-1.8722,-1.862,-1.8541,-1.8935,-1.9128,-1.9189,-2.0047,-2.047,-2.0519,-2.0422,-1.9926,-1.914,-1.8541,-1.7974,-1.7532,-1.775,-1.7581,-1.7177,-1.7346,-1.7092,-1.6634,-1.6682,-1.6634,-1.6657,-1.7368,0.0,0.0,0.0,0.0,-1.8103,-1.8917,-1.9531,-2.0168,-2.1218,-2.2015,-2.2709,-2.3315,-2.3565,-2.3884,-2.4451,-2.4764,-2.5017,-2.5331,-2.5993,-2.6524,-2.6524,-2.6957,-2.7403,-2.7763,-2.7993,-2.8246,-2.8572,-2.862,-2.862,-2.862,-2.862,-2.862,-2.862,-2.862,-2.862,-2.862,-2.862,-2.862,-2.862,-2.862,-2.862,-2.862,-2.862,-2.862,-2.862,-2.862,-2.862,-2.862,-2.862,-2.8596,-2.8705,-2.9188,-2.9526,-2.9743,-3.0069,-3.0214,-3.0214,-3.0214,-3.0214,-3.0214,-3.0214,-3.0214,-3.0214,-3.0214,-3.0214,-3.0214,0.0,0.0,0.0,0.0,0.0,0.0,0.0,0.0,0.0,0.0,-1.5885,-1.5885,-1.5885,-1.5885,-1.5897,-1.5934,-1.6178,-1.6335,-1.6408,0.0,0.0,-1.7943,-1.8227,-1.8396,-1.8396,-1.836,-1.8227,-1.8016,-1.8741,-1.9225,-1.9467,-2.0507,-2.1123,-2.1329,-2.0857,-2.0204,-1.9394,-1.8645,-1.7974,-1.7491,-1.7556,-1.752,-1.7436,-1.7213,-1.6815,-1.6368,-1.661,-1.6404,-1.6174,-1.723,-1.7383,0.0,0.0,0.0,-1.7716,-1.809,-1.8559,-1.9118,-1.9735,-2.0912,-2.2129,-2.27,-2.3143,-2.3655,-2.4415,-2.462,-2.4788,-2.5294,-2.5837,-2.6234,-2.6234,-2.6668,-2.7244,-2.7739,-2.7836,-2.8041,-2.8548,-2.862,-2.862,-2.862,-2.862,-2.862,-2.862,-2.862,-2.862,-2.862,-2.862,-2.862,-2.862,-2.862,-2.862,-2.862,-2.862,-2.862,-2.862,-2.862,-2.862,-2.862,-2.862,-2.8741,-2.897,-2.9272,-2.9429,-2.9489,-2.9996,-3.0214,-3.0214,-3.0214,-3.0214,-3.0214,-3.0214,-3.0214,-3.0214,-3.0214,-3.0214,-3.0214,0.0,0.0,0.0,0.0,0.0,0.0,0.0,0.0,0.0,0.0,0.0,-1.5885,-1.5885,-1.5885,-1.5885,-1.5885,-1.6021,-1.6127,-1.6284,-1.7044,0.0,-1.7677,-1.8088,-1.83,-1.83,-1.8143,-1.8101,-1.8106,-1.879,-1.9467,-2.0204,-2.1414,-2.1825,-2.151,-2.1268,-2.0628,-1.9684,-1.8886,-1.8191,-1.7726,-1.7726,-1.7641,-1.7491,-1.7544,-1.723,-1.673,-1.6706,-1.6441,-1.6247,-1.7094,-1.7156,-1.7006,-1.7753,0.0,0.0,0.0,-1.8179,-1.8575,-1.954,-2.063,-2.1641,-2.2297,-2.2864,-2.3466,-2.4366,-2.4583,-2.4776,-2.5475,-2.5909,-2.6218,-2.6218,-2.662,-2.7162,-2.7727,-2.7811,-2.8005,-2.85,-2.862,-2.862,-2.862,-2.862,-2.862,-2.862,-2.862,-2.862,-2.862,-2.862,-2.862,-2.862,-2.862,-2.862,-2.862,-2.862,-2.862,-2.862,-2.862,-2.8693,-2.8837,-2.8837,-2.8982,-2.9236,-2.9501,-2.9622,-2.9646,-3.0045,-3.0214,-3.0214,-3.0214,-3.0214,-3.0214,-3.0214,-3.0214,-3.0214,-3.0214,-3.0214,-3.0214,0.0,0.0,0.0,0.0,0.0,0.0,0.0,0.0,0.0,0.0,0.0,-1.5885,-1.5885,0.0,0.0,0.0,-1.5885,-1.6006,-1.6284,0.0,0.0,0.0,-1.7841,-1.8082,-1.8082,-1.7907,-1.7907,-1.8082,-1.8686,-1.9515,-2.0531,-2.1873,-2.2248,-2.1813,-2.1813,-2.122,-2.0156,-1.9285,-1.8596,-1.8113,-1.8185,-1.8137,-1.8052,-1.8318,-1.8088,-1.7563,-1.7298,-1.6899,-1.6572,-1.7084,-1.7049,-1.693,-1.7673,-1.7583,0.0,0.0,0.0,-1.828,-1.956,-2.0396,-2.1131,-2.2007,-2.2614,-2.3263,-2.4287,-2.4535,-2.4812,-2.562,-2.5993,-2.6242,-2.627,-2.6716,-2.7235,-2.7739,-2.7872,-2.8077,-2.8512,-2.862,-2.862,-2.862,-2.862,-2.862,-2.862,-2.862,-2.862,-2.862,-2.862,-2.862,-2.862,-2.862,-2.862,-2.862,-2.862,-2.862,-2.862,-2.8693,-2.885,-2.9115,-2.9115,-2.9248,-2.9513,-2.9707,-2.9839,-2.9912,-3.0129,-3.0214,-3.0214,-3.0214,-3.0214,-3.0214,-3.0214,-3.0214,-3.0214,-3.0214,-3.0214,-3.0214,0.0,0.0,0.0,0.0,0.0,0.0,0.0,0.0,0.0,0.0,0.0,-1.5885,-1.5885,-1.5885,-1.5885,-1.5885,-1.5885,-1.6006,-1.6287,-1.6573,0.0,0.0,-1.7382,0.0,-1.7556,-1.7544,-1.7532,-1.7556,-1.8312,-1.9152,-1.9953,-2.1329,-2.2187,-2.2623,-2.2623,-2.203,-2.0966,-1.9902,-1.9152,-1.8662,-1.8947,-1.9189,-1.9431,-1.9676,-1.9446,-1.8971,-1.8674,-1.7925,-1.7101,-1.7375,-1.7309,-1.7156,-1.7509,-1.7437,-1.7206,0.0,0.0,0.0,-1.9408,-2.0023,-2.061,-2.1744,-2.2349,-2.2985,-2.3969,-2.4403,-2.4812,-2.562,-2.5993,-2.6303,-2.6524,-2.7006,-2.7486,-2.7763,-2.8017,-2.8282,-2.8584,-2.862,-2.862,-2.862,-2.862,-2.862,-2.862,-2.862,-2.862,-2.862,-2.862,-2.862,-2.862,-2.862,-2.862,-2.862,-2.862,-2.862,-2.862,-2.8874,-2.9127,-2.9381,-2.9381,-2.9526,-2.9779,-2.9791,-2.9936,-3.0189,-3.0214,-3.0214,-3.0214,-3.0214,-3.0214,-3.0214,-3.0214,-3.0214,-3.0214,-3.0214,-3.0214,-3.0214,0.0,0.0,0.0,0.0,0.0,0.0,0.0,0.0,0.0,0.0,0.0,0.0,0.0,-1.6151,-1.6151,-1.6166,-1.5982,-1.5934,-1.6045,-1.6453,0.0,0.0,-1.7278,-1.7508,-1.7508,-1.7508,-1.7508,-1.7508,-1.8318,-1.9096,-1.9917,-2.1281,-2.2187,-2.2695,-2.2864,-2.2453,-2.1571,-2.0833,-2.0217,-1.9769,-2.0023,-2.0289,-2.0567,-2.1027,-2.1075,-2.0845,-2.0398,-1.9672,-1.887,-1.8613,-1.8256,-1.7935,-1.7883,-1.7569,-1.7166,-1.6939,-1.7277,-1.7926,-1.8646,-1.9511,-2.0399,-2.1313,-2.2161,-2.3049,-2.4102,-2.462,-2.5077,-2.5873,-2.6246,-2.6584,-2.7018,-2.7247,-2.751,-2.7775,-2.8029,-2.8294,-2.8584,-2.862,-2.862,-2.862,-2.862,-2.862,-2.862,-2.862,-2.862,-2.862,-2.862,-2.862,-2.862,-2.862,-2.862,-2.862,-2.862,-2.8657,-2.8874,-2.9139,-2.9393,-2.9658,-2.9658,-2.9803,-3.0069,-3.0069,-3.0117,-3.0214,-3.0214,-3.0214,-3.0214,-3.0214,-3.0214,-3.0214,-3.0214,-3.0214,-3.0214,-3.0214,-3.0214,-3.0214,0.0,0.0,0.0,-1.6163,0.0,-1.6127,-1.6057,-1.6103,-1.6127,-1.6057,0.0,0.0,0.0,0.0,-1.6429,-1.6416,-1.6187,-1.603,-1.6018,-1.6453,-1.6706,-1.6706,-1.7201,-1.7508,-1.7508,-1.7508,-1.7508,-1.7508,-1.8137,-1.8814,-1.9507,-2.07,-2.1522,-2.2042,-2.249,-2.2393,-2.1873,-2.1426,-2.093,-2.0495,-2.1027,-2.145,-2.1837,-2.2524,-2.279,-2.2742,-2.2283,-2.1595,-2.0724,-2.0114,-1.9534,-1.8945,-1.8522,-1.7921,-1.726,-1.6966,-1.722,-1.7742,-1.8384,-1.9155,-2.0003,-2.0945,-2.1814,-2.2731,-2.3759,-2.4433,-2.504,-2.5892,-2.6343,-2.6753,-2.7283,-2.757,-2.7739,-2.792,-2.8174,-2.8415,-2.8548,-2.862,-2.862,-2.862,-2.862,-2.862,-2.862,-2.862,-2.862,-2.862,-2.862,-2.862,-2.862,-2.862,-2.8656,-2.8753,-2.8753,-2.8922,-2.9272,-2.9453,-2.967,-2.9936,-2.9936,-3.0033,-3.0214,-3.0214,-3.0214,-3.0214,-3.0214,-3.0214,-3.0214,-3.0214,-3.0214,-3.0214,-3.0214,-3.0214,-3.0214,-3.0214,-3.0214,-3.0214,-1.6323,-1.6513,-1.6706,-1.6706,-1.6706,-1.661,-1.6359,-1.6525,-1.661,-1.6359,0.0,0.0,0.0,0.0,0.0,-1.6718,-1.6477,-1.632,-1.6323,-1.6549,-1.6718,-1.6718,-1.7213,-1.752,-1.752,-1.752,-1.752,-1.752,-1.7774,-1.8185,-1.8717,-1.9495,-2.0168,-2.07,-2.1498,-2.1849,-2.1825,-2.1619,-2.1232,-2.0845,-2.1909,-2.2659,-2.3239,-2.4263,-2.4632,-2.4607,-2.4354,-2.3635,-2.2659,-2.1861,-2.1056,-2.029,-1.948,-1.8495,-1.7595,-1.7313,-1.7408,-1.7782,0.0,0.0,0.0,-2.0675,-2.1324,-2.1953,-2.2943,-2.3807,-2.4686,-2.5597,-2.6234,-2.6777,-2.7295,-2.786,-2.821,-2.821,-2.8439,-2.862,-2.862,-2.862,-2.862,-2.862,-2.862,-2.862,-2.862,-2.862,-2.862,-2.862,-2.862,-2.862,-2.862,-2.862,-2.8741,-2.9006,-2.9019,-2.9272,-2.9791,-2.9803,-2.9948,-3.0214,-3.0214,-3.0214,-3.0214,-3.0214,-3.0214,-3.0214,-3.0214,-3.0214,-3.0214,-3.0214,-3.0214,-3.0214,-3.0214,-3.0214,-3.0214,-3.0214,-3.0214,-3.0214,-1.6549,-1.6646,-1.6706,-1.6706,-1.6706,-1.667,-1.6598,-1.6658,-1.667,0.0,0.0,0.0,-1.7274,-1.7443,-1.7394,-1.702,-1.6911,-1.6791,-1.6598,-1.6839,-1.6984,-1.6984,-1.7491,-1.7798,-1.7798,-1.7798,-1.7798,-1.7798,-1.7871,-1.8088,-1.8408,-1.9056,-1.9515,-1.9854,-2.0277,-2.0362,-2.0253,-2.1534,-2.1994,-2.1933,-2.2778,-2.3511,-2.4287,-2.5126,-2.5692,-2.6029,-2.5957,-2.5487,-2.4794,-2.3804,-2.3186,-2.2492,-2.0544,-1.9291,-1.845,-1.7916,-1.7836,-1.8036,-1.8716,0.0,0.0,0.0,0.0,0.0,-2.2546,-2.3889,-2.5128,-2.567,-2.6524,-2.7319,-2.7896,-2.8101,-2.827,-2.8475,-2.8572,-2.862,-2.862,-2.862,-2.862,-2.862,-2.862,-2.862,-2.862,-2.862,-2.862,-2.862,-2.862,-2.862,-2.862,-2.862,-2.8741,-2.9006,-2.92,-2.9453,-2.9791,-2.9996,-3.0141,-3.0214,-3.0214,-3.0214,-3.0214,-3.0214,-3.0214,-3.0214,-3.0619,-3.0759,-3.0759,-3.0366,-3.0214,-3.0214,-3.0214,-3.0214,-3.0214,-3.0214,-3.0214,-3.0214,-1.6972,-1.7117,-1.7225,-1.7346,-1.737,-1.7322,-1.7213,-1.7286,-1.737,0.0,0.0,0.0,-1.8487,-1.8548,-1.8403,-1.7962,-1.772,-1.743,-1.7056,-1.7165,-1.7201,-1.7092,-1.7617,-1.7907,-1.7907,-1.8016,-1.8016,-1.7907,-1.7907,-1.7931,-1.7992,-1.8415,-1.8693,-1.885,-1.9249,-1.9447,-1.9626,-2.0927,-2.1595,-2.1909,-2.3077,-2.4113,-2.5041,-2.6097,-2.6777,-2.7304,-2.7655,-2.743,-2.6876,-2.6111,-2.4974,-2.3569,-2.1818,-2.0611,-1.9746,-1.925,-1.8943,-1.8876,-1.9492,-1.9599,-1.972,-2.0428,0.0,0.0,-2.2403,-2.3681,-2.4884,-2.5432,-2.636,-2.7144,-2.7449,-2.7642,-2.7799,-2.8077,-2.8125,-2.8234,-2.8524,-2.8524,-2.8451,-2.8451,-2.8451,-2.8451,-2.8451,-2.8512,-2.862,-2.862,-2.862,-2.862,-2.862,-2.8729,-2.891,-2.9175,-2.9429,-2.9695,-2.9972,-3.0331,-3.0518,-3.0568,-3.0771,-3.086,-3.086,-3.086,-3.086,-3.086,-3.1214,-3.1315,-3.1315,-3.1012,-3.086,-3.086,-3.086,-3.086,-3.086,-3.086,-3.086,-3.086,0.0,-1.7774,-1.804,-1.8287,-1.8336,-1.8263,-1.8076,-1.827,-1.842,0.0,-1.8947,-1.9491,-2.0002,-1.9842,-1.9564,-1.9261,-1.8722,-1.8179,-1.7641,-1.7569,-1.7406,-1.7153,-1.7665,-1.7943,-1.7943,-1.8221,-1.8203,-1.7943,-1.7919,-1.7774,-1.752,-1.775,-1.7859,-1.7883,-1.8367,-1.8917,-1.9497,-1.9996,-2.06,-2.1363,-2.3128,-2.4523,-2.5668,-2.6969,-2.7836,-2.8378,-2.9171,-2.9165,-2.8713,-2.8449,-2.6571,-2.4177,-2.3347,-2.2342,-2.1376,-2.0989,-2.0494,-2.0201,-2.0726,-2.0441,-2.0227,-2.0975,-2.1203,0.0,-2.2397,-2.3369,-2.4237,-2.496,-2.5843,-2.6512,-2.6589,-2.6815,-2.7114,-2.7345,-2.743,-2.7699,-2.8415,-2.8318,-2.8162,-2.8162,-2.8162,-2.8174,-2.8198,-2.8427,-2.8596,-2.862,-2.8668,-2.8716,-2.8764,-2.9019,-2.9286,-2.9541,-2.9857,-3.0137,-3.0366,-3.0872,-3.1062,-3.1113,-3.1567,-3.1819,-3.1819,-3.1819,-3.1819,-3.1819,-3.187,-3.187,-3.1907,-3.1958,-3.192,-3.1819,-3.1819,-3.1819,-3.1819,-3.1819,-3.1819,-3.1819,-1.7774,-1.8052,-1.833,-1.8596,-1.8613,-1.8693,-1.885,-1.9092,-1.9273,-1.9273,-1.9926,-2.0603,-2.1148,-2.0954,-2.0591,-2.012,-1.9588,-1.8959,-1.8179,-1.7955,-1.7714,-1.7418,-1.7955,-1.8215,-1.8215,-1.8469,-1.8481,-1.8215,-1.8016,-1.7774,-1.7508,-1.7569,-1.7593,-1.7593,-1.7702,-1.8075,-1.8684,-1.9409,-2.0613,-2.2122,-2.3556,-2.5017,-2.6475,-2.763,-2.8379,-2.8934,-2.9787,-2.9958,-2.9818,-2.9438,-2.8039,-2.6275,-2.5275,-2.4322,-2.3394,-2.2378,-2.1991,-2.1884,-2.1764,-2.1643,-2.155,-2.1515,-2.1817,0.0,-2.1984,-2.319,-2.4378,-2.4669,-2.5546,-2.6335,-2.6559,-2.6846,-2.709,-2.714,-2.7517,-2.7822,-2.7953,-2.792,-2.7884,-2.7884,-2.7884,-2.7968,-2.8186,-2.8246,-2.8379,-2.856,-2.9004,-2.9423,-2.9793,-3.0118,-3.0408,-3.0685,-3.0962,-3.1239,-3.1517,-3.1617,-3.1668,-3.1668,-3.1769,-3.1819,-3.1819,-3.1819,-3.1819,-3.1819,-3.2259,-3.2461,-3.2461,-3.2912,-3.2561,-3.1819,-3.1819,-3.1819,-3.1819,-3.1819,-3.1819,-3.1819,-1.8064,-1.833,-1.8645,-1.9044,-1.9225,-1.9406,-1.9672,-2.0047,-2.035,-2.0483,-2.1402,-2.2211,-2.2621,-2.2536,-2.2186,-2.1559,-2.1015,-2.0253,-1.9157,-1.8862,-1.8463,-1.7913,-1.8275,-1.8493,-1.8493,-1.8746,-1.8686,-1.83,-1.8185,-1.7877,-1.7508,-1.7508,-1.7581,-1.7714,-1.7859,-1.841,-1.9305,-2.0123,-2.1562,-2.3366,-2.4031,-2.5292,-2.6892,-2.8283,-2.9127,-2.9751,-3.0937,-3.1317,-3.107,-3.0411,-2.9145,-2.764,-2.6853,-2.5905,-2.4994,-2.4356,-2.3875,-2.3492,-2.3527,-2.3241,-2.288,-2.2733,-2.2679,0.0,0.0,-2.3117,-2.3746,-2.3981,-2.4457,-2.4865,-2.4947,-2.5198,-2.5489,-2.5795,-2.6187,-2.6586,-2.702,-2.7558,-2.7904,-2.7904,-2.8028,-2.8214,-2.8533,-2.8681,-2.8818,-2.8966,-2.9327,-2.964,-2.9877,-3.0471,-3.0853,-3.0992,-3.1387,-3.1679,-3.1819,-3.2058,-3.2209,-3.2209,-3.2461,-3.2611,-3.2611,-3.2611,-3.2611,-3.2611,-3.2862,-3.3013,-3.3013,-3.3314,-3.3063,-3.2611,-3.2611,-3.2611,-3.2611,-3.2611,-3.2611,-3.2611,-1.8251,-1.8541,-1.8959,-1.9491,-1.9769,-2.0047,-2.041,-2.0906,-2.1438,-2.1945,-2.2993,-2.3824,-2.4089,-2.4113,-2.3812,-2.3143,-2.2502,-2.1607,-2.0386,-1.989,-1.9322,-1.8553,-1.8674,-1.879,-1.879,-1.8947,-1.8802,-1.83,-1.83,-1.8052,-1.7608,-1.7657,-1.7815,-1.8052,-1.8379,-1.9216,-2.0386,-2.1195,-2.2711,-2.4553,-2.4743,-2.5824,-2.7476,-2.9021,-2.9942,-3.0626,-3.2079,-3.2449,-3.2064,-3.1236,-3.006,-2.8831,-2.8163,-2.7268,-2.6466,-2.6292,-2.5665,-2.5053,-2.5277,-2.4767,-2.4088,-2.4071,-2.3603,-2.3174,0.0,0.0,0.0,-2.3265,-2.3366,-2.3424,-2.3265,-2.3474,-2.3895,-2.4355,-2.479,-2.5276,-2.5954,-2.6931,-2.7575,-2.7731,-2.7966,-2.8315,-2.8691,-2.9072,-2.9347,-2.944,-2.9709,-2.9909,-3.0003,-3.0812,-3.1336,-3.1336,-3.1826,-3.2109,-3.2109,-3.2561,-3.2762,-3.2762,-3.3213,-3.3414,-3.3414,-3.3414,-3.3414,-3.3414,-3.3414,-3.3414,-3.3414,-3.3414,-3.3414,-3.3414,-3.3414,-3.3414,-3.3414,-3.3414,-3.3414,-3.3414,-1.8287,-1.8717,-1.9237,-1.9748,-1.9869,-2.0168,-2.0894,-2.1462,-2.2295,-2.3692,-2.4427,-2.4921,-2.5186,-2.521,-2.4981,-2.4415,-2.3529,-2.2586,-2.174,-2.0761,-1.9963,-1.9394,-1.9177,-1.9056,-1.9056,-1.8862,-1.8589,-1.83,-1.8361,-1.824,-1.7943,-1.8178,-1.8408,-1.8631,-1.9127,-2.0055,-2.1297,-2.2093,-2.3469,-2.5084,-2.5974,-2.7281,-2.879,-2.9921,-3.0719,-3.1399,-3.2307,-3.258,-3.2447,-3.1831,-3.0988,-3.0052,-2.9152,-2.8617,-2.815,-2.7389,-2.6854,-2.652,-2.6306,-2.5785,-2.5251,-2.4997,-2.4489,-2.3848,-2.3121,0.0,-2.3118,-2.2644,0.0,-2.3248,-2.2996,0.0,0.0,-2.3864,-2.4555,-2.5113,-2.5205,-2.5564,-2.6056,-2.6745,-2.7091,-2.7484,-2.8061,-2.8843,-2.9487,-2.987,-3.0236,-3.058,-3.0989,-3.192,-3.2399,-3.2399,-3.2958,-3.3213,-3.3213,-3.3263,-3.3314,-3.3314,-3.3364,-3.3414,-3.3414,-3.3414,-3.3414,-3.3414,-3.3414,-3.3414,-3.3414,-3.3414,-3.3414,-3.3414,-3.3414,-3.3414,-3.3414,-3.3414,-3.3414,-3.3414,-1.838,-1.8722,-1.9285,-1.983,-2.0014,-2.041,-2.122,-2.2271,-2.3487,-2.4933,-2.5728,-2.6258,-2.6512,-2.6858,-2.6822,-2.6246,-2.5566,-2.4661,-2.3538,-2.2621,-2.1679,-2.0712,-2.0265,-1.989,-1.9588,-1.9165,-1.8804,-1.8521,-1.8445,-1.8351,-1.8223,-1.8542,-1.8895,-1.933,-2.0421,-2.1488,-2.2552,-2.4079,-2.5386,-2.648,-2.7753,-2.8982,-3.0057,-3.0549,-3.15,-3.2605,-3.2923,-3.2948,-3.2755,-3.2118,-3.145,-3.0715,-2.982,-2.9352,-2.9005,-2.8457,-2.7963,-2.7603,-2.7483,-2.6854,-2.6159,-2.5743,-2.4927,-2.4062,-2.3549,-2.2953,-2.2525,-2.2432,0.0,0.0,0.0,0.0,0.0,0.0,-2.3589,-2.395,-2.4312,-2.4275,-2.4754,-2.6147,-2.6667,-2.7307,-2.8278,-2.8984,-2.9414,-2.9436,-2.989,-3.0312,-3.0715,-3.1717,-3.242,-3.2594,-3.3106,-3.3414,-3.3414,-3.3414,-3.3414,-3.3414,-3.3414,-3.3414,-3.3414,-3.3414,-3.3414,-3.3414,-3.3414,-3.3414,-3.3414,-3.3414,-3.3414,-3.3414,-3.3414,-3.3414,-3.3414,-3.3414,-3.3414,-3.3414,-1.892,-1.9041,-1.9403,-1.995,-2.0105,-2.0603,-2.1764,-2.32,-2.4607,-2.5945,-2.6873,-2.7616,-2.8057,-2.8568,-2.8738,-2.8427,-2.7735,-2.6815,-2.5683,-2.4557,-2.3427,-2.2283,-2.1619,-2.0966,-2.034,-1.975,-1.9291,-1.8958,-1.8836,-1.877,-1.8775,-1.9116,-1.9553,-2.0124,-2.1556,-2.2795,-2.3912,-2.5832,-2.7086,-2.7856,-2.9098,-3.0221,-3.1176,-3.1381,-3.2257,-3.3414,-3.3414,-3.3227,-3.2906,-3.2398,-3.1837,-3.1223,-3.0501,-3.0074,-2.9766,-2.9392,-2.8911,-2.854,-2.846,-2.7736,-2.6921,-2.6386,-2.5317,-2.4302,-2.3768,-2.2979,-2.2365,-2.2371,-2.2378,0.0,0.0,0.0,-2.2605,-2.2867,0.0,-2.2934,-2.334,-2.314,-2.3554,-2.5208,-2.6012,-2.6894,-2.8016,-2.8644,-2.8978,-2.8881,-2.9459,-2.9967,-3.0386,-3.1396,-3.2158,-3.2581,-3.3026,-3.3334,-3.3414,-3.3414,-3.3414,-3.3414,-3.3414,-3.3414,-3.3414,-3.3414,-3.3414,-3.3414,-3.3414,-3.3414,-3.3414,-3.3414,-3.3414,-3.3414,-3.3414,-3.3414,-3.3414,-3.3414,-3.3414,-3.3414,-2.0146,-1.9846,-1.9757,-2.0282,-2.0127,-2.0628,-2.2719,-2.4142,-2.5439,-2.6777,-2.7873,-2.8861,-2.971,-3.0317,-3.0726,-3.0978,-2.9783,-2.8787,-2.8236,-2.6404,-2.4969,-2.4138,-2.314,-2.226,-2.1486,-2.073,-2.0104,-1.9578,-1.9676,-1.9742,-1.9772,-2.0028,-2.0427,-2.1007,-2.2349,-2.3865,-2.544,-2.6863,-2.803,-2.8988,-2.9615,-3.0768,-3.2118,-3.2719,-3.3133,-3.3414,-3.3414,-3.3227,-3.2982,-3.2688,-3.2193,-3.1597,-3.1276,-3.0982,-3.0635,-3.006,-2.9673,-2.9379,-2.9041,-2.835,-2.7535,-2.6934,-2.5919,-2.4756,-2.3572,-2.3278,-2.3092,-2.2505,-2.2852,-2.3193,-2.292,-2.288,-2.288,-2.2893,-2.2619,0.0,0.0,-2.2218,-2.2519,-2.3736,-2.485,-2.5905,-2.6747,-2.7415,-2.8003,-2.8577,-2.9165,-2.9753,-3.0373,-3.1243,-3.1992,-3.2581,-3.2888,-3.3133,-3.3414,-3.3414,-3.3414,-3.3414,-3.3414,-3.3414,-3.3414,-3.3414,-3.3414,-3.3414,-3.3414,-3.3414,-3.3414,-3.3414,-3.3414,-3.3414,-3.3414,-3.3414,-3.3414,-3.3414,-3.3414,-3.3414,-2.2226,-2.2208,-2.2016,-2.1259,-2.1373,-2.2377,-2.4775,-2.5799,-2.6817,-2.8398,-2.9201,-3.004,-3.1086,-3.2082,-3.2838,-3.3317,-3.2542,-3.1795,-3.107,-2.931,-2.7868,-2.6895,-2.55,-2.4372,-2.3558,-2.2373,-2.1545,-2.0977,-2.0754,-2.0577,-2.0381,-2.0672,-2.1017,-2.1481,-2.3253,-2.4804,-2.6175,-2.823,-2.9526,-3.0287,-3.1263,-3.2064,-3.2706,-3.2906,-3.316,-3.3414,-3.3414,-3.3347,-3.3213,-3.2982,-3.2755,-3.2452,-3.1957,-3.161,-3.1289,-3.0902,-3.0448,-3.0092,-2.994,-2.9259,-2.8444,-2.7884,-2.652,-2.5211,-2.4623,-2.4035,-2.3621,-2.3607,-2.3879,-2.4119,-2.4062,-2.3875,-2.3688,-2.3536,-2.2873,-2.2352,0.0,-2.171,-2.163,-2.2265,-2.3688,-2.4997,-2.5865,-2.6306,-2.6787,-2.7375,-2.7976,-2.8644,-2.9446,-3.0501,-3.145,-3.2225,-3.2719,-3.312,-3.3414,-3.3414,-3.3414,-3.3414,-3.3414,-3.3414,-3.3414,-3.3414,-3.3414,-3.3414,-3.3414,-3.3414,-3.3414,-3.3414,-3.3414,-3.3414,-3.3414,-3.3414,-3.3414,-3.3414,-3.3414,-3.3414,-2.4133,-2.444,-2.4241,-2.2645,-2.3359,-2.474,-2.6624,-2.7685,-2.8693,-2.9844,-3.0622,-3.1597,-3.297,-3.4113,-3.5162,-3.6072,-3.5717,-3.5001,-3.3957,-3.23,-3.0721,-2.9442,-2.801,-2.6737,-2.5634,-2.444,-2.3413,-2.256,-2.2005,-2.1581,-2.1296,-2.1269,-2.1483,-2.197,-2.3701,-2.5213,-2.6694,-2.8951,-3.0381,-3.1196,-3.2313,-3.2862,-3.2986,-3.3093,-3.3253,-3.3414,-3.3414,-3.3414,-3.3387,-3.32,-3.3066,-3.2906,-3.2532,-3.2144,-3.177,-3.1463,-3.1049,-3.0648,-3.0587,-3.002,-2.9339,-2.8631,-2.7362,-2.6159,-2.5651,-2.5061,-2.4633,-2.4783,-2.497,-2.5104,-2.5104,-2.4703,-2.4262,-2.3968,-2.3073,-2.2245,0.0,-2.1349,-2.1216,-2.1542,-2.2752,-2.3875,-2.4626,-2.5184,-2.5772,-2.6466,-2.7148,-2.7976,-2.8948,-3.006,-3.1089,-3.2064,-3.2572,-3.3013,-3.3414,-3.3414,-3.3414,-3.3414,-3.3414,-3.3414,-3.3414,-3.3414,-3.3414,-3.3414,-3.3414,-3.3414,-3.3414,-3.3414,-3.3414,-3.3414,-3.3414,-3.3414,-3.3414,-3.3414,-3.3414,-3.3414,-2.5934,-2.6586,-2.6592,-2.4865,-2.6228,-2.7734,-2.8283,-2.9833,-3.0991,-3.1139,-3.2055,-3.3378,-3.5221,-3.6429,-3.7729,-3.9293,-3.9109,-3.8321,-3.6952,-3.5266,-3.355,-3.1864,-3.0747,-2.9381,-2.7753,-2.6859,-2.5675,-2.4236,-2.3435,-2.28,-2.2371,-2.1877,-2.1903,-2.2411,-2.3661,-2.5184,-2.6961,-2.9032,-3.0621,-3.1858,-3.2652,-3.3,-3.3026,-3.3307,-3.3414,-3.3414,-3.3414,-3.3414,-3.3414,-3.3414,-3.3227,-3.3,-3.3,-3.2599,-3.2064,-3.1845,-3.149,-3.1183,-3.0915,-3.0667,-3.0194,-2.9339,-2.8444,-2.7562,-2.6694,-2.6319,-2.6105,-2.6091,-2.6078,-2.6078,-2.6065,-2.5304,-2.4559,-2.4275,-2.3193,-2.2098,-2.1256,-2.1122,-2.1216,-2.1542,-2.2044,-2.2619,-2.3185,-2.4026,-2.493,-2.5837,-2.672,-2.7696,-2.8841,-2.982,-3.0895,-3.2024,-3.242,-3.2875,-3.34,-3.3414,-3.3414,-3.3414,-3.3414,-3.3414,-3.3414,-3.3414,-3.3414,-3.3414,-3.3414,-3.3414,-3.3414,-3.3414,-3.3414,-3.3414,-3.3414,-3.3414,-3.3414,-3.3414,-3.3414,-3.3414,-2.9337,-3.0648,-3.1998,-3.2652,-3.1873,-3.1345,-3.1959,-3.2485,-3.2982,-3.3373,-3.3739,-3.4759,-3.7017,-3.8293,-3.9909,-4.2056,-4.1338,-4.0678,-4.0559,-3.8631,-3.7118,-3.6163,-3.4695,-3.3285,-3.1905,-3.0148,-2.8242,-2.6187,-2.5198,-2.3885,-2.2371,-2.2044,-2.1984,-2.2164,-2.3567,-2.5184,-2.6961,-2.9032,-3.0969,-3.2679,-3.312,-3.3293,-3.3307,-3.3387,-3.3414,-3.3414,-3.3414,-3.3414,-3.3414,-3.3414,-3.336,-3.3293,-3.3293,-3.2906,-3.246,-3.2393,-3.2005,-3.1543,-3.151,-3.1236,-3.0902,-3.0448,-2.9673,-2.8858,-2.819,-2.7844,-2.7563,-2.7295,-2.7255,-2.7188,-2.7015,-2.6252,-2.5384,-2.4613,-2.3153,-2.1937,-2.1529,-2.1256,-2.1216,-2.1542,-2.1716,-2.2004,-2.2592,-2.3225,-2.3905,-2.4609,-2.5464,-2.648,-2.7655,-2.8991,-3.0247,-3.141,-3.2206,-3.2875,-3.34,-3.3414,-3.3414,-3.3414,-3.3414,-3.3414,-3.3414,-3.3414,-3.3414,-3.3414,-3.3414,-3.3414,-3.3414,-3.3414,-3.3414,-3.3414,-3.3414,-3.3414,-3.3414,-3.3414,-3.3414,-3.3414,-3.2007,-3.394,-3.6045,-3.7771,-3.742,-3.6584,-3.5667,-3.5823,-3.6208,-3.6523,-3.6719,-3.7661,-3.9823,-4.1051,-4.2453,-4.4465,-4.4255,-4.3738,-4.3075,-4.1698,-4.0273,-3.8996,-3.7658,-3.6328,-3.4919,-3.2832,-3.0568,-2.8139,-2.6479,-2.4684,-2.2772,-2.2245,-2.2058,-2.2218,-2.3327,-2.4796,-2.6627,-2.9339,-3.145,-3.3,-3.3293,-3.3414,0.0,-3.3414,-3.3414,-3.3414,-3.3414,-3.3414,-3.3414,-3.3414,-3.3414,-3.3414,-3.3414,-3.3106,-3.2781,-3.2781,-3.2367,-3.1851,-3.1851,-3.165,-3.1343,-3.1062,-3.0515,-2.994,-2.9486,-2.9138,-2.8874,-2.8537,-2.8377,-2.811,-2.7562,-2.6774,-2.5732,-2.4462,-2.3193,-2.2305,-2.201,-2.1683,-2.155,-2.1756,-2.189,-2.1997,-2.2031,-2.2699,-2.3313,-2.3781,-2.4756,-2.5838,-2.7014,-2.8364,-2.97,-3.0996,-3.1891,-3.2639,-3.3213,-3.3347,-3.3414,-3.3414,-3.3414,-3.3414,-3.3414,-3.3414,-3.3414,-3.3414,-3.3414,-3.3414,-3.3414,-3.3414,-3.3414,-3.3414,-3.3414,-3.3414,-3.3414,-3.3414,-3.3414,-3.3414,-3.4762,-3.7007,-3.9374,-4.1228,-4.2407,-4.2276,-3.9991,-3.9804,-3.9906,-3.9962,-4.0278,-4.1151,-4.3105,-4.4018,-4.5143,-4.6667,-4.7158,-4.668,-4.5105,-4.4371,-4.3154,-4.1211,-4.0159,-3.8922,-3.7387,-3.5233,-3.2779,-3.0084,-2.7695,-2.5417,-2.337,-2.2439,-2.2124,-2.2392,-2.3052,-2.4489,-2.6613,-2.9847,-3.1877,-3.2946,-3.328,-3.3414,-3.3414,-3.3414,-3.3414,-3.3414,-3.3414,-3.3414,-3.3414,-3.3414,-3.3414,-3.3414,-3.3414,-3.3213,-3.2973,-3.2973,-3.2585,-3.2158,-3.2158,-3.1944,-3.1664,-3.141,-3.1129,-3.0835,-3.0587,-3.0274,-2.9993,-2.9659,-2.9366,-2.8841,-2.7976,-2.7001,-2.585,-2.4245,-2.3469,-2.2974,-2.2632,-2.2338,-2.2151,-2.2111,-2.2258,0.0,-2.1689,-2.2372,-2.2913,-2.3158,-2.4262,-2.5438,-2.664,-2.7869,-2.9219,-3.0688,-3.1623,-3.2385,-3.2973,-3.3267,-3.3414,-3.3414,-3.3414,-3.3414,-3.3414,-3.3414,-3.3414,-3.3414,-3.3414,-3.3414,-3.3414,-3.3414,-3.3414,-3.3414,-3.3414,-3.3414,-3.3414,-3.3414,-3.3414,-3.3414,-3.9504,-4.1336,-4.2994,-4.4316,-4.5422,-4.6319,-4.6793,-4.4396,-4.2545,-4.2533,-4.2684,-4.3427,-4.53,-4.5919,-4.6848,-4.8622,-4.8188,-4.7728,-4.7589,-4.6253,-4.5224,-4.4541,-4.319,-4.1748,-4.0378,-3.8154,-3.5355,-3.2017,-2.9459,-2.6669,-2.3775,-2.2573,-2.2017,-2.2111,-2.3207,-2.5478,-2.8575,-3.0402,-3.177,-3.2714,-3.32,-3.3414,-3.3414,-3.3414,-3.3414,-3.3414,-3.3414,-3.3414,-3.3414,-3.3414,-3.3414,-3.3414,-3.3414,-3.3213,-3.2973,-3.2973,-3.2781,-3.2514,-3.2514,-3.23,-3.2011,-3.1957,-3.173,-3.1436,-3.1142,-3.1036,-3.0849,-3.036,-2.9967,-2.9499,-2.8604,-2.7121,-2.581,-2.5021,-2.4356,-2.3861,-2.3581,-2.3273,-2.2993,-2.2773,-2.2325,-2.2017,-2.1957,-2.2271,-2.2512,-2.2545,-2.346,-2.466,-2.6065,-2.7496,-2.8955,-3.044,-3.1517,-3.2385,-3.2973,-3.3267,-3.3414,-3.3414,-3.3414,-3.3414,-3.3414,-3.3414,-3.3414,-3.3414,-3.3414,-3.3414,-3.3414,-3.3414,-3.3414,-3.3414,-3.3414,-3.3414,-3.3414,-3.3414,-3.3414,-3.3414,-4.2344,-4.3921,-4.5425,-4.6635,-4.773,-4.8844,-5.0087,-4.884,-4.7599,-4.7085,-4.6977,-4.7463,-4.8851,-4.9125,-4.9712,-5.0898,-5.0293,-4.9683,-4.927,-4.825,-4.7108,-4.5963,-4.4884,-4.3468,-4.164,-3.9424,-3.6416,-3.2675,-3.0146,-2.7263,-2.4039,-2.2962,-2.2479,-2.2559,-2.4365,-2.6587,-2.9095,-3.0562,-3.173,-3.2648,-3.3173,-3.3414,-3.3414,-3.3414,-3.3414,-3.3414,-3.3414,-3.3414,-3.3414,-3.3414,-3.3414,-3.3414,-3.3414,-3.332,-3.32,-3.32,-3.3,-3.2822,-3.2822,-3.2607,-3.234,-3.2144,-3.1998,-3.181,-3.153,-3.145,-3.133,-3.0902,-3.0568,-2.9953,-2.866,-2.7456,-2.6426,-2.569,-2.5329,-2.4994,-2.4553,-2.4329,-2.4008,-2.3442,-2.3121,-2.2706,-2.2044,-2.2111,-2.2124,-2.201,-2.2939,-2.4048,-2.5211,-2.6841,-2.8406,-2.9905,-3.1183,-3.2158,-3.2795,-3.3187,-3.3414,-3.3414,-3.3414,-3.3414,-3.3414,-3.3414,-3.3414,-3.3414,-3.3414,-3.3414,-3.3414,-3.3414,-3.3414,-3.3414,-3.3414,-3.3414,-3.3414,-3.3414,-3.3414,-3.3414,-4.4526,-4.6012,-4.7479,-4.8598,-4.9705,-5.0878,-5.2074,-5.2467,-5.2234,-5.1178,-5.087,-5.1123,-5.1922,-5.1992,-5.2218,-5.2688,-5.2292,-5.1609,-5.0742,-5.0095,-4.8965,-4.7289,-4.6434,-4.5044,-4.3035,-4.0865,-3.787,-3.3957,-3.1224,-2.8233,-2.4945,-2.3794,-2.3375,-2.3643,-2.5718,-2.7655,-2.9406,-3.0755,-3.1824,-3.2728,-3.32,-3.3414,-3.3414,-3.3414,-3.3414,-3.3414,-3.3414,-3.3414,-3.3414,-3.3414,-3.3414,-3.3414,-3.3414,-3.3414,-3.3414,-3.3414,-3.3253,-3.3066,-3.3066,-3.2915,-3.2621,-3.2278,-3.2144,-3.2024,-3.1778,-3.1711,-3.1583,-3.1289,-3.0902,-3.014,-2.866,-2.7884,-2.7242,-2.6493,-2.6319,-2.6091,-2.5518,-2.5398,-2.5037,-2.4191,-2.3924,-2.3388,-2.2305,-2.2091,-2.193,-2.1689,-2.2565,-2.3545,-2.4546,-2.6186,-2.7831,-2.9339,-3.0755,-3.1845,-3.25,-3.3026,-3.3347,-3.3414,-3.3414,-3.3414,-3.3414,-3.3414,-3.3414,-3.3414,-3.3414,-3.3414,-3.3414,-3.3414,-3.3414,-3.3414,-3.3414,-3.3414,-3.3414,-3.3414,-3.3414,-3.3414,-4.6727,-4.8121,-4.9478,-5.034,-5.1479,-5.2652,-5.3878,-5.4409,-5.4106,-5.2643,-5.2401,-5.2539,-5.2911,-5.2946,-5.3021,-5.3021,-5.3021,-5.2805,-5.2398,-5.1485,-5.0604,-4.9885,-4.8615,-4.7256,-4.586,-4.3874,-4.116,-3.7679,-3.4067,-3.0627,-2.7409,-2.5385,-2.4903,-2.5757,-2.7001,-2.8564,-3.0346,-3.1283,-3.2179,-3.3009,-3.328,-3.3414,-3.3414,-3.3414,-3.3414,-3.3414,-3.3414,-3.3414,-3.3414,-3.3414,-3.3414,-3.3414,-3.3414,-3.3414,-3.3414,-3.3414,-3.3387,-3.3374,-3.3374,-3.316,-3.2915,-3.2621,-3.2305,-3.2024,-3.1778,-3.1711,-3.1583,-3.1289,-3.0568,-2.978,-2.9041,-2.847,-2.7991,-2.7589,-2.7362,-2.7028,-2.6707,-2.6426,-2.5945,-2.5064,-2.4285,-2.3549,-2.288,-2.2331,-2.1977,-2.1951,-2.2298,-2.3092,-2.4519,-2.5798,-2.7268,-2.8988,-3.0247,-3.1289,-3.2131,-3.2732,-3.3146,-3.3414,-3.3414,-3.3414,-3.3414,-3.3414,-3.3414,-3.3414,-3.3414,-3.3414,-3.3414,-3.3414,-3.3414,-3.3414,-3.3414,-3.3414,-3.3414,-3.3414,-3.3414,-3.3414,-4.9093,-5.0193,-5.122,-5.2009,-5.2962,-5.3805,-5.4538,-5.5016,-5.5009,-5.4449,-5.4374,-5.4408,-5.4552,-5.4552,-5.44,-5.4022,-5.3679,-5.3137,-5.2408,-5.1439,-5.0356,-4.92,-4.8178,-4.6631,-4.4514,-4.3132,-4.0507,-3.6643,-3.4215,-3.1368,-2.8234,-2.6893,-2.6694,-2.7589,-2.8591,-2.9913,-3.145,-3.2158,-3.2759,-3.3267,-3.3574,-3.3587,-3.3414,-3.3414,-3.3414,-3.3414,-3.3414,-3.3414,-3.3414,-3.3414,-3.3414,-3.3414,-3.3414,-3.3414,-3.3414,-3.3414,-3.3414,-3.3414,-3.3414,-3.3334,-3.3173,-3.2929,-3.2634,-3.234,-3.1998,-3.1845,-3.1684,-3.1517,-3.0929,-3.0207,-2.9446,-2.9112,-2.8781,-2.8112,-2.8072,-2.7843,-2.7175,-2.7028,-2.652,-2.5464,-2.4716,-2.3915,-2.2987,-2.2679,-2.2465,-2.2258,-2.2652,-2.3345,-2.4329,-2.5825,-2.7308,-2.8738,-3.0087,-3.1209,-3.2091,-3.2692,-3.312,-3.3414,-3.3414,-3.3414,-3.3414,-3.3414,-3.3414,-3.3414,-3.3414,-3.3414,-3.3414,-3.3414,-3.3414,-3.3414,-3.3414,-3.3414,-3.3414,-3.3414,-3.3534,-3.3694,-5.1073,-5.1864,-5.2633,-5.3311,-5.4007,-5.4593,-5.5034,-5.5346,-5.5491,-5.5491,-5.5491,-5.5491,-5.5491,-5.5491,-5.5245,-5.4673,-5.4197,-5.3592,-5.2719,-5.1839,-5.0795,-4.9458,-4.8612,-4.7086,-4.4766,-4.3333,-4.0831,-3.7286,-3.5194,-3.2696,-2.9841,-2.881,-2.8684,-2.9419,-3.0301,-3.1356,-3.2519,-3.3026,-3.3414,-3.3694,-3.3921,-3.3881,-3.3668,-3.3587,-3.3547,-3.3534,-3.344,-3.3414,-3.3414,-3.3414,-3.3414,-3.3414,-3.3414,-3.3414,-3.3414,-3.3414,-3.3414,-3.3414,-3.3414,-3.3414,-3.3347,-3.3053,-3.2875,-3.2621,-3.2185,-3.1944,-3.1717,-3.151,-3.1076,-3.0555,-2.9753,-2.9539,-2.9316,-2.8687,-2.8577,-2.839,-2.7791,-2.7469,-2.6961,-2.6012,-2.5224,-2.4409,-2.3474,-2.3348,-2.3166,-2.2953,-2.35,-2.4022,-2.4436,-2.5959,-2.7402,-2.8698,-3.0074,-3.1209,-3.2091,-3.2692,-3.312,-3.3414,-3.3414,-3.3414,-3.3414,-3.3414,-3.3414,-3.3414,-3.3414,-3.3414,-3.3414,-3.3414,-3.3414,-3.3414,-3.3414,-3.3467,-3.3547,-3.3547,-3.3748,-3.4015,-5.2504,-5.3109,-5.3787,-5.4228,-5.4593,-5.5015,-5.5436,-5.5491,-5.5491,-5.5491,-5.5491,-5.5491,-5.5491,-5.5491,-5.5245,-5.4673,-5.4598,-5.4312,-5.3698,-5.3287,-5.267,-5.1718,-5.0699,-4.95,-4.818,-4.5736,-4.343,-4.1217,-3.798,-3.5147,-3.2805,-3.1389,-3.0902,-3.1236,-3.2166,-3.2888,-3.3414,-3.3748,-3.4042,-3.4309,-3.4309,-3.4309,-3.4282,-3.3988,-3.3881,-3.3841,-3.3521,-3.3414,-3.3414,-3.3414,-3.3414,-3.3414,-3.3414,-3.3414,-3.3414,-3.3414,-3.3414,-3.3414,-3.3414,-3.3414,-3.3347,-3.3053,-3.2973,-3.2826,-3.2238,-3.2104,-3.1851,-3.0982,-3.0795,-3.0608,-3.002,-2.9673,-2.9486,-2.9472,-2.8978,-2.8604,-2.8591,-2.7829,-2.7148,-2.6841,-2.5785,-2.4957,-2.4613,-2.4356,-2.4182,-2.4182,-2.473,-2.5064,-2.5101,-2.6186,-2.7454,-2.8948,-3.0181,-3.1209,-3.2091,-3.2692,-3.312,-3.3414,-3.3414,-3.3414,-3.3414,-3.3414,-3.3414,-3.3414,-3.3414,-3.3414,-3.3414,-3.3414,-3.3414,-3.3414,-3.3414,-3.3601,-3.3881,-3.3881,-3.4068,-3.4322,-5.4007,-5.4318,-5.4649,-5.5071,-5.5216,-5.5344,-5.5491,-5.5491,-5.5491,-5.5491,-5.5491,-5.5491,-5.5491,-5.5491,-5.5092,-5.4043,-5.3968,-5.3544,-5.2563,-5.2084,-5.1578,-5.0863,-4.961,-4.8198,-4.6517,-4.4402,-4.2086,-3.961,-3.7716,-3.5583,-3.3233,-3.2755,-3.2625,-3.2732,-3.324,-3.3788,-3.4336,-3.4494,-3.4536,-3.4629,-3.4629,-3.4496,-3.4309,-3.4215,-3.4189,-3.4148,-3.3841,-3.3734,-3.3708,-3.348,-3.3414,-3.3414,-3.3414,-3.3414,-3.3414,-3.3414,-3.3414,-3.3414,-3.3414,-3.3414,-3.3387,-3.3293,-3.3133,-3.2933,-3.2746,-3.2385,-3.1904,-3.1223,-3.0929,-3.0675,-3.0287,-2.998,-2.9713,-2.9513,-2.9152,-2.8788,-2.8631,-2.7829,-2.7202,-2.6854,-2.5959,-2.5344,-2.5199,-2.5144,-2.5184,-2.5422,-2.5932,-2.6092,-2.573,-2.6787,-2.8016,-2.9299,-3.0474,-3.1517,-3.2447,-3.2786,-3.312,-3.3414,-3.3414,-3.3414,-3.3414,-3.3414,-3.3414,-3.3414,-3.3414,-3.3414,-3.3414,-3.3414,-3.3414,-3.3414,-3.3414,-3.3467,-3.3561,-3.3561,-3.3881,-3.4322,-5.5015,-5.5125,-5.5179,-5.5436,-5.5491,-5.5491,-5.5491,-5.5491,-5.5491,-5.5491,-5.5491,-5.5491,-5.5491,-5.5491,-5.5092,-5.4118,-5.4043,-5.3623,-5.2644,-5.232,-5.1957,-5.1475,-5.0039,-4.8729,-4.743,-4.505,-4.2778,-4.0655,-3.8316,-3.615,-3.4242,-3.4242,-3.4242,-3.4255,-3.4456,-3.475,-3.5084,-3.4977,-3.4923,-3.4923,-3.4923,-3.4817,-3.4643,-3.4536,-3.4482,-3.4456,-3.4162,-3.4055,-3.4002,-3.3694,-3.3587,-3.3574,-3.3454,-3.3414,-3.3414,-3.3414,-3.3414,-3.3414,-3.3414,-3.3414,-3.3414,-3.3414,-3.328,-3.3106,-3.3,-3.2519,-3.1971,-3.149,-3.1156,-3.0835,-3.048,-3.0207,-2.9993,-2.97,-2.9255,-2.8935,-2.8748,-2.7989,-2.7362,-2.7175,-2.648,-2.5999,-2.5999,-2.5999,-2.6079,-2.6266,-2.6827,-2.7094,-2.7001,-2.7749,-2.8751,-2.994,-3.1009,-3.1931,-3.2755,-3.3,-3.3227,-3.3414,-3.3414,-3.3414,-3.3414,-3.3414,-3.3414,-3.3414,-3.3414,-3.3414,-3.3414,-3.3414,-3.3414,-3.3414,-3.3414,-3.348,-3.3601,-3.3708,-3.4068,-3.4496,-5.5491,-5.5491,-5.5491,-5.5491,-5.5491,-5.5491,-5.5491,-5.5491,-5.5491,-5.5491,-5.5491,-5.5491,-5.5491,-5.5491,-5.5263,-5.4691,-5.4616,-5.4369,-5.3716,-5.3698,-5.3539,-5.3131,-5.1683,-5.0606,-5.0139,-4.7141,-4.4905,-4.3555,-3.951,-3.6938,-3.5779,-3.5698,-3.5631,-3.5605,-3.5605,-3.5605,-3.5645,-3.5351,-3.5231,-3.5231,-3.5204,-3.5191,-3.5164,-3.4897,-3.4842,-3.475,-3.4456,-3.4349,-3.4309,-3.4015,-3.3908,-3.3841,-3.3534,-3.3427,-3.3414,-3.3414,-3.3414,-3.3414,-3.3414,-3.3414,-3.3414,-3.3414,-3.3414,-3.3334,-3.304,-3.2559,-3.2078,-3.1805,-3.1463,-3.1089,-3.0574,-3.044,-3.0319,-2.9993,-2.9388,-2.9001,-2.9001,-2.827,-2.7709,-2.7722,-2.7228,-2.6894,-2.6907,-2.6907,-2.692,-2.696,-2.7509,-2.8083,-2.8698,-2.8975,-2.97,-3.0822,-3.1704,-3.2438,-3.3,-3.328,-3.3414,-3.3414,-3.3414,-3.3414,-3.3414,-3.3414,-3.3414,-3.3414,-3.3414,-3.3414,-3.3414,-3.3414,-3.3414,-3.3414,-3.344,-3.3627,-3.3921,-3.4215,-3.4509,-3.4855,-5.5491,-5.5491,-5.5491,-5.5491,-5.5491,-5.5491,-5.5491,-5.5491,-5.5491,-5.5491,-5.5491,-5.5491,-5.5491,-5.5491,-5.5416,-5.532,-5.4845,-5.4369,-5.3716,-5.3698,-5.3539,-5.3131,-5.2006,-5.0832,-4.9521,-4.7594,-4.5206,-4.2302,-3.9936,-3.8308,-3.7346,-3.6624,-3.6179,-3.5965,-3.5965,-3.5965,-3.5952,-3.5658,-3.5525,-3.5511,-3.5284,-3.5191,-3.5191,-3.5124,-3.5097,-3.5057,-3.4763,-3.4656,-3.4616,-3.4322,-3.4068,-3.3868,-3.3801,-3.3614,-3.3414,-3.3414,-3.3414,-3.3414,-3.3414,-3.3414,-3.3414,-3.3414,-3.3414,-3.3334,-3.304,-3.2866,-3.2625,-3.2104,-3.177,-3.145,-3.1089,-3.0662,-3.0386,-3.0306,-2.9566,-2.9001,-2.9001,-2.827,-2.7789,-2.8045,-2.7709,-2.7669,-2.8136,-2.819,-2.8364,-2.8818,-2.8978,-2.9325,-2.9958,-3.0434,-3.0942,-3.145,-3.2318,-3.2946,-3.3307,-3.3374,-3.3414,-3.3414,-3.3414,-3.3414,-3.3414,-3.3414,-3.3414,-3.3414,-3.3414,-3.3414,-3.3414,-3.3414,-3.3414,-3.344,-3.3681,-3.3828,-3.3921,-3.4215,-3.4509,-3.4829,-5.5491,-5.5491,-5.5491,-5.5491,-5.5491,-5.5491,-5.5491,-5.5491,-5.5491,-5.5491,-5.5491,-5.5491,-5.5491,-5.5491,-5.5491,-5.5491,-5.5187,-5.4845,-5.452,-5.452,-5.4322,-5.3944,-5.2967,-5.1846,-5.0565,-4.8981,-4.6494,-4.3162,-4.1906,-4.0466,-3.8861,-3.8087,-3.74,-3.6828,-3.6435,-3.6273,-3.6246,-3.5805,-3.5578,-3.5605,-3.5311,-3.5191,-3.5191,-3.5191,-3.5191,-3.5177,-3.5017,-3.4963,-3.4923,-3.4616,-3.4416,-3.4269,-3.4122,-3.3868,-3.3627,-3.3627,-3.3521,-3.3414,-3.3414,-3.3414,-3.3414,-3.3414,-3.3414,-3.3374,-3.3213,-3.3066,-3.2893,-3.2572,-3.2158,-3.177,-3.1476,-3.0955,-3.0474,-3.0207,-2.9526,-2.8948,-2.8815,-2.8417,-2.8217,-2.8524,-2.8524,-2.8698,-2.9165,-2.9205,-2.9339,-2.9659,-2.9806,-3.014,-3.0728,-3.1303,-3.1704,-3.1864,-3.2585,-3.312,-3.3414,-3.3414,-3.3414,-3.3414,-3.3561,-3.3627,-3.3627,-3.3774,-3.3828,-3.3828,-3.3828,-3.3828,-3.3828,-3.3828,-3.3828,-3.3841,-3.4015,-3.4082,-3.4122,-3.4416,-3.4629,-3.4829,-5.5491,-5.5491,-5.5491,-5.5491,-5.5491,-5.5491,-5.5491,-5.5491,-5.5491,-5.5491,-5.5491,-5.5491,-5.5491,-5.5491,-5.5491,-5.5491,-5.5491,-5.5491,-5.5491,-5.5491,-5.5289,-5.4813,-5.4073,-5.3098,-5.1945,-5.0207,-4.7939,-4.5008,-4.4162,-4.257,-4.0339,-3.96,-3.8751,-3.7852,-3.6934,-3.658,-3.654,-3.5992,-3.5738,-3.5672,-3.5378,-3.5231,-3.5191,-3.5191,-3.5191,-3.5191,-3.5191,-3.5191,-3.5164,-3.4962,-3.4855,-3.4775,-3.4469,-3.4189,-3.3948,-3.3948,-3.3734,-3.3467,-3.3427,-3.3414,-3.3414,-3.3414,-3.3414,-3.3414,-3.3414,-3.3213,-3.3026,-3.2986,-3.2585,-3.2131,-3.1845,-3.1289,-3.0728,-3.014,-2.9508,-2.9028,-2.8778,-2.8698,-2.8791,-2.9081,-2.9392,-2.97,-3.0074,-3.0114,-3.0154,-3.0247,-3.0488,-3.0908,-3.1396,-3.1944,-3.2238,-3.2238,-3.2759,-3.316,-3.3414,-3.3454,-3.348,-3.3494,-3.3801,-3.3948,-3.3961,-3.4202,-3.4322,-3.4322,-3.4322,-3.4322,-3.4322,-3.4322,-3.4322,-3.4322,-3.4362,-3.4389,-3.4416,-3.4723,-3.4882,-3.487,-5.5491,-5.5491,-5.5491,-5.5491,-5.5491,-5.5491,-5.5491,-5.5491,-5.5491,-5.5491,-5.5491,-5.5491,-5.5491,-5.5491,-5.5491,-5.5491,-5.5491,-5.5491,-5.5491,-5.5491,-5.5179,-5.4448,-5.4244,-5.3323,-5.1537,-4.927,-4.7568,-4.6575,-4.4678,-4.3034,-4.1579,-3.9952,-3.8876,-3.8208,-3.7229,-3.6861,-3.6805,-3.65,-3.6233,-3.5979,-3.5685,-3.5418,-3.5191,-3.5191,-3.5191,-3.5191,-3.5191,-3.5191,-3.5191,-3.5151,-3.4963,-3.4802,-3.4762,-3.4496,-3.4255,-3.4255,-3.4042,-3.3761,-3.348,-3.3414,-3.3414,-3.3414,-3.3414,-3.3414,-3.3414,-3.3374,-3.328,-3.3026,-3.2906,-3.2679,-3.2131,-3.1757,-3.1343,-3.0755,-3.0167,-2.9686,-2.9392,-2.9125,-2.9121,-2.9668,-2.982,-3.0154,-3.0896,-3.1022,-3.1223,-3.173,-3.181,-3.1984,-3.2367,-3.2714,-3.2839,-3.2839,-3.3173,-3.336,-3.3414,-3.3681,-3.3814,-3.3814,-3.4108,-3.4255,-3.4255,-3.4295,-3.4322,-3.4322,-3.4322,-3.4322,-3.4322,-3.4322,-3.4322,-3.4349,-3.4603,-3.4696,-3.4671,-3.5017,-3.5124,-3.5137,-5.5491,-5.5491,-5.5491,-5.5491,-5.5491,-5.5491,-5.5491,-5.5491,-5.5491,-5.5491,-5.5491,-5.5491,-5.5491,-5.5491,-5.5491,-5.5491,-5.5491,-5.5491,-5.5491,-5.5491,-5.5234,-5.4649,-5.4448,-5.3214,-5.0972,-4.8852,-4.7321,-4.6422,-4.5122,-4.3753,-4.2346,-4.0842,-3.9659,-3.8723,-3.7638,-3.7088,-3.6901,-3.662,-3.6433,-3.6286,-3.5992,-3.5792,-3.5672,-3.5672,-3.5565,-3.5431,-3.5431,-3.5324,-3.5191,-3.5191,-3.511,-3.5004,-3.5004,-3.479,-3.4563,-3.4563,-3.4242,-3.3814,-3.3494,-3.3414,-3.3414,-3.3414,-3.3414,-3.3414,-3.3414,-3.3414,-3.3374,-3.324,-3.3093,-3.2893,-3.2625,-3.2078,-3.153,-3.1102,-3.0394,-2.9873,-2.974,-2.9593,-2.9748,-3.0482,-3.0768,-3.1142,-3.1864,-3.1931,-3.2051,-3.2367,-3.2393,-3.2514,-3.2808,-3.2906,-3.3053,-3.32,-3.3347,-3.3494,-3.3668,-3.3814,-3.3961,-3.4122,-3.4416,-3.4563,-3.4563,-3.4723,-3.479,-3.479,-3.479,-3.479,-3.479,-3.479,-3.479,-3.4803,-3.4937,-3.499,-3.5004,-3.5151,-3.5191,-3.5191,-5.5491,-5.5491,-5.5491,-5.5491,-5.5491,-5.5491,-5.5491,-5.5491,-5.5491,-5.5491,-5.5491,-5.5491,-5.5491,-5.5491,-5.5491,-5.5491,-5.5491,-5.5491,-5.5491,-5.5491,-5.5346,-5.4924,-5.4298,-5.2993,-5.0892,-4.8847,-4.7193,-4.5971,-4.5093,-4.3909,-4.2465,-4.1357,-4.0222,-3.9168,-3.7953,-3.7275,-3.7008,-3.6727,-3.658,-3.6473,-3.6259,-3.6139,-3.6072,-3.6072,-3.5939,-3.5738,-3.5738,-3.5591,-3.5404,-3.5404,-3.5351,-3.5297,-3.5297,-3.5097,-3.487,-3.487,-3.4496,-3.4002,-3.3627,-3.3521,-3.3507,-3.3427,-3.3414,-3.3414,-3.3414,-3.3414,-3.3414,-3.3414,-3.324,-3.3053,-3.2986,-3.2425,-3.1837,-3.1396,-3.0755,-3.0274,-3.014,-3.0181,-3.0501,-3.1236,-3.1597,-3.2045,-3.2634,-3.2701,-3.2728,-3.2795,-3.2795,-3.2888,-3.3066,-3.308,-3.3213,-3.3507,-3.3521,-3.3641,-3.3881,-3.4028,-3.4202,-3.4429,-3.4723,-3.487,-3.4922,-3.5097,-3.5191,-3.5191,-3.5191,-3.5191,-3.5191,-3.5191,-3.5191,-3.5191,-3.5191,-3.5191,-3.5191,-3.5191,-3.5191,-3.5191,-5.5491,-5.5491,-5.5491,-5.5491,-5.5491,-5.5491,-5.5491,-5.5491,-5.5491,-5.5491,-5.5491,-5.5491,-5.5491,-5.5491,-5.5491,-5.5491,-5.5491,-5.5491,-5.5491,-5.5491,-5.5346,-5.4924,-5.369,-5.2663,-5.1925,-4.9205,-4.7193,-4.5996,-4.4258,-4.2777,-4.1589,-4.0604,-3.985,-3.9141,-3.7917,-3.7382,-3.7342,-3.6992,-3.6754,-3.65,-3.6473,-3.6313,-3.6072,-3.6072,-3.6059,-3.6046,-3.6046,-3.6019,-3.6006,-3.6006,-3.5832,-3.5591,-3.5591,-3.5404,-3.5164,-3.5164,-3.4937,-3.4628,-3.4002,-3.3855,-3.3788,-3.348,-3.3414,-3.3414,-3.3414,-3.3414,-3.3414,-3.3414,-3.3387,-3.3293,-3.3026,-3.2969,-3.2612,-3.1818,-3.1631,-3.1356,-3.0808,-3.0955,-3.1249,-3.1644,-3.1891,-3.2305,-3.2893,-3.2946,-3.3053,-3.3334,-3.3347,-3.336,-3.3374,-3.3374,-3.3521,-3.3841,-3.3855,-3.3868,-3.3881,-3.4429,-3.4762,-3.4788,-3.503,-3.5164,-3.5164,-3.5191,-3.5191,-3.5191,-3.5191,-3.5191,-3.5191,-3.5191,-3.5191,-3.5191,-3.5191,-3.5191,-3.5191,-3.5191,-3.5191,-3.5191,-5.5491,-5.5491,-5.5491,-5.5491,-5.5491,-5.5491,-5.5491,-5.5491,-5.5491,-5.5491,-5.5491,-5.5491,-5.5491,-5.5491,-5.5491,-5.5491,-5.5491,-5.532,-5.4941,-5.4941,-5.4948,-5.4924,-5.4106,-5.2962,-5.1494,-4.892,-4.6728,-4.4866,-4.3063,-4.1776,-4.09,-4.0127,-3.9587,-3.9179,-3.8321,-3.7772,-3.7382,-3.7275,-3.7048,-3.6754,-3.6754,-3.6672,-3.662,-3.662,-3.65,-3.634,-3.634,-3.6219,-3.6072,-3.6072,-3.6006,-3.5899,-3.5899,-3.5832,-3.5698,-3.5525,-3.5257,-3.4937,-3.4588,-3.4295,-3.4122,-3.4002,-3.3975,-3.3975,-3.3975,-3.3828,-3.3708,-3.3708,-3.3547,-3.3374,-3.3267,-3.3106,-3.2866,-3.2581,-3.2171,-3.1917,-3.1938,-3.181,-3.1944,-3.2474,-3.2572,-3.2799,-3.3213,-3.324,-3.3293,-3.34,-3.3414,-3.3414,-3.3414,-3.3601,-3.3841,-3.4148,-3.4336,-3.4481,-3.4481,-3.4708,-3.4909,-3.503,-3.5137,-3.5191,-3.5191,-3.5191,-3.5191,-3.5191,-3.5191,-3.5191,-3.5191,-3.5191,-3.5191,-3.5191,-3.5191,-3.5191,-3.5191,-3.5191,-3.5191,-3.5191,-5.5491,-5.5491,-5.5491,-5.5491,-5.5491,-5.5491,-5.5491,-5.5491,-5.5491,-5.5491,-5.5491,-5.5491,-5.5491,-5.5491,-5.5491,-5.5491,-5.5491,-5.5245,-5.4616,-5.4272,-5.4186,-5.4503,-5.4224,-5.3222,-5.1473,-4.9058,-4.6677,-4.438,-4.2264,-4.0799,-3.9991,-3.9502,-3.9233,-3.9043,-3.8546,-3.8093,-3.7692,-3.7462,-3.7275,-3.7032,-3.6925,-3.6885,-3.6885,-3.6885,-3.6779,-3.6647,-3.6647,-3.6513,-3.634,-3.634,-3.6286,-3.6206,-3.6206,-3.6139,-3.6032,-3.5832,-3.5565,-3.5284,-3.5084,-3.4817,-3.4549,-3.4362,-3.4322,-3.4322,-3.4322,-3.4162,-3.4028,-3.4028,-3.3774,-3.3561,-3.3561,-3.332,-3.308,-3.2986,-3.2639,-3.2412,-3.2581,-3.2452,-3.2532,-3.2933,-3.3053,-3.3187,-3.3387,-3.3414,-3.3414,-3.3414,-3.3414,-3.3454,-3.3547,-3.3855,-3.4162,-3.4456,-3.4656,-3.4855,-3.4897,-3.4949,-3.5004,-3.5191,-3.5191,-3.5191,-3.5191,-3.5191,-3.5191,-3.5191,-3.5191,-3.5191,-3.5191,-3.5191,-3.5191,-3.5191,-3.5191,-3.5191,-3.5191,-3.5191,-3.5191,-3.5191,-5.5491,-5.5491,-5.5491,-5.5491,-5.5491,-5.5491,-5.5491,-5.5491,-5.5491,-5.5491,-5.5491,-5.5491,-5.5491,-5.5491,-5.5491,-5.5491,-5.5491,-5.5245,-5.4616,-5.3468,-5.3048,-5.3623,-5.3839,-5.3397,-5.2202,-4.9683,-4.7171,-4.4717,-4.1949,-3.9933,-3.8718,-3.8718,-3.8718,-3.866,-3.8397,-3.8321,-3.8281,-3.7635,-3.7382,-3.7342,-3.7048,-3.6885,-3.6885,-3.6885,-3.6885,-3.6885,-3.6885,-3.6885,-3.6885,-3.6885,-3.6699,-3.65,-3.65,-3.6313,-3.6072,-3.6072,-3.5872,-3.5578,-3.5578,-3.5418,-3.5057,-3.4469,-3.4322,-3.4322,-3.4322,-3.4322,-3.4322,-3.4322,-3.4095,-3.3895,-3.3895,-3.3627,-3.332,-3.304,-3.2986,-3.2942,-3.2648,-3.2862,-3.2986,-3.2986,-3.324,-3.3414,-3.3414,-3.3414,-3.3414,-3.3414,-3.3414,-3.3561,-3.3881,-3.4162,-3.4456,-3.4802,-3.4815,-3.491,-3.5191,-3.5191,-3.5191,-3.5191,-3.5204,-3.5204,-3.5204,-3.5204,-3.5204,-3.5204,-3.5204,-3.5204,-3.5204,-3.5191,-3.5191,-3.5191,-3.5191,-3.5191,-3.5191,-3.5191,-3.5191,-3.5191,-5.5491,-5.5491,-5.5491,-5.5491,-5.5491,-5.5491,-5.5491,-5.5491,-5.5491,-5.5491,-5.5491,-5.5491,-5.5491,-5.5491,-5.5491,-5.5491,-5.5092,-5.4043,-5.2106,-5.0422,-4.9604,-4.9779,-5.1945,-5.2446,-5.0999,-4.9119,-4.6816,-4.4042,-4.1733,-3.9933,-3.8718,-3.8718,-3.8718,-3.8718,-3.8624,-3.8477,-3.8321,-3.8133,-3.7889,-3.7676,-3.7382,-3.7235,-3.7235,-3.7008,-3.6885,-3.6885,-3.6885,-3.6885,-3.6885,-3.6885,-3.6874,-3.6794,-3.6794,-3.662,-3.638,-3.638,-3.6166,-3.5939,-3.5939,-3.5872,-3.5672,-3.5084,-3.4937,-3.4937,-3.4937,-3.4776,-3.4629,-3.4629,-3.4402,-3.4189,-3.4189,-3.4108,-3.4028,-3.3935,-3.3921,-3.3895,-3.3801,-3.3868,-3.3921,-3.3921,-3.3814,-3.3748,-3.3748,-3.3547,-3.3507,-3.3734,-3.3935,-3.4175,-3.4482,-3.4589,-3.4763,-3.5057,-3.507,-3.511,-3.5191,-3.5191,-3.5191,-3.5204,-3.5404,-3.5498,-3.5511,-3.5712,-3.5805,-3.5805,-3.5591,-3.5498,-3.5485,-3.5284,-3.5191,-3.5191,-3.5191,-3.5191,-3.5191,-3.5191,-3.5191,-3.5191,-5.5491,-5.5491,-5.5491,-5.5491,-5.5491,-5.5491,-5.5491,-5.5491,-5.5491,-5.5491,-5.5491,-5.5491,-5.5491,-5.5491,-5.5491,-5.5491,-5.452,-5.2915,-5.0655,-4.8741,-4.7503,-4.7031,-4.8826,-4.9681,-4.95,-4.8298,-4.64,-4.3644,-4.1603,-3.9933,-3.8718,-3.8718,-3.8718,-3.8718,-3.8718,-3.8611,-3.8437,-3.8348,-3.82,-3.7969,-3.7676,-3.7555,-3.7529,-3.7342,-3.7179,-3.7128,-3.7128,-3.6992,-3.6885,-3.6885,-3.6885,-3.6885,-3.6885,-3.6779,-3.6687,-3.6687,-3.6473,-3.6246,-3.6246,-3.6166,-3.5992,-3.5631,-3.5538,-3.5511,-3.5391,-3.5231,-3.507,-3.4963,-3.4696,-3.4496,-3.4496,-3.4402,-3.4322,-3.4322,-3.4322,-3.4322,-3.4322,-3.4322,-3.4322,-3.4322,-3.4162,-3.4055,-3.4055,-3.3881,-3.3855,-3.4042,-3.4336,-3.4576,-3.4802,-3.4922,-3.507,-3.5364,-3.5364,-3.5431,-3.5538,-3.5538,-3.5485,-3.5364,-3.5658,-3.5805,-3.5805,-3.5992,-3.6072,-3.6059,-3.5765,-3.5578,-3.5551,-3.5311,-3.5191,-3.5191,-3.5191,-3.5191,-3.5191,-3.5191,-3.5191,-3.5191,-5.5491,-5.5491,-5.5491,-5.5491,-5.5491,-5.5491,-5.5491,-5.5491,-5.5491,-5.5491,-5.5491,-5.5491,-5.5491,-5.5491,-5.5491,-5.5491,-5.3796,-5.1851,-4.9854,-4.7917,-4.632,-4.51,-4.4996,-4.5785,-4.7547,-4.7046,-4.5627,-4.3211,-4.1428,-3.9862,-3.8718,-3.8718,-3.8718,-3.8718,-3.8718,-3.8718,-3.8691,-3.8437,-3.8348,-3.8321,-3.7969,-3.7849,-3.7849,-3.7809,-3.7635,-3.7422,-3.7422,-3.7235,-3.6952,-3.6981,-3.6912,-3.6885,-3.6885,-3.6885,-3.6885,-3.6885,-3.6754,-3.654,-3.654,-3.6353,-3.6153,-3.6153,-3.6153,-3.6059,-3.5738,-3.5618,-3.5591,-3.5324,-3.5044,-3.4895,-3.4895,-3.4603,-3.4402,-3.4402,-3.4402,-3.4402,-3.4402,-3.4402,-3.4402,-3.4402,-3.4376,-3.4362,-3.4362,-3.4362,-3.4362,-3.4362,-3.4629,-3.4869,-3.4895,-3.5097,-3.5364,-3.5658,-3.5618,-3.5805,-3.6126,-3.6099,-3.5965,-3.5672,-3.5965,-3.6112,-3.6112,-3.6139,-3.6153,-3.6139,-3.5832,-3.5712,-3.5685,-3.5391,-3.5271,-3.5271,-3.5271,-3.5257,-3.5231,-3.5231,-3.5217,-3.5191,-5.5491,-5.5491,-5.5491,-5.5491,-5.5491,-5.5491,-5.5491,-5.5491,-5.5491,-5.5491,-5.5491,-5.5491,-5.5491,-5.5491,-5.5491,-5.5491,-5.3393,-5.0813,-4.7917,-4.5948,-4.4354,-4.3096,-4.3021,-4.323,-4.3636,-4.4004,-4.3445,-4.1921,-4.0486,-3.9413,-3.8718,-3.8718,-3.8718,-3.8718,-3.8718,-3.8718,-3.8718,-3.8651,-3.8611,-3.8584,-3.829,-3.82,-3.8143,-3.7889,-3.7782,-3.7702,-3.7702,-3.7676,-3.7595,-3.7382,-3.7128,-3.6885,-3.6885,-3.6885,-3.6885,-3.6885,-3.6845,-3.6834,-3.6834,-3.6794,-3.6754,-3.6754,-3.6754,-3.662,-3.6099,-3.5979,-3.5965,-3.5899,-3.5645,-3.5444,-3.5444,-3.5204,-3.5004,-3.5004,-3.5004,-3.5004,-3.5004,-3.5004,-3.5004,-3.5004,-3.4803,-3.467,-3.467,-3.4656,-3.4656,-3.467,-3.4937,-3.5204,-3.5431,-3.5498,-3.5672,-3.5965,-3.5979,-3.6006,-3.6072,-3.6299,-3.6273,-3.5979,-3.6273,-3.6393,-3.6433,-3.6647,-3.6754,-3.6727,-3.6433,-3.6313,-3.6299,-3.6006,-3.5885,-3.5885,-3.5885,-3.5738,-3.5538,-3.5538,-3.5391,-3.5191,-5.5491,-5.5491,-5.5491,-5.5491,-5.5491,-5.5491,-5.5491,-5.5491,-5.5491,-5.5491,-5.5491,-5.5491,-5.5491,-5.5491,-5.5263,-5.4673,-5.2892,-5.048,-4.7295,-4.5368,-4.3576,-4.198,-4.1664,-4.1497,-4.1497,-4.1688,-4.1545,-4.1065,-4.0244,-3.9419,-3.8718,-3.8718,-3.8718,-3.8718,-3.8718,-3.8718,-3.8718,-3.8718,-3.8718,-3.866,-3.8544,-3.8477,-3.8477,-3.8317,-3.8143,-3.8036,-3.8036,-3.7929,-3.7782,-3.7635,-3.7489,-3.7286,-3.7195,-3.7155,-3.7128,-3.6981,-3.6885,-3.6885,-3.6885,-3.6885,-3.6885,-3.6885,-3.6885,-3.6779,-3.638,-3.6273,-3.6233,-3.6153,-3.5952,-3.5845,-3.5845,-3.5712,-3.5618,-3.5618,-3.5498,-3.5404,-3.5404,-3.5284,-3.5191,-3.5191,-3.5057,-3.4963,-3.4963,-3.4963,-3.4963,-3.4963,-3.5244,-3.5471,-3.5565,-3.5765,-3.5979,-3.6273,-3.6273,-3.6353,-3.6473,-3.6592,-3.6592,-3.65,-3.6592,-3.6672,-3.6727,-3.6861,-3.6885,-3.6885,-3.662,-3.65,-3.6473,-3.6193,-3.6072,-3.6072,-3.6072,-3.5899,-3.5578,-3.5578,-3.5444,-3.5191,-5.5491,-5.5491,-5.5491,-5.5491,-5.5491,-5.5491,-5.5491,-5.5491,-5.5491,-5.5491,-5.5491,-5.5491,-5.5491,-5.5491,-5.5016,-5.3796,-5.243,-5.0322,-4.7133,-4.516,-4.3261,-4.1349,-4.0784,-4.0481,-4.0481,-4.0214,-4.02,-4.0511,-4.0129,-3.9537,-3.8798,-3.87,-3.8718,-3.8718,-3.8718,-3.8718,-3.8718,-3.8718,-3.8718,-3.8718,-3.8718,-3.8718,-3.8718,-3.8718,-3.8584,-3.8388,-3.8388,-3.8143,-3.7889,-3.7889,-3.7849,-3.7782,-3.7529,-3.7448,-3.7422,-3.7155,-3.7032,-3.7032,-3.7032,-3.7032,-3.7032,-3.7032,-3.6992,-3.6941,-3.6727,-3.662,-3.6513,-3.6273,-3.6179,-3.6153,-3.6153,-3.6099,-3.6072,-3.6072,-3.5872,-3.5712,-3.5712,-3.5498,-3.5351,-3.5351,-3.5351,-3.5351,-3.5351,-3.5351,-3.5351,-3.5351,-3.5565,-3.5725,-3.5778,-3.6006,-3.6273,-3.658,-3.658,-3.6687,-3.6885,-3.6885,-3.6885,-3.6885,-3.6885,-3.6885,-3.6885,-3.6885,-3.6885,-3.6885,-3.6687,-3.658,-3.658,-3.6326,-3.6219,-3.6219,-3.6219,-3.6046,-3.5765,-3.5725,-3.5525,-3.5271,-5.5491,-5.5491,-5.5491,-5.5491,-5.5491,-5.5491,-5.5491,-5.5491,-5.5491,-5.5491,-5.5491,-5.5491,-5.5491,-5.5491,-5.5016,-5.3796,-5.2083,-4.9704,-4.6557,-4.4519,-4.2615,-4.071,-4.0542,-4.0481,-4.0481,-4.0441,-4.0328,-4.0093,-3.9485,-3.919,-3.902,-3.8838,-3.8718,-3.8718,-3.8718,-3.8718,-3.8718,-3.8718,-3.8718,-3.8718,-3.8718,-3.8718,-3.8718,-3.8718,-3.8691,-3.8651,-3.8651,-3.8477,-3.824,-3.824,-3.8036,-3.7809,-3.7782,-3.7742,-3.7742,-3.7702,-3.7702,-3.7702,-3.7702,-3.7702,-3.7702,-3.7702,-3.7529,-3.7315,-3.7275,-3.7048,-3.6861,-3.6779,-3.662,-3.6433,-3.6433,-3.6246,-3.6072,-3.6072,-3.6046,-3.6019,-3.6019,-3.5979,-3.5952,-3.5952,-3.5952,-3.5952,-3.5952,-3.5952,-3.5952,-3.5952,-3.5992,-3.6126,-3.638,-3.6433,-3.658,-3.6861,-3.6874,-3.6845,-3.6885,-3.6885,-3.6885,-3.6885,-3.6885,-3.6885,-3.6885,-3.6885,-3.6885,-3.6885,-3.6845,-3.6874,-3.6861,-3.6834,-3.6779,-3.6779,-3.6779,-3.6592,-3.6353,-3.6099,-3.5832,-3.5578,-5.5491,-5.5491,-5.5491,-5.5491,-5.5491,-5.5491,-5.5491,-5.5491,-5.5491,-5.5491,-5.5491,-5.5491,-5.5491,-5.5187,-5.452,-5.3296,-5.1503,-4.9034,-4.5873,-4.4145,-4.2448,-4.0602,-4.0481,-4.0481,-4.0481,-4.0481,-4.0401,-4.0294,-3.9794,-3.942,-3.91,-3.8953,-3.8865,-3.8718,-3.8718,-3.8718,-3.8718,-3.8718,-3.8718,-3.8718,-3.8718,-3.8718,-3.8718,-3.8718,-3.8718,-3.8718,-3.8718,-3.8593,-3.8504,-3.8504,-3.8437,-3.829,-3.8116,-3.8076,-3.8036,-3.7849,-3.7809,-3.7809,-3.7809,-3.7809,-3.7809,-3.7809,-3.7702,-3.7635,-3.7635,-3.7529,-3.7286,-3.6952,-3.6834,-3.6699,-3.6699,-3.6647,-3.654,-3.654,-3.6433,-3.6313,-3.6313,-3.6179,-3.6072,-3.6072,-3.6072,-3.6072,-3.6072,-3.6072,-3.6072,-3.6072,-3.6219,-3.6366,-3.65,-3.6647,-3.6794,-3.6885,-3.6885,-3.6885,-3.6885,-3.6885,-3.6885,-3.6885,-3.6885,-3.6885,-3.6885,-3.6885,-3.6885,-3.6885,-3.6885,-3.6885,-3.6885,-3.6885,-3.6885,-3.6885,-3.6885,-3.6754,-3.6473,-3.6179,-3.5992,-3.5872]},{"header":{"parameterUnit":"m.s-1","parameterCategory":1,"la1":30.6,"la2":28.766,"lo1":-90.7593,"lo2":-88.6598,"dy":0.0162,"dx":0.0183,"nx":116,"ny":114,"refTime":"2024-06-15T00:00:00:Z","depth":0,"parameterNumber":3,"parameterNumberName":"V-component_of_WINDS"},"data":[0.0,0.0,0.0,0.0,0.0,0.0,0.0,0.0,0.0,0.0,0.0,0.0,0.0,0.0,0.0,0.0,0.0,0.0,0.0,0.0,0.0,0.0,0.0,0.0,0.0,0.0,0.0,0.0,0.0,0.0,0.0,0.0,0.0,0.0,0.0,0.0,0.0,0.0,0.0,0.0,0.0,0.0,0.0,0.0,0.0,0.0,0.0,0.0,0.0,0.0,0.0,0.0,0.0,0.0,0.0,0.0,0.0,0.0,0.0,0.0,0.0,0.0,0.0,0.0,0.0,0.0,0.0,0.0,0.0,0.0,0.0,0.0,0.0,0.0,0.0,0.0,0.0,0.0,0.0,0.0,0.0,0.0,0.0,0.0,0.0,0.0,0.0,0.0,0.0,0.0,0.0,0.0,0.0,0.0,0.0,0.0,0.0,0.0,0.0,0.0,0.0,0.0,0.0,0.0,0.0,0.0,0.0,0.0,0.0,0.0,0.0,0.0,0.0,0.0,0.0,0.0,0.0,0.0,0.0,0.0,0.0,0.0,0.0,0.0,0.0,0.0,0.0,0.0,0.0,0.0,0.0,0.0,0.0,0.0,0.0,0.0,0.0,0.0,0.0,0.0,0.0,0.0,0.0,0.0,0.0,0.0,0.0,0.0,0.0,0.0,0.0,0.0,0.0,0.0,0.0,0.0,0.0,0.0,0.0,0.0,0.0,0.0,0.0,0.0,0.0,0.0,0.0,0.0,0.0,0.0,0.0,0.0,0.0,0.0,0.0,0.0,0.0,0.0,0.0,0.0,0.0,0.0,0.0,0.0,0.0,0.0,0.0,0.0,0.0,0.0,0.0,0.0,0.0,0.0,0.0,0.0,0.0,0.0,0.0,0.0,0.0,0.0,0.0,0.0,0.0,0.0,0.0,0.0,0.0,0.0,0.0,0.0,0.0,0.0,0.0,0.0,0.0,0.0,0.0,0.0,0.0,0.0,0.0,0.0,0.0,0.0,0.0,0.0,0.0,0.0,0.0,0.0,0.0,0.0,0.0,0.0,0.0,0.0,0.0,0.0,0.0,0.0,0.0,0.0,0.0,0.0,0.0,0.0,0.0,0.0,0.0,0.0,0.0,0.0,0.0,0.0,0.0,0.0,0.0,0.0,0.0,0.0,0.0,0.0,0.0,0.0,0.0,0.0,0.0,0.0,0.0,0.0,0.0,0.0,0.0,0.0,0.0,0.0,0.0,0.0,0.0,0.0,0.0,0.0,0.0,0.0,0.0,0.0,0.0,0.0,0.0,0.0,0.0,0.0,0.0,0.0,0.0,0.0,0.0,0.0,0.0,0.0,0.0,0.0,0.0,0.0,0.0,0.0,0.0,0.0,0.0,0.0,0.0,0.0,0.0,0.0,0.0,0.0,0.0,0.0,0.0,0.0,0.0,0.0,0.0,0.0,0.0,0.0,0.0,0.0,0.0,0.0,0.0,0.0,0.0,0.0,0.0,0.0,0.0,0.0,0.0,0.0,0.0,0.0,0.0,0.0,0.0,0.0,0.0,0.0,0.0,0.0,0.0,0.0,0.0,0.0,0.0,0.0,0.0,0.0,0.0,0.0,0.0,0.0,0.0,0.0,0.0,0.0,0.0,0.0,0.0,0.0,0.0,0.0,0.0,0.0,0.0,0.0,0.0,0.0,0.0,0.0,0.0,0.0,0.0,0.0,0.0,0.0,0.0,0.0,0.0,0.0,0.0,0.0,0.0,0.0,0.0,0.0,0.0,0.0,0.0,0.0,0.0,0.0,0.0,0.0,0.0,0.0,0.0,0.0,0.0,0.0,0.0,0.0,0.0,0.0,0.0,0.0,0.0,0.0,0.0,0.0,0.0,0.0,0.0,0.0,0.0,0.0,0.0,0.0,0.0,0.0,0.0,0.0,0.0,0.0,0.0,0.0,0.0,0.0,0.0,0.0,0.0,0.0,0.0,0.0,0.0,0.0,0.0,0.0,0.0,0.0,0.0,0.0,0.0,0.0,0.0,0.0,0.0,0.0,0.0,0.0,0.0,0.0,0.0,0.0,0.0,0.0,0.0,0.0,0.0,0.0,0.0,0.0,0.0,0.0,0.0,0.0,0.0,0.0,0.0,0.0,0.0,0.0,0.0,0.0,0.0,0.0,0.0,0.0,0.0,0.0,0.0,0.0,0.0,0.0,0.0,0.0,0.0,0.0,0.0,0.0,0.0,0.0,0.0,0.0,0.0,0.0,0.0,0.0,0.0,0.0,0.0,0.0,0.0,0.0,0.0,0.0,0.0,0.0,0.0,0.0,0.0,0.0,0.0,0.0,0.0,0.0,0.0,0.0,0.0,0.0,0.0,0.0,0.0,0.0,0.0,0.0,0.0,0.0,0.0,0.0,0.0,0.0,0.0,0.0,0.0,0.0,0.0,0.0,0.0,0.0,0.0,0.0,0.0,0.0,0.0,0.0,0.0,0.0,0.0,0.0,0.0,0.0,0.0,0.0,0.0,0.0,0.0,0.0,0.0,0.0,0.0,0.0,0.0,0.0,0.0,0.0,0.0,0.0,0.0,0.0,0.0,0.0,0.0,0.0,0.0,0.0,0.0,0.0,0.0,0.0,0.0,0.0,0.0,0.0,0.0,0.0,0.0,0.0,0.0,0.0,0.0,0.0,0.0,0.0,0.0,0.0,0.0,0.0,0.0,0.0,0.0,0.0,0.0,0.0,0.0,0.0,0.0,0.0,0.0,0.0,0.0,0.0,0.0,0.0,0.0,0.0,0.0,0.0,0.0,0.0,0.0,0.0,0.0,0.0,0.0,0.0,0.0,0.0,0.0,0.0,0.0,0.0,0.0,0.0,0.0,0.0,0.0,0.0,0.0,0.0,0.0,0.0,0.0,0.0,0.0,0.0,0.0,0.0,0.0,0.0,0.0,0.0,0.0,0.0,0.0,0.0,0.0,0.0,0.0,0.0,0.0,0.0,0.0,0.0,0.0,0.0,0.0,0.0,0.0,0.0,0.0,0.0,0.0,0.0,0.0,0.0,0.0,0.0,0.0,0.0,0.0,0.0,0.0,0.0,0.0,0.0,0.0,0.0,0.0,0.0,0.0,0.0,0.0,0.0,0.0,0.0,0.0,0.0,0.0,0.0,0.0,0.0,0.0,0.0,0.0,0.0,0.0,0.0,0.0,0.0,0.0,0.0,0.0,0.0,0.0,0.0,0.0,0.0,0.0,0.0,0.0,0.0,0.0,0.0,0.0,0.0,0.0,0.0,0.0,0.0,0.0,0.0,0.0,0.0,0.0,0.0,0.0,0.0,0.0,0.0,0.0,0.0,0.0,0.0,0.0,0.0,0.0,0.0,0.0,0.0,0.0,0.0,0.0,0.0,0.0,0.0,0.0,0.0,0.0,0.0,0.0,0.0,0.0,0.0,0.0,0.0,0.0,0.0,0.0,0.0,0.0,0.0,0.0,0.0,0.0,0.0,0.0,0.0,0.0,0.0,0.0,0.0,0.0,0.0,0.0,0.0,0.0,0.0,0.0,0.0,0.0,0.0,0.0,0.0,0.0,0.0,0.0,0.0,0.0,0.0,0.0,0.0,0.0,0.0,0.0,0.0,0.0,0.0,0.0,0.0,0.0,0.0,0.0,0.0,0.0,0.0,0.0,0.0,0.0,0.0,0.0,0.0,0.0,0.0,0.0,0.0,0.0,0.0,0.0,0.0,0.0,0.0,0.0,0.0,0.0,0.0,0.0,0.0,0.0,0.0,0.0,0.0,0.0,0.0,0.0,0.0,0.0,0.0,0.0,0.0,0.0,0.0,0.0,0.0,0.0,0.0,0.0,0.0,0.0,0.0,0.0,0.0,0.0,0.0,0.0,0.0,0.0,0.0,0.0,0.0,0.0,0.0,0.0,0.0,0.0,0.0,0.0,0.0,0.0,0.0,0.0,0.0,0.0,0.0,0.0,0.0,0.0,0.0,0.0,0.0,0.0,0.0,0.0,0.0,0.0,0.0,0.0,0.0,0.0,0.0,0.0,0.0,0.0,0.0,0.0,0.0,0.0,0.0,0.0,0.0,0.0,0.0,0.0,0.0,0.0,0.0,0.0,0.0,0.0,0.0,0.0,0.0,0.0,0.0,0.0,0.0,0.0,0.0,0.0,0.0,0.0,0.0,0.0,0.0,0.0,0.0,0.0,0.0,0.0,0.0,0.0,0.0,0.0,0.0,0.0,0.0,0.0,0.0,0.0,0.0,0.0,0.0,0.0,0.0,0.0,0.0,0.0,0.0,0.0,0.0,0.0,0.0,0.0,0.0,0.0,0.0,0.0,0.0,0.0,0.0,0.0,0.0,0.0,0.0,0.0,0.0,0.0,0.0,0.0,0.0,0.0,0.0,0.0,0.0,0.0,0.0,0.0,0.0,0.0,0.0,0.0,0.0,0.0,0.0,0.0,0.0,0.0,0.0,0.0,0.0,0.0,0.0,0.0,0.0,0.0,0.0,0.0,0.0,0.0,0.0,0.0,0.0,0.0,0.0,0.0,0.0,0.0,0.0,0.0,0.0,0.0,0.0,0.0,0.0,0.0,0.0,0.0,0.0,0.0,0.0,0.0,0.0,0.0,0.0,0.0,0.0,0.0,0.0,0.0,0.0,0.0,0.0,0.0,0.0,0.0,0.0,0.0,0.0,0.0,0.0,0.0,0.0,0.0,0.0,0.0,0.0,0.0,0.0,0.0,0.0,0.0,0.0,0.0,0.0,0.0,0.0,0.0,0.0,0.0,0.0,0.0,0.0,0.0,0.0,0.0,0.0,0.0,0.0,0.0,0.0,0.0,0.0,0.0,0.0,0.0,0.0,0.0,0.0,0.0,0.0,0.0,0.0,0.0,0.0,0.0,0.0,0.0,0.0,0.0,0.0,0.0,0.0,0.0,0.0,0.0,0.0,0.0,0.0,0.0,0.0,0.0,0.0,0.0,0.0,0.0,0.0,0.0,0.0,0.0,0.0,0.0,0.0,0.0,0.0,0.0,0.0,0.0,0.0,0.0,0.0,0.0,0.0,0.0,0.0,0.0,0.0,0.0,0.0,0.0,0.0,0.0,0.0,0.0,0.0,0.0,0.0,0.0,0.0,0.0,0.0,0.0,0.0,0.0,0.0,0.0,0.0,0.0,0.0,0.0,0.0,0.0,0.0,0.0,0.0,0.0,0.0,0.0,0.0,0.0,0.0,0.0,0.0,0.0,0.0,0.0,0.0,0.0,0.0,0.0,0.0,0.0,0.0,0.0,0.0,0.0,0.0,0.0,0.0,0.0,0.0,0.0,0.0,0.0,0.0,0.0,0.0,0.0,0.0,0.0,0.0,0.0,0.0,0.0,0.0,0.0,0.0,0.0,0.0,0.0,0.0,0.0,0.0,0.0,0.0,0.0,0.0,0.0,0.0,0.0,0.0,0.0,0.0,0.0,0.0,0.0,0.0,0.0,0.0,0.0,0.0,0.0,0.0,0.0,0.0,0.0,0.0,0.0,0.0,0.0,0.0,0.0,0.0,0.0,0.0,0.0,0.0,0.0,0.0,0.0,0.0,0.0,0.0,0.0,0.0,0.0,0.0,0.0,0.0,0.0,0.0,0.0,0.0,0.0,0.0,0.0,0.0,0.0,0.0,0.0,0.0,0.0,0.0,0.0,0.0,0.0,0.0,0.0,0.0,0.0,0.0,0.0,0.0,0.0,0.0,0.0,0.0,0.0,0.0,0.0,0.0,0.0,0.0,0.0,0.0,0.0,0.0,0.0,0.0,0.0,0.0,0.0,0.0,0.0,0.0,0.0,0.0,0.0,0.0,0.0,0.0,0.0,0.0,0.0,0.0,0.0,0.0,0.0,0.0,0.0,0.0,0.0,0.0,0.0,0.0,0.0,0.0,0.0,0.0,0.0,0.0,0.0,0.0,0.0,0.0,0.0,0.0,0.0,0.0,0.0,0.0,0.0,0.0,0.0,0.0,0.0,0.0,0.0,0.0,0.0,0.0,0.0,0.0,0.0,0.0,0.0,0.0,0.0,0.0,0.0,0.0,0.0,0.0,0.0,0.0,0.0,0.0,0.0,0.0,5.0604,4.9672,0.0,0.0,0.0,0.0,0.0,0.0,0.0,0.0,0.0,0.0,0.0,0.0,0.0,0.0,0.0,0.0,0.0,0.0,0.0,0.0,0.0,0.0,0.0,3.5371,3.6385,3.7555,3.7668,3.7856,3.8275,0.0,0.0,0.0,0.0,0.0,3.579,3.5784,3.5741,3.5741,3.6986,3.8225,3.9433,3.7683,3.5394,3.2797,0.0,0.0,0.0,0.0,0.0,0.0,0.0,0.0,0.0,0.0,0.0,0.0,0.0,0.0,0.0,0.0,0.0,0.0,0.0,0.0,0.0,0.0,0.0,0.0,0.0,0.0,0.0,0.0,0.0,0.0,0.0,0.0,0.0,0.0,0.0,0.0,0.0,0.0,0.0,0.0,0.0,0.0,0.0,0.0,0.0,0.0,0.0,0.0,0.0,0.0,0.0,0.0,0.0,0.0,0.0,0.0,0.0,0.0,0.0,0.0,0.0,0.0,0.0,0.0,0.0,0.0,0.0,0.0,0.0,0.0,5.5953,5.4262,0.0,0.0,0.0,0.0,0.0,0.0,0.0,0.0,0.0,0.0,0.0,0.0,0.0,0.0,0.0,0.0,0.0,0.0,0.0,0.0,0.0,3.3231,3.5039,3.601,3.7174,3.8782,3.8932,3.9239,3.9959,3.9201,3.8745,3.8745,3.7818,3.7367,3.7523,3.83,3.8851,3.9133,4.1241,4.3004,4.4362,4.5345,4.3175,3.8456,3.7596,0.0,0.0,0.0,0.0,0.0,0.0,0.0,0.0,0.0,0.0,0.0,0.0,0.0,0.0,0.0,0.0,0.0,0.0,0.0,0.0,0.0,0.0,0.0,0.0,0.0,0.0,0.0,0.0,0.0,0.0,0.0,0.0,0.0,0.0,0.0,0.0,0.0,0.0,0.0,0.0,0.0,0.0,0.0,0.0,0.0,0.0,0.0,0.0,0.0,0.0,0.0,0.0,0.0,0.0,0.0,0.0,0.0,0.0,0.0,0.0,0.0,0.0,0.0,5.8638,5.9577,6.0576,6.1511,6.2817,6.4187,6.1743,5.981,5.8317,5.7508,0.0,0.0,0.0,0.0,0.0,0.0,0.0,0.0,0.0,0.0,0.0,0.0,0.0,0.0,0.0,0.0,0.0,0.0,0.0,3.5184,3.7543,3.8607,3.9771,4.1366,4.1516,4.1554,4.1667,4.0922,4.0478,4.0478,3.8976,3.8488,3.9251,4.0071,4.1115,4.2452,4.6315,4.8308,4.8532,5.0156,5.0166,4.8559,4.4247,4.106,3.8888,0.0,0.0,0.0,0.0,0.0,0.0,0.0,0.0,0.0,0.0,0.0,0.0,0.0,0.0,0.0,0.0,0.0,0.0,0.0,0.0,0.0,0.0,0.0,0.0,0.0,0.0,0.0,0.0,0.0,0.0,0.0,0.0,0.0,0.0,0.0,0.0,0.0,0.0,0.0,0.0,0.0,4.7106,4.8923,0.0,0.0,0.0,0.0,0.0,0.0,0.0,0.0,0.0,0.0,0.0,0.0,0.0,5.9147,5.9547,5.9724,6.0255,6.1153,6.1968,6.3204,6.4774,6.6269,6.7462,6.8371,6.9411,0.0,6.3462,6.2571,0.0,0.0,0.0,0.0,0.0,0.0,0.0,0.0,0.0,0.0,0.0,0.0,0.0,0.0,0.0,0.0,0.0,0.0,0.0,0.0,0.0,4.0239,4.1376,4.2961,4.311,4.2924,4.2416,4.2043,4.1453,4.0578,4.0307,4.0402,4.0782,4.245,4.4782,4.769,5.0901,5.2733,5.3327,5.5006,5.5136,5.3852,5.1673,4.8368,4.4315,4.2543,0.0,0.0,0.0,0.0,0.0,0.0,0.0,0.0,0.0,0.0,0.0,0.0,0.0,0.0,0.0,0.0,0.0,0.0,0.0,0.0,0.0,0.0,0.0,0.0,0.0,0.0,0.0,0.0,0.0,0.0,0.0,0.0,0.0,0.0,0.0,0.0,0.0,0.0,0.0,4.752,5.0312,5.1555,5.2057,5.2113,0.0,0.0,0.0,0.0,0.0,0.0,0.0,0.0,0.0,6.0246,6.085,6.1683,6.284,6.3843,6.4594,6.5085,6.6869,6.8079,6.8752,7.0422,7.132,7.1683,7.3355,7.2907,7.0802,6.8762,6.6391,6.4006,0.0,0.0,0.0,0.0,6.3121,6.3772,0.0,0.0,0.0,0.0,0.0,0.0,0.0,0.0,0.0,0.0,0.0,0.0,4.062,4.1846,4.3248,4.5296,4.5251,4.4844,4.4161,4.354,4.2577,4.1126,4.1571,4.2054,4.247,4.5675,4.8999,5.2406,5.4812,5.6449,5.7212,5.8644,5.8754,5.7672,5.7449,5.4399,4.9263,4.7005,4.4618,4.213,0.0,0.0,0.0,0.0,0.0,0.0,0.0,0.0,0.0,0.0,0.0,0.0,0.0,0.0,0.0,0.0,0.0,0.0,0.0,0.0,0.0,0.0,0.0,0.0,0.0,0.0,0.0,0.0,0.0,0.0,0.0,0.0,0.0,0.0,0.0,0.0,0.0,5.0933,5.3245,5.4342,5.516,5.5414,0.0,0.0,0.0,0.0,0.0,0.0,5.9946,6.1034,6.2235,6.3365,6.353,6.4417,6.6048,6.7589,6.8514,6.8823,7.1114,7.2386,7.2764,7.4212,7.4909,7.5128,7.6576,7.716,7.6933,7.4182,7.1649,6.9447,6.9667,6.8215,6.62,6.7904,6.84,6.8559,0.0,0.0,0.0,0.0,0.0,0.0,0.0,0.0,0.0,0.0,0.0,3.8838,4.2131,4.3833,4.5987,4.9131,4.8698,4.8191,4.8024,4.5872,4.4182,4.3197,4.2585,4.3011,4.4529,4.9965,5.3661,5.5378,5.7876,5.917,5.939,6.0341,6.0807,6.0853,6.0062,5.7129,5.2643,5.0929,4.8842,4.6328,4.2243,0.0,0.0,0.0,0.0,0.0,0.0,0.0,0.0,0.0,0.0,0.0,0.0,0.0,0.0,0.0,0.0,0.0,0.0,0.0,0.0,0.0,0.0,0.0,0.0,0.0,0.0,0.0,0.0,0.0,0.0,0.0,0.0,0.0,0.0,0.0,0.0,0.0,0.0,5.7667,5.8568,0.0,0.0,0.0,0.0,6.1267,6.231,6.3561,6.5025,6.5213,6.6001,6.7626,6.7779,6.8258,6.9265,7.0234,7.1166,7.206,7.3701,7.5275,7.6825,7.761,7.8432,7.9262,8.0104,8.041,8.01,7.7916,7.6,7.4447,7.453,7.306,7.1057,7.2879,7.2965,7.2681,0.0,0.0,0.0,0.0,0.0,3.0852,3.1411,3.2796,3.4383,3.6135,3.8391,4.0948,4.3944,4.61,4.8167,5.0242,5.0159,4.9532,4.8449,4.7083,4.547,4.3647,4.4428,4.6445,4.9664,5.3745,5.6563,5.8104,6.0568,6.1863,6.2092,6.2973,6.2977,6.2178,6.1871,6.0305,5.7672,5.5303,5.2897,5.0443,4.6922,4.3734,0.0,0.0,0.0,0.0,0.0,0.0,0.0,0.0,0.0,0.0,0.0,0.0,0.0,0.0,0.0,0.0,0.0,0.0,0.0,0.0,0.0,0.0,0.0,0.0,0.0,0.0,0.0,0.0,0.0,0.0,0.0,0.0,0.0,0.0,0.0,0.0,0.0,5.9581,6.0905,0.0,6.1645,6.2903,6.3851,6.4121,6.5916,6.7052,6.71,6.8114,6.9273,7.0465,7.0546,7.1261,7.2714,7.4115,7.4989,7.5361,7.7519,7.8763,7.9174,8.0003,8.0455,8.059,8.1506,8.1907,8.1843,8.1721,8.0424,7.8432,7.8068,7.6733,7.5067,7.5735,7.5752,7.5765,0.0,0.0,0.0,0.0,3.0336,3.1202,3.1743,3.3229,3.5037,3.708,3.9495,4.2295,4.5482,4.7903,5.0078,5.2098,5.205,5.1309,4.9901,4.8828,4.7303,4.5186,4.7074,5.0118,5.4255,5.6942,5.9049,6.0571,6.2462,6.347,6.3707,6.4288,6.4098,6.3304,6.3393,6.2836,6.1715,5.9471,5.6877,5.3991,5.0902,4.7855,4.4885,0.0,0.0,0.0,0.0,0.0,0.0,0.0,0.0,0.0,0.0,0.0,0.0,0.0,0.0,0.0,0.0,0.0,0.0,0.0,0.0,0.0,0.0,0.0,0.0,0.0,0.0,0.0,0.0,0.0,0.0,0.0,0.0,0.0,0.0,5.8483,6.0905,6.1768,6.3345,6.4322,6.4284,6.5786,6.6752,6.6752,6.8779,6.9943,6.9654,7.0705,7.1865,7.3022,7.3323,7.4184,7.5619,7.7241,7.8045,7.8083,8.0254,8.1156,8.1027,8.1889,8.2158,8.1982,8.2706,8.2998,8.3035,8.3795,8.3148,8.1658,8.0999,7.9712,7.8289,7.8648,7.855,7.8458,0.0,0.0,0.0,2.9511,3.0783,3.1787,3.1723,3.3466,3.5321,3.6878,3.9526,4.2798,4.672,4.9127,5.1716,5.488,5.4452,5.3602,5.2652,5.1147,4.9605,4.8006,5.0418,5.3787,5.7932,5.9584,6.12,6.2795,6.3621,6.4069,6.4195,6.4209,6.4246,6.4353,6.4509,6.4629,6.4497,6.3202,6.059,5.7085,5.4044,5.1377,4.8856,0.0,0.0,0.0,0.0,0.0,0.0,0.0,0.0,0.0,0.0,0.0,0.0,0.0,0.0,0.0,0.0,0.0,0.0,0.0,0.0,0.0,0.0,0.0,0.0,0.0,0.0,0.0,0.0,0.0,0.0,0.0,0.0,0.0,5.8269,6.1045,6.3458,6.4294,6.5872,6.6848,6.6848,6.834,6.9267,6.9267,7.0844,7.2121,7.2883,7.2996,7.3784,7.5436,7.625,7.7114,7.799,7.9453,8.0163,8.02,8.1714,8.2444,8.2505,8.3289,8.3649,8.3663,8.3828,8.3859,8.391,8.4095,8.4148,8.4048,8.33,8.1996,8.0692,8.1616,8.1392,8.0756,0.0,0.0,2.9627,3.0193,3.1039,3.1818,3.2342,3.4687,3.6858,3.8203,4.1453,4.4854,4.7935,5.0314,5.2452,5.4395,5.4345,5.3612,5.2267,5.1259,5.0828,5.0999,5.3292,5.6,5.894,6.1676,6.3523,6.4534,6.6031,6.6585,6.6137,6.6278,6.5828,6.4899,6.5026,6.4773,6.4209,6.3995,6.2671,6.0415,5.7136,5.4754,5.2881,0.0,0.0,0.0,0.0,0.0,0.0,0.0,0.0,0.0,0.0,0.0,0.0,0.0,0.0,0.0,0.0,0.0,0.0,0.0,0.0,0.0,0.0,0.0,0.0,0.0,0.0,0.0,0.0,0.0,0.0,0.0,6.0696,6.1965,6.173,6.3513,6.5148,6.6022,6.7551,6.8554,6.8554,7.0056,7.0994,7.0994,7.2571,7.3622,7.3822,7.4948,7.6338,7.8027,7.8191,7.8966,8.044,8.1332,8.1788,8.1788,8.2794,8.3532,8.3992,8.4216,8.4605,8.5075,8.5352,8.5466,8.548,8.5743,8.55,8.4824,8.3423,8.2572,8.2134,8.1833,8.2144,8.2941,0.0,2.9666,3.006,3.0517,3.1462,3.2391,3.3103,3.5345,3.7569,3.922,4.2648,4.5904,4.8408,5.1043,5.3064,5.4208,5.463,5.4264,5.3036,5.2558,5.3015,5.4564,5.6588,5.8976,6.1766,6.394,6.5426,6.6204,6.7328,6.7693,6.733,6.7511,6.7139,6.6375,6.6531,6.614,6.54,6.5262,6.4469,6.3068,6.0143,5.793,5.6187,5.4351,5.2918,5.1769,5.0815,4.9591,4.836,4.754,0.0,0.0,0.0,0.0,0.0,0.0,0.0,0.0,0.0,0.0,0.0,0.0,0.0,0.0,0.0,0.0,0.0,0.0,0.0,0.0,0.0,0.0,0.0,0.0,6.3473,6.4885,6.5551,6.6452,6.7251,6.7739,6.923,7.0244,7.0244,7.1445,7.2346,7.2721,7.3972,7.5023,7.5699,7.6915,7.8154,7.9466,8.005,8.0846,8.1818,8.2505,8.2832,8.2832,8.3582,8.4143,8.454,8.4875,8.5239,8.561,8.5864,8.5966,8.5995,8.6224,8.6101,8.5593,0.0,0.0,0.0,0.0,8.372,8.4769,0.0,3.0092,3.066,3.0846,3.2015,3.3142,3.3919,3.5835,3.7929,4.0056,4.3298,4.6283,4.8466,5.1235,5.3239,5.3998,5.4791,5.4966,5.4349,5.4454,5.5672,5.8129,5.9871,6.2191,6.5218,6.6154,6.6932,6.7674,6.797,6.8055,6.7949,6.8133,6.8161,6.8107,6.8288,6.8011,6.7291,6.6771,6.6007,6.5001,6.2983,6.091,5.8943,5.7647,5.675,5.6008,5.4754,5.3797,5.2973,5.2037,0.0,0.0,0.0,0.0,0.0,0.0,0.0,0.0,0.0,0.0,0.0,0.0,0.0,0.0,0.0,0.0,0.0,0.0,0.0,0.0,0.0,0.0,0.0,0.0,6.5997,6.7637,6.9267,6.9568,6.9568,6.9493,7.0882,7.182,7.182,7.2583,7.3409,7.4272,7.5098,7.6225,7.779,7.8604,0.0,0.0,0.0,8.2416,8.2491,8.3083,8.3421,8.3533,8.4109,8.4495,8.4666,8.5409,8.5781,8.5907,8.6021,8.608,8.6095,8.6279,8.64,8.6355,8.5681,8.4998,8.4446,8.5085,8.5732,8.6211,0.0,3.048,3.0995,3.229,3.2757,3.3389,3.4829,3.6824,3.893,4.0905,4.3788,4.6424,4.8479,5.0286,5.1645,5.2369,5.319,5.3822,5.4279,5.5472,5.7208,5.9592,6.1806,6.3861,6.5723,6.713,6.7921,6.8061,6.8857,6.8964,6.8399,6.8695,6.8494,6.7942,6.8258,6.8297,6.8154,6.8043,6.7163,6.5766,6.5227,6.3522,6.1217,5.9879,5.8993,5.8449,5.8153,5.7503,5.6562,5.4972,5.3792,5.2767,5.1426,4.9994,0.0,0.0,0.0,0.0,0.0,0.0,0.0,0.0,0.0,0.0,0.0,0.0,0.0,0.0,0.0,0.0,0.0,0.0,0.0,6.7798,6.8506,6.9305,7.0994,7.1794,7.1933,7.1295,7.2083,7.2658,7.2658,7.3446,7.431,7.5098,7.5962,7.6815,7.7692,7.9102,8.0198,8.0953,8.1787,8.2561,8.3195,8.3237,8.3573,8.4191,8.4347,0.0,8.6338,8.6486,8.6932,8.7617,8.7748,8.7824,8.7824,8.7973,8.7674,8.7036,8.6479,8.6108,8.597,8.6616,8.6906,8.6967,3.1649,3.1812,3.2035,3.2847,3.3678,3.46,3.5782,3.747,3.9361,4.1469,4.3816,4.5938,4.7714,4.9401,5.0559,5.0897,5.2319,5.3836,5.5367,5.6947,5.9018,6.1722,6.3705,6.5478,6.7023,6.8182,6.8814,6.8814,6.9331,6.9421,6.9069,6.9318,6.9228,6.8926,6.9063,6.8986,6.8713,6.8713,6.8049,6.7004,6.6121,6.5074,6.3855,6.2496,6.1249,6.0303,6.0394,5.9568,5.8317,5.7467,5.6633,5.5776,5.4723,5.3358,5.1886,0.0,0.0,0.0,0.0,0.0,0.0,0.0,0.0,0.0,0.0,0.0,0.0,0.0,0.0,6.3501,6.5666,0.0,6.8511,7.0195,7.0469,7.0882,7.2132,7.2601,7.269,7.2346,7.3033,7.3536,7.3478,7.4216,7.5005,7.5732,7.6593,7.7417,7.8177,7.9669,8.0685,8.1027,8.2118,8.2888,8.3297,8.3224,8.3604,8.4406,8.4815,8.5632,8.6821,8.723,8.7675,8.81,8.8177,8.8223,8.8186,8.8354,8.8153,8.7772,8.758,8.7211,8.6826,8.7078,8.7422,8.7756,3.2759,3.3144,3.3293,3.3441,3.4599,3.58,3.6693,3.7924,3.9566,4.1821,4.3544,4.5069,4.6534,4.8128,4.9248,4.9642,5.1565,5.3836,5.642,5.8246,6.0668,6.3898,6.539,6.6848,6.8392,6.9078,6.9394,6.9394,6.9506,6.9543,6.9578,6.9742,6.9831,6.9831,6.9867,6.9637,6.9173,6.9173,6.8797,6.813,6.6705,6.6128,6.5919,6.4486,6.2979,6.1717,6.1781,6.0703,5.9199,5.9028,5.8498,5.7867,5.7234,5.6101,5.4651,5.2872,5.1843,0.0,0.0,0.0,0.0,0.0,0.0,0.0,0.0,5.8791,6.0652,6.249,6.4602,6.6668,6.8393,6.9804,7.0994,7.1749,7.1899,7.215,7.2964,7.3122,7.321,7.3279,7.3778,7.4155,7.4209,7.4784,7.5533,7.6405,7.7102,7.7911,7.8842,8.0166,8.0977,8.1098,8.2473,8.3195,8.3195,8.3381,8.3864,8.4629,8.5446,8.6264,8.7081,8.7787,8.8084,8.8084,8.8084,8.8084,8.81,8.8202,8.8263,8.8263,8.8384,8.8018,8.7459,8.7354,8.7719,8.8232,0.0,3.359,3.4296,3.5076,3.538,3.6005,3.7515,3.8435,3.9756,4.1931,4.2831,4.378,4.5023,4.5757,4.6885,4.869,5.0251,5.2713,5.635,5.8702,6.1652,6.5496,6.6426,6.762,6.9218,6.9359,6.9394,6.9394,6.9412,6.9431,6.9431,6.9578,6.9634,6.9634,6.9813,6.9867,6.9796,6.9796,6.9389,6.8627,6.7758,6.6979,6.6199,6.4672,6.336,6.2367,6.2263,6.1114,5.9526,5.8668,5.8326,5.8142,5.747,5.6742,5.5978,5.5274,5.4575,5.3929,5.3422,5.4697,5.6035,5.5636,5.8047,6.0529,0.0,6.2684,6.4994,6.678,6.7991,6.9294,7.0994,7.1445,7.1787,7.2496,7.2585,7.285,7.3602,7.4313,7.4761,7.4773,7.4225,7.4101,7.4836,7.4973,7.5682,7.7251,7.7438,7.8096,7.9505,8.0409,8.1196,8.1849,8.2749,8.3195,8.3195,8.3886,8.4666,8.5483,8.6264,8.7118,8.7935,8.8047,8.8084,8.8084,8.8084,8.8084,8.8084,8.8115,8.8115,8.8115,8.8146,8.8072,8.8013,8.8136,8.8142,8.8115,0.0,3.4395,3.5225,3.6042,3.6191,3.6563,3.7714,3.853,3.9505,4.0877,4.1535,4.2211,4.3157,4.3991,4.5292,4.7284,4.9216,5.1925,5.5718,5.8562,6.1843,6.5742,6.6602,6.776,6.9359,6.9394,6.9394,6.9394,6.9394,6.9394,6.9394,6.9468,6.9469,6.9487,6.956,6.9651,6.9724,6.9724,6.9601,6.9318,6.8079,6.7406,6.6875,6.4858,6.3187,6.1843,6.1355,6.0063,0.0,5.8159,5.7706,5.7348,5.7638,5.7231,5.6638,5.6585,5.6017,5.5476,5.569,5.6949,5.832,5.8824,6.0788,6.2765,6.3398,6.5526,6.755,6.8279,6.9858,7.1341,7.2052,7.2576,7.3013,7.329,7.3726,7.4163,7.4437,7.5108,7.5592,7.5592,7.523,7.5129,7.5542,7.604,7.661,7.7202,7.8133,7.8925,7.9526,8.0828,8.1692,8.2006,8.3232,8.3901,8.3901,8.4703,8.5483,8.6301,8.6635,8.7267,8.8084,8.8084,8.8084,8.8084,8.8084,8.8084,8.8084,8.8084,8.8084,8.8084,8.8084,8.8084,8.81,8.8177,8.8146,8.8084,0.0,3.4952,3.577,3.6569,3.6897,3.7306,3.8123,3.87,3.9318,4.0104,4.0751,4.1487,4.2352,4.3006,4.4235,4.6245,4.8217,5.103,5.5027,5.7936,6.126,6.5126,6.6216,6.7445,6.9024,6.9289,6.9394,6.9394,6.9394,6.9394,6.9394,6.9394,6.9394,6.9394,6.9394,6.9468,6.956,6.956,6.9492,6.93,6.7958,6.7181,6.6545,6.4214,6.2277,6.0771,6.027,5.8822,5.7122,5.6912,5.6455,5.6084,5.6766,5.676,5.6588,5.7048,5.7342,5.7731,5.8589,5.977,6.0969,6.1829,6.3368,6.4953,6.5963,6.7729,6.9311,6.9794,7.1413,7.2845,7.3081,7.3827,7.4412,7.4362,7.4872,7.5258,7.5219,7.585,7.6306,7.6306,7.6598,7.6868,7.6962,7.7348,7.7642,7.7746,7.907,7.9962,8.0185,8.156,8.2415,8.2637,8.4012,8.474,8.474,8.5521,8.6226,8.6784,8.7044,8.749,8.8084,8.8084,8.8084,8.8084,8.8084,8.8084,8.8084,8.8084,8.8084,8.8084,8.8084,8.8084,8.8084,8.8084,8.8084,8.8084,0.0,0.0,3.582,3.6576,3.7343,3.8116,3.8934,3.9082,3.9345,4.0111,4.0955,4.1934,4.3137,4.3059,4.374,4.5749,4.7191,4.9877,5.4443,5.6808,5.98,6.3676,6.5179,6.6637,6.8199,6.9008,6.9394,6.9394,6.9394,6.9394,6.9394,6.9394,6.9394,6.9394,6.9394,6.9394,6.9412,6.9412,6.8973,6.8182,6.7339,6.611,6.453,6.2265,6.0423,5.9085,5.9186,5.7661,5.5458,5.4665,5.4384,5.4384,5.4419,5.4946,5.5713,5.6629,5.8899,6.1437,6.2821,6.42,6.5127,6.4784,6.6035,6.764,6.8588,6.9339,7.0361,7.2023,7.2982,7.3738,7.4583,7.5403,7.5872,7.5763,7.587,7.5909,7.579,7.652,7.7078,7.7078,7.8439,7.9405,7.9405,7.8699,7.8587,7.9368,8.0222,8.104,8.1894,8.2712,8.3529,8.4295,8.5112,8.5558,8.5558,8.6375,8.6784,8.6821,8.7638,8.8047,8.8084,8.8084,8.8084,8.8084,8.8084,8.8084,8.8084,8.8084,8.8084,8.8084,8.8084,8.8084,8.8084,8.8084,8.8084,8.8084,0.0,0.0,0.0,3.7356,3.8154,3.8785,3.9045,3.9082,3.941,4.0235,4.1,0.0,0.0,0.0,0.0,0.0,4.6726,4.8948,5.2536,5.5261,5.8252,6.1652,6.3021,6.4438,6.6039,6.6743,6.7076,6.7076,6.755,6.8076,6.8603,6.8603,6.8884,6.9394,6.9394,6.9095,6.8603,6.8603,6.8147,6.7286,6.5987,6.4882,6.3723,6.1406,5.9194,5.7228,0.0,5.4336,5.3071,5.2312,5.2032,5.2137,5.2614,5.3667,5.5215,5.7836,6.0282,6.2385,6.3814,6.4732,6.5469,6.6256,6.7374,6.8511,6.9366,7.0584,7.1827,7.2767,7.3464,7.4107,7.4862,7.5217,7.5573,7.607,7.6716,7.7399,7.8034,7.8827,7.9389,7.9502,7.9948,8.0282,8.0282,8.0074,7.9985,8.0297,8.1597,8.2489,8.2786,8.4087,8.4926,8.5186,8.5966,8.6412,8.6412,8.723,8.7638,8.7675,8.7935,8.8084,8.8084,8.8084,8.8084,8.8084,8.8084,8.8084,8.8084,8.8084,8.8084,8.8084,8.8084,8.8084,8.8084,8.8084,8.8084,8.8084,0.0,0.0,0.0,0.0,0.0,0.0,0.0,0.0,0.0,0.0,0.0,0.0,0.0,0.0,0.0,0.0,0.0,4.8568,5.1047,5.3631,5.618,5.8722,6.0508,6.2033,6.3305,6.4475,6.5074,6.5074,6.5829,6.6444,6.6935,6.6935,6.7234,6.7725,6.7725,6.7445,6.6935,6.6935,6.6338,6.5268,6.4285,6.2915,6.1336,5.9545,5.7419,0.0,5.2783,5.1651,5.1187,5.0708,5.0721,5.1122,5.1969,5.3731,5.6176,5.9633,6.1836,6.351,6.5227,6.5993,6.6567,6.7553,6.8489,6.9344,7.0077,7.1268,7.2381,7.292,7.3476,7.4065,7.4809,7.5139,7.5689,7.6912,7.7923,7.884,7.9637,8.0407,8.0874,8.0714,8.1211,8.1583,8.1583,8.2103,8.2214,8.1634,8.286,8.3752,8.4049,8.5298,8.6041,8.6041,8.6821,8.7267,8.7267,8.7824,8.8084,8.8084,8.8084,8.8084,8.8084,8.8084,8.8084,8.8084,8.8084,8.8084,8.8084,8.8084,8.8084,8.8084,8.8084,8.8084,8.8084,8.8084,8.8084,8.8084,0.0,0.0,0.0,0.0,0.0,0.0,0.0,0.0,0.0,0.0,0.0,0.0,0.0,0.0,0.0,0.0,0.0,0.0,5.0083,5.1992,5.3692,5.5092,5.7718,5.939,6.0012,6.2155,6.3283,6.3302,6.4074,6.4443,6.4513,6.4513,6.4548,6.4583,6.4583,6.4548,6.453,6.453,6.367,6.2246,6.2211,6.0369,5.7579,5.6771,5.5066,5.2783,5.057,4.9807,4.9889,4.9867,5.0492,5.1467,5.2678,5.5201,5.845,6.1796,6.3552,6.4883,6.7052,6.7943,6.8383,6.8688,6.9344,7.004,7.0735,7.1374,7.1981,7.2507,7.2944,7.3528,7.4428,7.5093,7.6167,7.8202,7.9359,8.018,8.0682,8.1393,8.1652,8.1011,8.234,8.3343,8.3343,8.4703,8.4963,8.3492,8.4072,8.4852,8.5632,8.6412,8.6858,8.6858,8.7675,8.8084,8.8084,8.8084,8.8084,8.8084,8.8084,8.8084,8.8084,8.8084,8.8084,8.8084,8.8084,8.8084,8.8084,8.8084,8.8084,8.8084,8.8084,8.8084,8.8084,8.8084,8.8084,8.8084,0.0,0.0,0.0,0.0,0.0,0.0,0.0,0.0,0.0,0.0,0.0,0.0,0.0,0.0,0.0,0.0,0.0,0.0,4.9728,5.0575,5.1681,5.3146,5.4642,5.5719,5.6255,5.7796,5.8811,5.9264,6.0056,6.1038,6.2178,6.2178,6.2459,6.2986,6.2986,6.2736,6.2307,6.2307,6.1472,6.0086,5.9413,5.7958,5.6147,5.5235,5.3471,5.1413,5.0816,5.0299,4.9831,4.9372,5.1139,5.3943,5.6671,5.8682,6.0522,6.332,6.4945,6.6186,6.7594,6.8121,6.8482,6.9249,6.9521,6.9792,7.043,7.0668,7.0822,7.1186,7.1318,7.1675,7.2858,7.3764,7.5346,7.8377,7.9788,8.1333,8.3619,8.4088,8.4271,8.4339,8.474,8.5,8.5,8.5372,8.5669,8.5855,8.6078,8.6264,8.6486,8.7304,8.775,8.775,8.7973,8.8084,8.8084,8.8084,8.8084,8.8084,8.8084,8.8084,8.8084,8.8084,8.8084,8.8084,8.8084,8.8084,8.8084,8.8084,8.8084,8.8084,8.8084,8.8084,8.8084,8.8084,8.8084,8.8084,0.0,0.0,0.0,0.0,0.0,0.0,0.0,0.0,0.0,0.0,0.0,0.0,0.0,0.0,0.0,0.0,0.0,0.0,0.0,4.9757,5.0357,5.1053,5.216,5.2863,5.2999,5.466,5.5637,5.5965,5.7167,5.8139,5.8924,5.8985,5.9197,5.9558,5.9558,5.9388,5.9138,5.9077,5.8431,0.0,0.0,5.5637,5.4176,5.3613,5.2374,5.0919,5.0514,5.0991,5.2044,5.3342,5.5154,5.7344,6.03,6.167,6.2668,6.4882,6.6022,6.6833,6.7886,6.8246,6.842,6.8939,6.921,6.9399,6.9734,6.9632,6.9479,6.9441,6.9026,6.9064,7.0462,7.1431,7.3323,7.7288,7.9201,8.1183,8.4147,8.4938,8.5302,8.5564,8.5892,8.6115,8.6115,8.6449,8.6858,8.7341,8.7007,8.6969,8.7341,8.7824,8.8084,8.8084,8.8084,8.8084,8.8084,8.8084,8.8084,8.8084,8.8084,8.8084,8.8084,8.8084,8.8084,8.8084,8.8084,8.8084,8.8084,8.8084,8.8084,8.8084,8.8084,8.8084,8.8084,8.8084,8.8084,8.8084,0.0,0.0,0.0,0.0,0.0,0.0,0.0,0.0,0.0,0.0,0.0,0.0,0.0,0.0,0.0,0.0,0.0,0.0,0.0,0.0,4.9477,4.9225,5.0286,5.0728,5.0402,5.2205,5.3207,5.3242,5.4663,5.5374,5.539,5.5466,5.5453,5.5362,5.5362,5.5411,5.5571,5.5553,5.5133,5.4558,5.4475,5.3591,5.2303,0.0,5.1608,5.0889,5.0198,5.1893,5.5027,5.8669,6.0136,6.0919,6.3425,6.4323,6.4817,6.6441,6.6998,6.7296,6.8086,6.8296,6.8333,6.8419,6.8672,6.8877,6.8701,6.8255,6.7658,6.7114,6.613,6.5898,6.7406,6.8529,7.08,7.5429,7.8005,8.0511,8.3598,8.4875,8.5602,8.5914,8.6561,8.6969,8.6969,8.7638,8.8084,8.8084,8.7378,8.7304,8.8047,8.8084,8.8084,8.8084,8.8084,8.8084,8.8084,8.8084,8.8084,8.8084,8.8084,8.8084,8.8084,8.8084,8.8084,8.8084,8.8084,8.8084,8.8084,8.8084,8.8084,8.8084,8.8084,8.8084,8.8084,8.8084,8.8084,8.8084,0.0,0.0,0.0,0.0,0.0,0.0,0.0,0.0,0.0,0.0,4.4432,4.5406,0.0,0.0,0.0,0.0,0.0,0.0,0.0,0.0,0.0,4.8726,4.9272,4.9523,4.9278,5.0059,5.0725,5.1274,5.1585,5.2002,5.2586,5.2559,5.2544,5.2519,5.2519,5.2595,5.2743,5.3388,5.3284,5.2713,5.3057,5.2643,5.1785,5.1541,0.0,0.0,5.0964,5.3031,5.5908,5.89,6.1015,6.2891,6.552,6.6457,6.6791,6.7753,6.8111,6.8222,6.8284,6.8296,6.8419,6.8997,6.8541,6.7857,6.7561,6.6175,6.4621,6.3451,6.248,6.2225,6.3685,6.5866,6.8903,7.3338,7.6864,8.0419,8.4175,8.5528,8.6513,8.7533,8.7787,8.7861,8.7861,8.801,8.8084,8.8084,8.7935,8.7935,8.8084,8.8084,8.8084,8.8084,8.8084,8.8084,8.8084,8.8084,8.8084,8.8084,8.8084,8.8084,8.8084,8.8084,8.8084,8.8084,8.8084,8.8084,8.8084,8.8084,8.8084,8.8084,8.8084,8.8084,8.8084,8.8084,8.8084,8.8084,0.0,0.0,0.0,0.0,0.0,0.0,0.0,4.3438,4.5138,4.6401,4.7293,4.7627,4.7181,4.7478,0.0,0.0,0.0,0.0,0.0,0.0,0.0,4.8696,4.8863,4.8837,4.8646,4.9648,5.0297,5.0574,0.0,5.1416,5.1698,5.1255,5.1017,5.0984,5.0984,5.1053,5.1203,5.1953,5.2073,5.1818,5.2366,5.2316,5.1895,5.1695,0.0,0.0,5.1838,5.3619,5.6052,5.881,6.1034,6.3145,6.6,6.7246,6.7703,6.8097,6.8246,6.8284,6.8221,6.8158,6.8142,6.8381,6.7627,6.6743,6.645,6.4455,6.2493,6.1715,6.0337,5.9743,6.1203,6.3264,6.6336,7.1211,7.4805,7.8618,8.3291,8.494,8.6227,8.7778,8.8037,8.8084,8.8084,8.8084,8.8084,8.8084,8.8084,8.8084,8.8084,8.8084,8.8084,8.8084,8.8084,8.8084,8.8084,8.8084,8.8084,8.8084,8.8084,8.8084,8.8084,8.8084,8.8084,8.8084,8.8084,8.8084,8.8084,8.8084,8.8084,8.8084,8.8084,8.8084,8.8084,8.8084,8.8084,8.8084,0.0,0.0,0.0,0.0,0.0,0.0,0.0,4.4585,4.6574,4.863,4.9782,4.9884,4.863,4.8333,4.8407,0.0,0.0,0.0,0.0,0.0,0.0,0.0,0.0,0.0,4.8926,0.0,0.0,5.0566,5.125,0.0,0.0,0.0,0.0,0.0,5.0346,5.0399,5.0566,5.1237,5.1548,0.0,0.0,5.2328,5.2174,0.0,0.0,0.0,0.0,5.3621,5.5474,5.7955,5.9976,6.2045,6.4936,6.6736,6.7784,6.7994,6.8081,6.8081,6.8081,6.7978,6.7834,6.7687,6.6793,6.5781,6.5337,6.3005,6.081,6.0326,5.8643,5.7653,5.901,6.0819,6.3662,6.838,7.2094,7.6141,8.1206,8.35,8.5365,8.7269,8.7815,8.8053,8.8084,8.8084,8.8084,8.8084,8.8084,8.8084,8.8084,8.8084,8.8084,8.8084,8.8084,8.8084,8.8084,8.8084,8.8084,8.8084,8.8084,8.8084,8.8084,8.8084,8.8084,8.8084,8.8084,8.8084,8.8084,8.8084,8.8084,8.8084,8.8084,8.8084,8.8084,8.8084,8.8084,8.8084,0.0,0.0,0.0,0.0,0.0,0.0,0.0,4.5624,4.7897,4.8787,5.0302,5.1231,5.1082,5.0339,4.9624,0.0,0.0,0.0,0.0,0.0,0.0,0.0,0.0,0.0,0.0,0.0,0.0,5.1051,5.1135,0.0,0.0,0.0,0.0,0.0,0.0,5.0838,5.0922,5.1695,0.0,0.0,0.0,0.0,0.0,0.0,0.0,0.0,0.0,5.265,5.3781,5.5487,5.7224,5.9115,6.1665,6.4337,6.6751,6.7642,6.7939,6.7939,6.7939,6.7834,6.7687,6.7538,6.6571,6.5374,6.431,6.1872,5.9494,5.8305,5.6676,5.5673,5.6443,5.8539,6.1109,6.4054,6.8736,7.3426,7.7534,8.1097,8.4055,8.6172,8.7269,8.7911,8.8068,8.8084,8.8084,8.8084,8.8084,8.8084,8.8084,8.8084,8.8084,8.8084,8.8084,8.8084,8.8084,8.8084,8.8084,8.8084,8.8084,8.8084,8.8084,8.8084,8.8084,8.8084,8.8084,8.8084,8.8084,8.8084,8.8084,8.8084,8.8084,8.8084,8.8084,8.8084,8.8084,8.8084,0.0,0.0,0.0,0.0,0.0,0.0,4.3671,4.6498,4.8985,5.0236,5.1825,5.2679,5.2197,5.1379,5.0525,0.0,0.0,0.0,0.0,0.0,0.0,0.0,0.0,0.0,0.0,0.0,5.201,5.201,5.201,0.0,0.0,0.0,0.0,0.0,0.0,5.1081,5.1118,5.1922,0.0,0.0,0.0,0.0,0.0,0.0,0.0,0.0,0.0,0.0,5.3506,5.4443,5.5802,5.7505,5.9454,6.1576,6.3791,6.5998,6.7053,6.7488,6.7488,6.7538,6.7497,6.7148,6.5952,6.4643,6.3783,6.1141,5.8656,5.7947,5.6268,5.5174,5.5911,5.7573,5.9859,6.2939,6.7039,7.1462,7.6212,7.9787,8.2836,8.5353,8.6736,8.7551,8.773,8.7842,8.7974,8.8084,8.8084,8.8084,8.8084,8.8084,8.8084,8.8084,8.8084,8.8084,8.8084,8.8084,8.8084,8.8084,8.8084,8.8084,8.8084,8.8084,8.8084,8.8084,8.8084,8.8084,8.8084,8.8084,8.8084,8.8084,8.8084,8.8084,8.8084,8.8084,8.8084,8.8084,0.0,0.0,0.0,0.0,0.0,4.2711,4.3847,4.6649,4.9159,5.0497,5.2308,5.3162,5.2345,5.1751,5.1045,5.0182,0.0,0.0,0.0,0.0,0.0,0.0,0.0,0.0,0.0,0.0,5.3079,5.3302,5.3302,5.345,0.0,0.0,5.2316,5.2316,0.0,0.0,0.0,0.0,0.0,0.0,0.0,0.0,0.0,0.0,0.0,0.0,0.0,0.0,0.0,0.0,0.0,5.5579,5.7134,5.8759,6.0733,6.4231,6.588,6.6662,6.6705,6.6812,6.6697,6.6105,6.486,6.3616,6.2995,6.0418,5.8028,5.7631,5.6086,5.4937,5.541,5.6759,5.8728,6.1501,6.5198,6.9424,7.4188,7.7973,8.1308,8.415,8.5881,8.7044,8.7546,8.7762,8.7958,8.8084,8.8084,8.8084,8.8084,8.8084,8.8084,8.8084,8.8084,8.8084,8.8084,8.8084,8.8084,8.8084,8.8084,8.8084,8.8084,8.8084,8.8084,8.8084,8.8084,8.8084,8.8084,8.8084,8.8084,8.8084,8.8084,8.8084,8.8084,8.8084,8.8084,8.8084,0.0,0.0,0.0,0.0,0.0,0.0,4.3206,4.5911,4.8145,4.8833,5.1082,5.2308,5.1491,5.1416,5.1045,5.0182,0.0,0.0,0.0,0.0,0.0,0.0,0.0,0.0,0.0,0.0,5.4193,5.4973,5.4973,5.5419,5.6246,5.5382,5.4973,5.4936,0.0,0.0,0.0,0.0,0.0,0.0,0.0,0.0,0.0,0.0,0.0,0.0,0.0,0.0,0.0,0.0,0.0,0.0,0.0,5.5894,5.8044,6.2593,6.4583,6.5344,6.5555,6.5482,6.5104,6.4164,6.3128,6.2165,6.1632,5.9597,5.7646,5.711,5.5819,5.4733,5.456,5.577,5.7354,5.9042,6.2945,6.7024,7.0735,7.5281,7.9358,8.2473,8.4606,8.6334,8.7672,8.799,8.8084,8.8084,8.8084,8.8084,8.8084,8.8084,8.8084,8.8084,8.8084,8.8084,8.8084,8.8084,8.8084,8.8084,8.8084,8.8084,8.8084,8.8084,8.8084,8.8084,8.8084,8.8084,8.8084,8.8084,8.8084,8.8084,8.8084,8.8084,8.8084,8.8084,8.8084,8.8084,0.0,0.0,0.0,0.0,0.0,0.0,0.0,4.4975,4.6914,4.8684,5.0079,5.1008,5.1342,5.0859,5.0413,5.0107,0.0,0.0,0.0,0.0,0.0,0.0,0.0,0.0,0.0,5.3933,5.475,5.501,5.6162,5.657,5.632,5.658,5.6087,5.4973,5.4713,5.4304,0.0,0.0,0.0,0.0,0.0,0.0,0.0,0.0,0.0,0.0,0.0,0.0,0.0,0.0,0.0,0.0,0.0,0.0,0.0,5.8296,6.1019,6.3379,6.3941,6.4166,6.4064,6.3541,6.2668,6.1836,6.144,5.9344,5.7365,5.7046,5.5724,5.4592,5.4494,5.5833,5.7452,5.9058,6.2961,6.7235,7.119,7.5367,7.9251,8.2685,8.529,8.7044,8.7563,8.7889,8.8084,8.8084,8.8084,8.8084,8.8084,8.8084,8.8084,8.8084,8.8084,8.8084,8.8084,8.8084,8.8084,8.8084,8.8084,8.8084,8.8084,8.8084,8.8084,8.8084,8.8084,8.8084,8.8084,8.8084,8.8084,8.8084,8.8084,8.8084,8.8084,8.8084,8.8084,8.8084,0.0,0.0,0.0,0.0,0.0,0.0,0.0,4.4126,4.5693,4.7359,4.8822,4.978,4.9968,5.0079,4.9959,4.9661,0.0,0.0,0.0,0.0,0.0,0.0,0.0,0.0,5.2159,5.4007,5.5307,5.5939,5.7276,5.8019,5.8141,5.8019,5.7387,5.6347,5.5419,5.4713,0.0,0.0,0.0,0.0,0.0,0.0,0.0,0.0,0.0,0.0,0.0,0.0,0.0,0.0,0.0,0.0,0.0,0.0,0.0,0.0,5.7131,5.9597,6.1275,6.1829,6.1808,6.1246,6.0646,6.0105,5.9755,5.817,5.6709,5.6517,5.5628,5.4927,5.4927,5.6538,5.8365,5.9942,6.3624,6.7711,7.1562,7.551,7.954,8.3683,8.6084,8.7452,8.7616,8.7927,8.8084,8.8084,8.8084,8.8084,8.8084,8.8084,8.8084,8.8084,8.8084,8.8084,8.8084,8.8084,8.8084,8.8084,8.8084,8.8084,8.8084,8.8084,8.8084,8.8084,8.8084,8.8084,0.0,8.8418,8.853,8.8567,8.8901,8.9013,8.9013,8.9013,8.9013,8.9013,0.0,0.0,0.0,0.0,0.0,0.0,0.0,0.0,4.4505,4.5287,4.7417,4.8538,4.7784,4.9076,4.9699,4.8964,0.0,0.0,0.0,0.0,0.0,0.0,0.0,0.0,5.1416,5.3822,5.5865,5.7509,5.8427,5.9653,6.1187,5.9653,5.8873,5.8613,5.6236,5.5085,0.0,0.0,0.0,0.0,0.0,0.0,0.0,0.0,0.0,0.0,0.0,0.0,0.0,0.0,0.0,0.0,0.0,0.0,0.0,0.0,0.0,0.0,0.0,5.8753,5.8687,5.7849,5.7662,5.7533,5.7166,5.6461,0.0,5.5649,5.5582,5.5616,5.5701,5.7747,5.9924,6.1485,6.4883,6.8522,7.1958,7.6016,8.0439,8.5241,8.6819,8.7579,8.7778,8.799,8.8084,8.8084,8.8084,8.8084,8.8084,8.8084,8.8084,8.8084,8.8084,8.8084,8.8084,8.8084,8.8084,8.8084,8.8084,8.8084,8.8084,8.8084,8.8084,8.8084,8.8084,8.8121,8.8233,8.8976,8.931,8.9459,9.0202,9.0499,9.0499,9.0499,9.0499,9.0499,0.0,0.0,0.0,0.0,0.0,0.0,0.0,0.0,0.0,0.0,4.6419,4.7318,4.7673,4.8593,4.9113,0.0,0.0,0.0,0.0,0.0,0.0,0.0,0.0,0.0,5.1416,5.4426,5.6506,5.7509,5.9579,6.0805,6.1187,6.1436,6.0508,5.865,5.7462,5.5865,0.0,0.0,0.0,0.0,0.0,0.0,0.0,0.0,0.0,0.0,5.3637,5.3518,0.0,0.0,0.0,0.0,0.0,0.0,0.0,0.0,5.19,5.2354,5.4221,0.0,5.778,5.8135,5.8127,5.8031,0.0,5.6745,5.5665,5.5598,5.5582,5.5837,5.6602,5.8777,6.1046,6.2835,6.6688,7.0469,7.3404,7.9065,8.3595,8.5566,8.6919,8.7746,8.7778,8.799,8.8084,8.8084,8.8084,8.8084,8.8084,8.8084,8.8084,8.8084,8.8084,8.8084,8.8084,8.8084,8.8084,8.8084,8.8084,8.8084,8.8084,8.8084,8.8084,8.8084,8.8084,8.8455,8.9013,8.9198,8.9644,9.0239,9.0424,9.0499,9.0499,9.0499,9.0499,9.0499,0.0,0.0,0.0,0.0,0.0,0.0,0.0,0.0,0.0,0.0,0.0,0.0,0.0,0.0,0.0,0.0,0.0,0.0,0.0,0.0,0.0,0.0,0.0,5.1936,5.1936,5.4797,5.6878,5.8056,6.0173,6.177,6.2848,6.255,6.1659,6.0285,5.7982,5.5976,0.0,0.0,0.0,0.0,0.0,0.0,0.0,0.0,0.0,0.0,5.3764,5.3676,0.0,5.375,5.3288,5.2677,0.0,0.0,0.0,0.0,5.091,5.1196,5.3011,5.4733,5.6198,5.6944,5.7329,5.7471,5.7075,5.6284,5.5513,5.5168,5.6008,5.7073,5.8,6.0872,6.371,6.5547,6.9282,7.3439,7.7606,8.2109,8.5416,8.6598,8.7357,8.7863,8.7942,8.8037,8.8084,8.8084,8.8084,8.8084,8.8084,8.8084,8.8084,8.8084,8.8084,8.8084,8.8084,8.8084,8.8084,8.8084,8.8084,8.8084,8.8084,8.8084,8.8307,8.8641,8.8641,8.9124,8.9867,9.0239,9.0647,9.1093,9.1502,9.165,9.165,9.165,9.165,9.165,0.0,0.0,0.0,0.0,0.0,0.0,0.0,0.0,0.0,0.0,0.0,0.0,0.0,0.0,0.0,0.0,0.0,0.0,0.0,0.0,0.0,0.0,5.2308,5.2679,5.2791,5.5206,5.7286,5.8873,6.0693,6.2662,6.4779,6.3405,6.2439,6.1659,5.7955,5.5837,5.501,0.0,0.0,0.0,0.0,0.0,0.0,0.0,0.0,0.0,0.0,0.0,0.0,5.3578,5.3214,5.275,5.2234,0.0,0.0,0.0,0.0,0.0,5.3023,5.4198,5.5022,5.6127,5.7024,5.7455,5.6764,5.6522,5.6245,5.5484,5.7085,5.8934,6.0007,6.3466,6.6796,6.8894,7.2513,7.6981,8.2325,8.4708,8.6381,8.7655,8.7847,8.7927,8.8084,8.8084,8.8084,8.8084,8.8084,8.8084,8.8084,8.8084,8.8084,8.8084,8.8084,8.8084,8.8084,8.8084,8.8084,8.8084,8.8084,8.8084,8.8084,8.8248,8.8641,8.931,8.9421,8.9942,9.0722,9.1428,9.1762,9.1985,9.2691,9.2988,9.2988,9.2988,9.2988,9.2988,0.0,0.0,0.0,0.0,0.0,0.0,0.0,0.0,0.0,0.0,0.0,0.0,0.0,0.0,0.0,0.0,0.0,0.0,0.0,0.0,0.0,5.345,5.2902,5.294,5.3608,5.605,5.8093,5.9728,6.2068,6.3776,6.4779,6.4556,6.2588,5.917,5.7175,5.5837,5.5047,5.58,0.0,0.0,5.6432,0.0,0.0,0.0,0.0,0.0,0.0,0.0,0.0,5.4481,5.3933,5.3097,5.3261,0.0,0.0,0.0,0.0,0.0,5.3237,5.4876,5.6599,5.9328,6.0679,6.1337,6.1215,6.0708,6.0026,5.9241,5.979,6.1114,6.3516,6.5705,6.8327,7.1886,7.6531,8.0745,8.3901,8.5578,8.6788,8.7704,8.7958,8.8068,8.8084,8.8084,8.8084,8.8084,8.8084,8.8084,8.8084,8.8084,8.8084,8.8084,8.8084,8.8084,8.8084,8.8084,8.8084,8.8084,8.8084,8.8084,8.8121,8.879,8.9161,8.9347,9.0016,9.0759,9.1539,9.165,9.2133,9.2802,9.2951,9.2988,9.2988,9.2988,9.2988,9.2988,0.0,0.0,0.0,0.0,0.0,0.0,0.0,0.0,0.0,0.0,0.0,0.0,0.0,0.0,0.0,0.0,0.0,0.0,0.0,0.0,5.397,5.4416,5.4537,5.4537,5.4453,5.6867,5.8947,6.0582,6.2625,6.4482,6.6116,6.4779,6.2216,5.8613,5.7026,5.6097,5.5726,5.6134,5.7026,0.0,0.0,0.0,0.0,0.0,0.0,0.0,0.0,0.0,0.0,0.0,5.3715,5.3188,5.3015,0.0,0.0,0.0,0.0,0.0,5.3349,5.5473,5.7859,6.1553,6.3057,6.3635,6.3736,6.3905,6.3778,6.2887,6.368,6.5175,6.7234,6.9477,7.2477,7.6923,8.0541,8.3451,8.5243,8.6528,8.7434,8.7921,8.8037,8.8084,8.8084,8.8084,8.8084,8.8084,8.8084,8.8084,8.8084,8.8084,8.8084,8.8084,8.8084,8.8084,8.8084,8.8084,8.8084,8.8084,8.8084,8.8084,8.8121,8.8938,8.9533,8.9979,9.0796,9.1613,9.2393,9.2393,9.2653,9.2988,9.2988,9.2988,9.2988,9.2988,9.2988,9.2988,0.0,0.0,0.0,0.0,0.0,0.0,0.0,0.0,0.0,0.0,0.0,0.0,0.0,0.0,0.0,0.0,0.0,0.0,0.0,5.371,5.4156,5.4973,5.6013,5.6347,5.5865,5.8316,6.0359,6.203,6.3665,6.5336,6.6971,6.4668,6.1956,5.891,5.7286,5.658,5.658,5.658,5.7387,5.8576,0.0,0.0,0.0,0.0,0.0,0.0,0.0,0.0,0.0,0.0,0.0,0.0,0.0,0.0,0.0,5.1241,5.083,5.1088,5.3495,5.5709,5.8379,6.2584,6.4872,6.6262,6.6871,6.7871,6.847,6.7817,6.8528,6.9755,7.1356,7.3957,7.7251,8.146,8.3794,8.5423,8.6495,8.7338,8.7942,8.8068,8.8084,8.8084,8.8084,8.8084,8.8084,8.8084,8.8084,8.8084,8.8084,8.8084,8.8084,8.8084,8.8084,8.8084,8.8084,8.8084,8.8084,8.8084,8.8084,8.8084,8.8121,8.9124,8.9904,9.0573,9.1576,9.2393,9.2988,9.2988,9.2988,9.2988,9.2988,9.2988,9.2988,9.2988,9.2988,9.2988,0.0,0.0,0.0,0.0,0.0,0.0,0.0,0.0,0.0,0.0,0.0,0.0,0.0,0.0,0.0,0.0,0.0,0.0,0.0,5.3385,5.4156,5.4973,5.6533,5.7722,5.8427,6.0842,6.2922,6.4556,6.6191,6.6748,6.6153,6.4408,6.2253,5.9728,5.813,5.7398,5.7398,5.7398,5.7907,5.8613,5.7759,0.0,0.0,0.0,0.0,0.0,0.0,0.0,0.0,0.0,0.0,0.0,0.0,0.0,5.1957,5.1594,5.1259,5.1536,5.3696,5.5458,5.766,6.1754,6.636,7.0376,7.2184,7.3931,7.5164,7.5299,7.4572,7.4454,7.6193,7.899,8.1793,8.4011,8.5537,8.6762,8.7593,8.7921,8.8084,8.8084,8.8084,8.8084,8.8084,8.8084,8.8084,8.8084,8.8084,8.8084,8.8084,8.8084,8.8084,8.8084,8.8084,8.8084,8.8084,8.8084,8.8084,8.8084,8.8084,8.8084,8.8158,8.9719,9.0462,9.0573,9.2208,9.2951,9.2988,9.2988,9.2988,9.2988,9.2988,9.2988,9.2988,9.2988,9.2988,9.2988,0.0,0.0,0.0,0.0,0.0,0.0,0.0,0.0,0.0,0.0,0.0,0.0,0.0,0.0,0.0,0.0,0.0,0.0,0.0,5.2865,5.3868,5.5726,5.6878,5.8353,6.0221,6.2142,6.3702,6.4816,6.6488,6.6896,6.6054,6.385,6.1808,5.9839,5.8205,5.7509,5.7509,5.7509,5.7945,5.8613,5.7833,5.7026,0.0,0.0,0.0,0.0,0.0,0.0,0.0,0.0,5.2905,5.3369,5.3077,5.2627,5.209,5.1845,5.1861,5.2351,5.4133,5.6082,5.8603,6.2567,6.7124,7.1093,7.2889,7.5658,7.7988,7.863,7.8833,7.9203,8.0276,8.2546,8.4508,8.5384,8.6537,8.7508,8.7937,8.8053,8.8084,8.8084,8.8084,8.8084,8.8084,8.8084,8.8084,8.8084,8.8084,8.8084,8.8084,8.8084,8.8084,8.8084,8.8084,8.8084,8.8084,8.8084,8.8084,8.8084,8.8084,8.8084,8.8158,8.9756,9.0499,9.0573,9.2282,9.2988,9.2988,9.2988,9.2988,9.2988,9.2988,9.2988,9.2988,9.2988,9.2988,9.2988,0.0,0.0,0.0,0.0,0.0,0.0,0.0,0.0,0.0,0.0,0.0,0.0,0.0,0.0,0.0,0.0,0.0,0.0,5.2122,5.2457,5.3571,5.58,5.6915,5.839,6.037,6.2513,6.4259,6.5596,6.7008,6.7008,6.5633,6.3442,6.1659,6.0248,5.8613,5.787,5.787,5.787,5.8205,5.865,5.8093,5.7249,0.0,0.0,0.0,0.0,0.0,0.0,0.0,0.0,5.2332,5.3071,5.2805,5.2554,5.2327,5.2305,5.247,5.3003,5.4717,5.6694,5.9173,6.2884,6.7163,7.1043,7.3447,7.721,8.0597,8.1925,8.2431,8.282,8.3508,8.4694,8.5799,8.6496,8.7327,8.7958,8.8068,8.8084,8.8084,8.8084,8.8084,8.8084,8.8084,8.8084,8.8084,8.8084,8.8084,8.8084,8.8084,8.8084,8.8084,8.8084,8.8084,8.8084,8.8084,8.8084,8.8084,8.8084,8.8084,8.8084,8.8158,8.9756,9.0499,9.0573,9.2282,9.2988,9.2988,9.2988,9.2988,9.2988,9.2988,9.2988,9.2988,9.2988,9.2988,9.2988,0.0,0.0,0.0,0.0,0.0,0.0,0.0,0.0,0.0,0.0,4.8979,0.0,0.0,0.0,0.0,0.0,0.0,0.0,5.1342,5.2159,5.3311,5.4936,5.6607,5.7881,5.8687,6.1919,6.4816,6.7268,6.8085,6.7193,6.4742,6.3145,6.1967,6.115,5.9467,5.8725,5.8725,5.8687,5.8687,5.8687,5.8687,5.7722,5.632,0.0,0.0,0.0,0.0,0.0,0.0,0.0,5.1093,5.2279,5.2123,5.2307,5.2667,5.3075,5.3078,5.3382,5.546,5.7148,5.9106,6.2418,6.6455,7.0587,7.4339,7.9187,8.3483,8.5658,8.539,8.5026,8.5688,8.5423,8.5715,8.7503,8.7974,8.8084,8.8084,8.8084,8.8084,8.8084,8.8084,8.8084,8.8084,8.8084,8.8084,8.8084,8.8084,8.8084,8.8084,8.8084,8.8084,8.8084,8.8084,8.8084,8.8084,8.8084,8.8084,8.8084,8.8084,8.8084,8.8158,8.9756,9.0499,9.0573,9.2282,9.2988,9.2988,9.2988,9.2988,9.2988,9.2988,9.2988,9.2988,9.2988,9.2988,9.2988,0.0,0.0,0.0,0.0,0.0,0.0,0.0,0.0,0.0,4.897,4.8907,0.0,0.0,0.0,0.0,0.0,0.0,0.0,5.1342,5.2159,5.3311,5.4936,5.606,5.7286,5.865,6.1362,6.3665,6.5559,6.5225,6.4408,6.307,6.203,6.1436,6.115,6.0025,5.9542,5.9505,5.8947,5.8687,5.8687,5.8687,5.7722,5.632,0.0,0.0,0.0,0.0,0.0,0.0,0.0,0.0,0.0,5.1895,5.1913,5.2,5.3134,5.4095,5.5317,5.7603,5.9464,6.1616,6.5274,6.7883,7.0623,7.4597,7.8622,8.2292,8.5023,8.5414,8.5255,8.5316,8.5757,8.6323,8.6852,8.7603,8.8084,8.8084,8.8084,8.8084,8.8084,8.8084,8.8084,8.8084,8.8084,8.8084,8.8084,8.8084,8.8084,8.8084,8.8084,8.8084,8.8084,8.8084,8.8084,8.8084,8.8084,8.8084,8.8084,8.8084,8.8084,8.8158,8.9756,9.0499,9.0573,9.2282,9.2988,9.2988,9.2988,9.2988,9.2988,9.2988,9.2988,9.2988,9.2988,9.2988,9.2988,0.0,0.0,0.0,0.0,0.0,0.0,4.824,4.867,4.8988,4.889,4.889,4.889,0.0,0.0,0.0,0.0,0.0,0.0,5.1788,5.2345,5.3311,5.4936,5.5827,5.7212,5.9133,6.0619,6.1733,6.2365,6.2885,6.2699,6.1919,6.1436,6.1187,6.115,6.0285,5.9728,5.9356,5.8539,5.8019,5.7759,5.8093,5.7239,5.5837,0.0,0.0,0.0,0.0,0.0,0.0,0.0,0.0,0.0,5.1106,5.1292,5.1843,5.3273,5.4713,5.6396,5.9033,6.1026,6.3247,6.6893,6.9011,7.1304,7.5586,7.9216,8.2291,8.4378,8.4904,8.5062,8.5187,8.5778,8.6295,8.6629,8.7464,8.8084,8.8084,8.8084,8.8084,8.8084,8.8084,8.8084,8.8084,8.8084,8.8084,8.8084,8.8084,8.8084,8.8084,8.8084,8.8084,8.8084,8.8084,8.8084,8.8084,8.8084,8.8084,8.8084,8.8084,8.8084,8.8158,8.9756,9.0499,9.0573,9.2282,9.2988,9.2988,9.2988,9.2988,9.2988,9.2988,9.2988,9.2988,9.2988,9.2988,9.2988,0.0,0.0,4.8117,4.7917,0.0,4.9059,4.8936,4.889,4.889,4.889,4.889,4.889,0.0,0.0,0.0,4.9921,5.0144,0.0,0.0,5.2642,5.3385,5.4936,5.5912,5.7472,5.9728,5.9802,5.9393,5.8576,6.099,6.177,6.1001,6.115,6.1261,6.1261,6.0396,5.9579,5.8762,5.7881,5.7063,5.6357,5.71,5.6422,5.5085,5.5874,0.0,0.0,0.0,0.0,0.0,0.0,0.0,0.0,5.006,5.0618,5.1866,5.3313,5.494,5.6879,5.9865,6.2005,6.4229,6.7727,6.9994,7.2524,7.6804,8.0229,8.2704,8.3444,8.3898,8.4361,8.4988,8.5303,8.5743,8.6561,8.7415,8.801,8.8084,8.8084,8.8084,8.8084,8.8084,8.8084,8.8084,8.8084,8.8084,8.8084,8.8084,8.8084,8.8084,8.8084,8.8084,8.8084,8.8084,8.8084,8.8084,8.8084,8.8084,8.8084,8.8084,8.8084,8.8158,8.9681,9.0462,9.0685,9.2282,9.2988,9.2988,9.2988,9.2988,9.2988,9.2988,9.2988,9.2988,9.2988,9.2988,9.2988,0.0,0.0,4.8857,4.8673,0.0,0.0,4.889,4.889,4.889,4.889,4.889,4.889,4.889,4.889,0.0,4.915,5.0376,0.0,0.0,5.2828,5.397,5.4973,5.6422,5.7769,5.8947,5.8947,5.8539,5.7759,5.9542,6.0025,5.9282,6.0593,6.1558,6.2105,6.1298,6.0433,5.9542,5.8093,5.7063,5.632,5.6506,5.5939,5.501,5.5196,5.4267,0.0,0.0,0.0,0.0,0.0,0.0,0.0,5.0498,5.0265,5.0362,5.2528,5.4756,5.7191,6.0381,6.3019,6.5742,6.904,7.1798,7.415,7.5878,7.7826,7.9668,8.111,8.1985,8.2549,8.269,8.3797,8.4926,8.5743,8.6561,8.7304,8.801,8.8084,8.8084,8.8084,8.8084,8.8084,8.8084,8.8084,8.8084,8.8084,8.8084,8.8084,8.8084,8.8084,8.8084,8.8084,8.8084,8.8084,8.8084,8.8084,8.8084,8.8084,8.8084,8.8084,8.8121,8.9124,9.0239,9.1502,9.2542,9.2988,9.2988,9.2988,9.2988,9.2988,9.2988,9.2988,9.2988,9.2988,9.2988,9.2988,0.0,0.0,0.0,0.0,0.0,0.0,0.0,0.0,4.889,4.889,4.889,4.889,4.889,4.889,0.0,0.0,5.0256,5.1119,0.0,5.2754,5.3943,5.553,5.7202,5.8279,5.8687,5.8316,5.7907,5.7509,5.8725,5.9096,5.8762,6.0805,6.1993,6.2365,6.1967,6.0842,5.9207,5.761,5.6209,5.5131,5.553,5.4936,5.3896,5.4267,5.3413,5.2085,5.2494,0.0,0.0,0.0,0.0,0.0,0.0,0.0,4.9858,5.1846,5.4184,5.6816,6.0042,6.2867,6.5765,6.9545,7.222,7.4259,7.5514,7.6804,7.8067,7.9293,8.0854,8.2006,8.2006,8.3343,8.4666,8.5483,8.6264,8.7081,8.7973,8.8084,8.8084,8.8084,8.8084,8.8084,8.8084,8.8084,8.8084,8.8084,8.8084,8.8084,8.8084,8.8084,8.8084,8.8084,8.8084,8.8084,8.8084,8.8084,8.8084,8.8084,8.8084,8.8084,8.8137,8.931,9.0536,9.1762,9.2616,9.2988,9.2988,9.2988,9.2988,9.2988,9.2988,9.2988,9.2988,9.2988,9.2988,9.2988,0.0,0.0,0.0,0.0,0.0,0.0,0.0,0.0,0.0,4.889,4.889,4.889,4.889,4.889,4.9187,0.0,0.0,0.0,5.2085,5.2568,5.3794,5.5986,5.7509,5.8279,5.8279,5.7621,5.7202,5.7063,5.8167,5.8762,5.8947,6.1585,6.2885,6.3033,6.2736,6.1213,5.8799,5.7063,5.5317,5.3859,5.4527,5.4007,5.2865,5.3385,5.2605,5.1193,5.1342,5.1193,5.0981,5.1073,0.0,0.0,0.0,0.0,4.9654,5.102,5.3208,5.5886,5.8996,6.2278,6.5718,6.9556,7.1859,7.3645,7.5392,7.6358,7.7138,7.8104,8.0148,8.1783,8.1783,8.3121,8.4495,8.5446,8.6152,8.6932,8.7935,8.8084,8.8084,8.8084,8.8084,8.8084,8.8084,8.8084,8.8084,8.8084,8.8084,8.8084,8.8084,8.8084,8.8084,8.8084,8.8084,8.8084,8.8084,8.8084,8.8084,8.8084,8.8084,8.8174,8.8344,8.983,9.087,9.1539,9.2542,9.2988,9.2988,9.2988,9.2988,9.2988,9.2988,9.2988,9.2988,9.2988,9.2988,9.2988,0.0,0.0,0.0,0.0,0.0,0.0,0.0,0.0,0.0,0.0,4.889,4.889,4.889,4.889,4.8927,4.9039,4.9699,5.0182,5.0404,0.0,0.0,5.5122,5.6097,5.6617,5.6617,5.6506,5.6097,5.5345,5.7573,5.9059,5.9802,6.2996,6.4891,6.5522,6.4073,6.2068,5.9579,5.7276,5.5317,5.3831,5.3933,5.3822,5.3562,5.2977,5.1751,5.0376,5.1119,5.0488,4.9412,5.0666,5.0572,0.0,0.0,0.0,4.8673,4.9618,5.1691,5.427,5.691,6.2162,6.7356,6.9348,7.1094,7.2939,7.528,7.5912,7.6432,7.7993,7.9665,8.0891,8.0891,8.2229,8.3849,8.5372,8.5669,8.6301,8.7861,8.8084,8.8084,8.8084,8.8084,8.8084,8.8084,8.8084,8.8084,8.8084,8.8084,8.8084,8.8084,8.8084,8.8084,8.8084,8.8084,8.8084,8.8084,8.8084,8.8084,8.8084,8.8084,8.8455,8.9161,9.009,9.0573,9.0759,9.2319,9.2988,9.2988,9.2988,9.2988,9.2988,9.2988,9.2988,9.2988,9.2988,9.2988,9.2988,0.0,0.0,0.0,0.0,0.0,0.0,0.0,0.0,0.0,0.0,0.0,4.889,4.889,4.889,4.889,4.889,4.9216,4.9633,5.0116,5.2457,0.0,5.4304,5.5567,5.632,5.632,5.5837,5.5605,5.5726,5.7722,5.9802,6.2068,6.5782,6.7045,6.6079,6.5336,6.3368,6.047,5.8019,5.5986,5.4453,5.4453,5.4193,5.3831,5.3896,5.293,5.1491,5.1416,5.0599,4.9635,5.0176,4.9824,4.9215,4.9532,0.0,0.0,0.0,5.0375,5.2183,5.6646,6.1433,6.5749,6.837,7.0239,7.2221,7.5132,7.5801,7.6395,7.855,7.9888,8.0691,8.0691,8.208,8.3752,8.5335,8.5595,8.6189,8.7877,8.8084,8.8084,8.8084,8.8084,8.8084,8.8084,8.8084,8.8084,8.8084,8.8084,8.8084,8.8084,8.8084,8.8084,8.8084,8.8084,8.8084,8.8084,8.8084,8.8307,8.8753,8.8753,8.9198,8.9979,9.0796,9.1167,9.1242,9.2468,9.2988,9.2988,9.2988,9.2988,9.2988,9.2988,9.2988,9.2988,9.2988,9.2988,9.2988,0.0,0.0,0.0,0.0,0.0,0.0,0.0,0.0,0.0,0.0,0.0,4.889,4.889,0.0,0.0,0.0,4.889,4.9262,5.0116,0.0,0.0,0.0,5.4909,5.5652,5.5652,5.501,5.501,5.5652,5.7509,5.995,6.307,6.7193,6.8345,6.7008,6.7008,6.5188,6.1919,5.9245,5.7127,5.5642,5.5865,5.5716,5.5456,5.6273,5.5567,5.4054,5.3237,5.2011,5.0721,5.0509,4.9778,4.8993,4.9477,4.8472,0.0,0.0,0.0,5.1002,5.6309,6.0193,6.3613,6.6985,6.9212,7.1465,7.4747,7.5652,7.6507,7.8996,8.0148,8.0765,8.1003,8.2377,8.3975,8.5372,8.5781,8.6412,8.7914,8.8084,8.8084,8.8084,8.8084,8.8084,8.8084,8.8084,8.8084,8.8084,8.8084,8.8084,8.8084,8.8084,8.8084,8.8084,8.8084,8.8084,8.8084,8.8307,8.879,8.9607,8.9607,9.0016,9.0833,9.1428,9.1836,9.2059,9.2728,9.2988,9.2988,9.2988,9.2988,9.2988,9.2988,9.2988,9.2988,9.2988,9.2988,9.2988,0.0,0.0,0.0,0.0,0.0,0.0,0.0,0.0,0.0,0.0,0.0,4.889,4.889,4.889,4.889,4.889,4.889,4.9262,5.0033,5.1008,0.0,0.0,5.3497,0.0,5.3933,5.3896,5.3859,5.3933,5.6357,5.8836,6.141,6.5522,6.8159,6.9496,6.9496,6.7676,6.4408,6.1139,5.8836,5.7435,5.8205,5.8947,5.969,6.0555,5.985,5.8279,5.7472,5.5169,5.2438,5.2307,5.1175,4.9824,4.9701,4.8483,4.7113,0.0,0.0,0.0,5.4996,5.8463,6.1934,6.5221,6.7901,7.0611,7.3906,7.5243,7.6507,7.8996,8.0148,8.0951,8.1783,8.3269,8.4592,8.5446,8.6226,8.7044,8.7973,8.8084,8.8084,8.8084,8.8084,8.8084,8.8084,8.8084,8.8084,8.8084,8.8084,8.8084,8.8084,8.8084,8.8084,8.8084,8.8084,8.8084,8.8084,8.8864,8.9644,9.0424,9.0424,9.087,9.165,9.1688,9.2133,9.2914,9.2988,9.2988,9.2988,9.2988,9.2988,9.2988,9.2988,9.2988,9.2988,9.2988,9.2988,9.2988,0.0,0.0,0.0,0.0,0.0,0.0,0.0,0.0,0.0,0.0,0.0,0.0,0.0,4.9707,4.9707,4.9661,4.9187,4.9039,4.929,5.0636,0.0,0.0,5.3079,5.3784,5.3784,5.3784,5.3784,5.3784,5.6273,5.8772,6.1298,6.5373,6.8159,6.9719,7.0239,6.8976,6.6265,6.3999,6.2105,6.073,6.151,6.2328,6.3182,6.4593,6.4742,6.4036,6.2662,6.0433,5.786,5.6135,5.4071,5.1994,5.0853,4.8934,4.7003,4.6461,4.771,4.9843,5.2655,5.5871,5.9243,6.2563,6.6111,6.9644,7.2958,7.5213,7.7324,7.9776,8.0928,8.1969,8.3306,8.4012,8.4666,8.5483,8.6264,8.7081,8.7973,8.8084,8.8084,8.8084,8.8084,8.8084,8.8084,8.8084,8.8084,8.8084,8.8084,8.8084,8.8084,8.8084,8.8084,8.8084,8.8084,8.836,8.8864,8.9681,9.0462,9.1279,9.1279,9.1725,9.2542,9.2542,9.2691,9.2988,9.2988,9.2988,9.2988,9.2988,9.2988,9.2988,9.2988,9.2988,9.2988,9.2988,9.2988,9.2988,0.0,0.0,0.0,4.9745,0.0,4.9633,4.9327,4.9559,4.9633,4.9327,0.0,0.0,0.0,0.0,5.0562,5.0525,4.9819,4.9336,4.9299,5.0636,5.1416,5.1416,5.294,5.3784,5.3784,5.3784,5.3784,5.3784,5.5716,5.7796,6.0035,6.359,6.6116,6.7713,6.9088,6.8791,6.7193,6.5819,6.4296,6.2959,6.4593,6.5893,6.7082,6.9323,7.014,6.9992,6.858,6.6339,6.3665,6.1111,5.8381,5.5611,5.332,5.026,4.7342,4.6535,4.7232,4.883,5.138,5.4091,5.6981,6.0294,6.3919,6.7568,7.1137,7.3959,7.6638,7.9688,8.1226,8.2489,8.4124,8.4852,8.5372,8.5929,8.6709,8.7452,8.8025,8.8084,8.8084,8.8084,8.8084,8.8084,8.8084,8.8084,8.8084,8.8084,8.8084,8.8084,8.8084,8.8084,8.8195,8.8493,8.8493,8.9013,9.009,9.0647,9.1316,9.2133,9.2133,9.2431,9.2988,9.2988,9.2988,9.2988,9.2988,9.2988,9.2988,9.2988,9.2988,9.2988,9.2988,9.2988,9.2988,9.2988,9.2988,9.2988,5.0144,5.0822,5.1416,5.1416,5.1416,5.1119,5.0256,5.0859,5.1119,5.0256,0.0,0.0,0.0,0.0,0.0,5.1454,5.0711,5.0228,5.0144,5.0933,5.1454,5.1454,5.2977,5.3822,5.3822,5.3822,5.3822,5.3822,5.4602,5.5865,5.7499,5.9998,6.1956,6.359,6.6042,6.7119,6.7045,6.6413,6.5225,6.4036,6.7305,6.9608,7.1391,7.4673,7.5949,7.5875,7.5095,7.2741,6.9608,6.7156,6.409,6.0641,5.708,5.2501,4.826,4.7406,4.7746,4.8857,0.0,0.0,0.0,5.8484,6.1278,6.4326,6.8444,7.1409,7.4452,7.8634,8.0891,8.2563,8.4161,8.5743,8.6821,8.6821,8.7527,8.8084,8.8084,8.8084,8.8084,8.8084,8.8084,8.8084,8.8084,8.8084,8.8084,8.8084,8.8084,8.8084,8.8084,8.8084,8.8455,8.9273,8.931,9.009,9.1688,9.1725,9.2171,9.2988,9.2988,9.2988,9.2988,9.2988,9.2988,9.2988,9.2988,9.2988,9.2988,9.2988,9.2988,9.2988,9.2988,9.2988,9.2988,9.2988,9.2988,9.2988,5.0933,5.1231,5.1416,5.1416,5.1416,5.1305,5.1082,5.1268,5.1305,0.0,0.0,0.0,5.3162,5.3683,5.3534,5.2382,5.2048,5.1676,5.1082,5.1825,5.2271,5.2271,5.3831,5.4676,5.4676,5.4676,5.4676,5.4676,5.4899,5.5567,5.6655,5.8539,5.995,6.099,6.229,6.255,6.2216,6.6153,6.7565,6.7379,7.0103,7.2494,7.4747,7.7473,7.9219,8.0259,8.0036,7.8587,7.6307,7.3261,6.9928,6.5669,5.8116,5.3545,5.0692,4.9307,4.9087,4.9637,5.151,0.0,0.0,0.0,0.0,0.0,6.6063,7.1011,7.5786,7.8857,8.1783,8.4235,8.5855,8.6486,8.7007,8.7638,8.7935,8.8084,8.8084,8.8084,8.8084,8.8084,8.8084,8.8084,8.8084,8.8084,8.8084,8.8084,8.8084,8.8084,8.8084,8.8084,8.8455,8.9273,8.9867,9.0647,9.1688,9.2319,9.2765,9.2988,9.2988,9.2988,9.2988,9.2988,9.2988,9.2988,9.2855,9.2768,9.2768,9.2938,9.2988,9.2988,9.2988,9.2988,9.2988,9.2988,9.2988,9.2988,5.2234,5.2679,5.3014,5.3385,5.346,5.3311,5.2977,5.32,5.346,0.0,0.0,0.0,5.6793,5.6979,5.6533,5.528,5.4537,5.3645,5.2494,5.2828,5.294,5.2605,5.4119,5.501,5.501,5.5345,5.5345,5.501,5.501,5.5085,5.527,5.657,5.7425,5.7907,5.9133,5.9521,5.9626,6.4051,6.6339,6.7305,7.1156,7.4351,7.7213,8.032,8.2563,8.4035,8.4331,8.3336,8.1503,7.8465,7.3572,6.7611,6.1187,5.7014,5.4252,5.2978,5.2134,5.195,5.3555,5.3849,5.4179,5.6124,0.0,0.0,6.4377,6.8895,7.3437,7.7126,8.0234,8.2772,8.448,8.5075,8.5558,8.6412,8.6561,8.6895,8.7951,8.7787,8.7564,8.7564,8.7564,8.7564,8.7564,8.7914,8.8084,8.8084,8.8084,8.8084,8.8084,8.8418,8.8976,8.9793,9.0573,9.139,9.2245,9.2662,9.2888,9.2872,9.2805,9.2734,9.2734,9.2734,9.2734,9.2734,9.2616,9.2582,9.2582,9.2684,9.2734,9.2734,9.2734,9.2734,9.2734,9.2734,9.2734,9.2734,0.0,5.4602,5.5419,5.6283,5.6432,5.6209,5.553,5.6125,5.6692,0.0,5.8205,5.9876,6.1558,6.0953,6.0099,5.917,5.7621,5.5949,5.4193,5.397,5.3571,5.2791,5.4267,5.5122,5.5122,5.5976,5.6023,5.5122,5.5047,5.4602,5.3822,5.4527,5.4862,5.4936,5.6422,5.7474,5.827,6.0862,6.3048,6.5264,7.118,7.5615,7.9145,8.3158,8.5669,8.7177,8.7821,8.7164,8.5503,8.2622,7.5955,6.8391,6.5702,6.212,5.8731,5.7666,5.6308,5.55,5.6847,5.6161,5.5574,5.7629,5.8253,0.0,6.3137,6.6108,6.9405,7.4195,7.7236,7.9525,8.1228,8.2222,8.2987,8.3693,8.3953,8.4933,8.7452,8.7155,8.6672,8.6672,8.6672,8.6709,8.6784,8.749,8.801,8.8084,8.8068,8.8053,8.8037,8.8817,8.9634,9.0413,9.1214,9.2068,9.2938,9.2771,9.2667,9.265,9.2496,9.2409,9.2409,9.2409,9.2409,9.2409,9.2392,9.2392,9.2338,9.232,9.2375,9.2409,9.2409,9.2409,9.2409,9.2409,9.2409,9.2409,5.4602,5.5456,5.631,5.7127,5.7286,5.7425,5.7907,5.865,5.9207,5.9207,6.1213,6.3293,6.4965,6.4371,6.3256,6.1808,6.0173,5.8242,5.5949,5.5159,5.4416,5.3608,5.5159,5.606,5.606,5.684,5.6878,5.606,5.5345,5.4602,5.3784,5.397,5.4044,5.4044,5.4379,5.4914,5.5741,5.8217,6.1274,6.5052,7.1698,7.7138,8.1634,8.5038,8.7341,8.8886,8.951,8.9535,8.8634,8.4594,7.9455,7.4071,7.0156,6.7053,6.4273,6.1484,6.0419,6.0126,5.9795,5.9465,5.9208,5.9013,5.9942,0.0,6.2082,6.5716,6.9563,7.2025,7.4987,7.7441,7.852,7.9372,7.9949,8.0097,8.1207,8.3,8.5713,8.5929,8.5818,8.5818,8.5818,8.6078,8.6747,8.6932,8.7341,8.8062,8.7958,8.7778,8.7612,8.8409,8.9259,9.0073,9.0886,9.17,9.2513,9.2479,9.2461,9.2461,9.2427,9.2409,9.2409,9.2409,9.2409,9.2409,9.2215,9.2145,9.2145,9.1984,9.2109,9.2409,9.2409,9.2409,9.2409,9.2409,9.2409,9.2409,5.5493,5.631,5.7276,5.8502,5.9059,5.9616,6.0433,6.1585,6.2513,6.2922,6.5868,6.8357,6.962,6.936,6.8283,6.6228,6.4556,6.2216,5.8958,5.7945,5.6719,5.5131,5.6246,5.6915,5.6915,5.7695,5.7509,5.632,5.5865,5.502,5.3784,5.3784,5.4007,5.4416,5.4862,5.5626,5.6768,5.9708,6.318,6.7144,7.1952,7.6843,8.1703,8.577,8.8329,8.9892,9.0812,9.031,8.8659,8.5287,8.1176,7.6985,7.403,7.1174,6.8554,6.6916,6.5595,6.4653,6.464,6.3747,6.2756,6.2352,6.2205,0.0,0.0,6.4498,6.6596,6.8791,7.0528,7.1958,7.2838,7.3702,7.4552,7.5314,7.646,7.8181,8.0756,8.2512,8.3549,8.3549,8.392,8.4475,8.5275,8.5719,8.6127,8.6571,8.6862,8.7004,8.6923,8.8494,8.9602,9.0009,9.1154,9.2003,9.2409,9.2285,9.2233,9.2233,9.2145,9.2091,9.2091,9.2091,9.2091,9.2091,9.2002,9.1948,9.1948,9.184,9.193,9.2091,9.2091,9.2091,9.2091,9.2091,9.2091,9.2091,5.6172,5.7063,5.8242,5.9876,6.073,6.1585,6.2699,6.4222,6.5856,6.754,7.0896,7.346,7.4277,7.4351,7.3423,7.1094,6.9125,6.6376,6.2625,6.1102,5.9356,5.71,5.7472,5.7722,5.7722,5.8205,5.7759,5.632,5.6115,5.5251,5.3793,5.3941,5.4424,5.5251,5.6459,5.7746,5.9206,6.2438,6.5841,6.9336,7.2371,7.6625,8.1674,8.6265,8.9004,9.0546,9.1699,9.0532,8.8096,8.582,8.259,7.9213,7.7378,7.4918,7.2591,7.2114,7.0513,6.8949,6.9449,6.7931,6.6182,6.6022,6.4738,6.3563,0.0,0.0,0.0,6.5358,6.5985,6.6379,6.6972,6.7933,6.9028,7.0357,7.1488,7.289,7.4846,7.7526,7.9659,8.068,8.1507,8.2379,8.3324,8.4432,8.508,8.5048,8.5824,8.625,8.6218,8.8542,8.989,8.989,9.1456,9.2268,9.2268,9.2109,9.2038,9.2038,9.1876,9.1803,9.1803,9.1803,9.1803,9.1803,9.1803,9.1803,9.1803,9.1803,9.1803,9.1803,9.1803,9.1803,9.1803,9.1803,9.1803,9.1803,5.6283,5.7499,5.9096,6.0778,6.115,6.1956,6.4185,6.5931,6.8617,7.3051,7.5318,7.6841,7.7658,7.7733,7.7027,7.528,7.2282,6.9385,6.6785,6.3776,6.1325,5.9579,5.891,5.8539,5.8539,5.7945,5.7212,5.632,5.5478,5.4613,5.3723,5.4427,5.5215,5.6088,5.8433,6.0266,6.1742,6.4278,6.6736,6.927,7.3349,7.8396,8.3909,8.7362,8.969,9.1191,9.1868,9.09,8.8996,8.7308,8.4996,8.2427,8.0094,7.8626,7.7341,7.5124,7.378,7.2863,7.2275,7.0844,6.9376,6.8678,6.7283,6.5521,6.3417,0.0,6.3625,6.2426,0.0,6.4201,6.3504,0.0,0.0,6.6014,6.7924,6.9467,6.9724,7.0716,7.3072,7.7673,7.8958,8.0103,8.164,8.3767,8.5032,8.494,8.5681,8.6056,8.5868,8.8148,8.9471,8.9471,9.1013,9.1876,9.1876,9.1858,9.184,9.184,9.1822,9.1803,9.1803,9.1803,9.1803,9.1803,9.1803,9.1803,9.1803,9.1803,9.1803,9.1803,9.1803,9.1803,9.1803,9.1803,9.1803,9.1803,5.6253,5.7621,5.9245,6.0916,6.1596,6.2699,6.5188,6.8543,7.2419,7.6878,7.933,8.0965,8.1746,8.266,8.2549,8.0928,7.8685,7.5899,7.2444,6.962,6.6722,6.3628,6.2253,6.1102,6.0173,5.8873,5.7553,5.6166,5.5327,5.4452,5.3588,5.4428,5.5463,5.6842,6.0267,6.2627,6.4242,6.8591,7.1195,7.2753,7.6903,8.0861,8.4584,8.702,8.9418,9.1596,9.1856,9.1141,8.984,8.8243,8.6407,8.4389,8.1929,8.0645,7.969,7.8185,7.6827,7.5711,7.538,7.378,7.1872,7.061,6.8371,6.6109,6.4591,6.3062,6.1887,6.163,0.0,0.0,0.0,0.0,0.0,0.0,6.4701,6.5692,6.6683,6.6696,6.8475,7.3454,7.5176,7.698,7.9578,8.1566,8.2491,8.1985,8.3108,8.3994,8.4389,8.7142,8.8923,8.94,9.0959,9.1803,9.1803,9.1803,9.1803,9.1803,9.1803,9.1803,9.1803,9.1803,9.1803,9.1803,9.1803,9.1803,9.1803,9.1803,9.1803,9.1803,9.1803,9.1803,9.1803,9.1803,9.1803,9.1803,5.6444,5.7639,5.9165,6.0836,6.1648,6.3293,6.6859,7.1403,7.5875,7.9999,8.286,8.4837,8.5556,8.7115,8.747,8.6051,8.4264,8.177,7.8318,7.5439,7.2233,6.858,6.6413,6.4408,6.2599,6.0449,5.8503,5.6761,5.569,5.4804,5.4142,5.4933,5.6187,5.7932,6.2273,6.5275,6.7408,7.2695,7.5441,7.6533,7.9947,8.303,8.58,8.7554,8.9688,9.1803,9.1803,9.1289,9.0408,8.9014,8.7472,8.5783,8.3801,8.2627,8.1782,8.0755,7.9433,7.828,7.806,7.6203,7.3964,7.2371,6.9559,6.6769,6.5301,6.3135,6.1447,6.1569,6.1484,0.0,0.0,0.0,6.2108,6.2719,0.0,6.2903,6.4127,6.3576,6.4714,6.9142,7.1468,7.3891,7.6974,7.8699,7.9617,7.9486,8.0938,8.2333,8.3344,8.6261,8.8353,8.9363,9.0739,9.1583,9.1803,9.1803,9.1803,9.1803,9.1803,9.1803,9.1803,9.1803,9.1803,9.1803,9.1803,9.1803,9.1803,9.1803,9.1803,9.1803,9.1803,9.1803,9.1803,9.1803,9.1803,9.1803,5.689,5.7739,5.9048,6.0726,6.1148,6.3368,6.9794,7.4301,7.8439,8.2563,8.5944,8.817,8.8794,9.028,9.0842,8.9807,8.7739,8.5725,8.3932,8.0219,7.699,7.4426,7.1218,6.8382,6.6005,6.2635,6.0085,5.8407,5.6641,5.5748,5.5738,5.6558,5.7785,5.9527,6.4561,6.8459,7.1591,7.5728,7.8339,7.9779,8.1505,8.4535,8.8243,8.9895,9.1033,9.1803,9.1803,9.1289,9.0464,8.9657,8.8299,8.6811,8.593,8.5123,8.4168,8.259,8.1525,8.0718,7.9926,7.7892,7.5652,7.4001,7.1211,6.8017,6.4874,6.4066,6.3552,6.1936,6.2891,6.3723,6.2866,6.2756,6.2756,6.2793,6.2144,0.0,0.0,6.1043,6.1765,6.5105,6.8274,7.1174,7.3611,7.5322,7.6937,7.8516,8.0131,8.1746,8.3308,8.5693,8.7748,8.9363,9.0207,9.1033,9.1803,9.1803,9.1803,9.1803,9.1803,9.1803,9.1803,9.1803,9.1803,9.1803,9.1803,9.1803,9.1803,9.1803,9.1803,9.1803,9.1803,9.1803,9.1803,9.1803,9.1803,9.1803,5.7996,5.8714,5.9578,6.0556,6.1634,6.4758,7.1824,7.655,8.1029,8.5649,8.9209,9.1771,9.2906,9.4342,9.5033,9.4576,9.2861,9.0888,8.8659,8.5424,8.2243,7.9231,7.6074,7.3239,7.0792,6.6987,6.3928,6.1687,5.9326,5.7607,5.6474,5.7282,5.8238,5.9524,6.4988,6.9205,7.2531,7.8226,8.1537,8.3214,8.5894,8.8096,8.9858,9.0408,9.1106,9.1803,9.1803,9.162,9.1253,9.0464,8.984,8.916,8.7802,8.6848,8.5967,8.4903,8.3654,8.2537,8.226,8.0388,7.8148,7.6481,7.2863,6.9265,6.765,6.6035,6.4897,6.4861,6.5718,6.6379,6.6109,6.5595,6.5081,6.4554,6.2842,6.141,0.0,5.9648,5.9428,6.1068,6.5081,6.8678,7.1064,7.2275,7.3597,7.5212,7.6864,7.8699,8.0901,8.3801,8.6407,8.8536,8.9895,9.0996,9.1803,9.1803,9.1803,9.1803,9.1803,9.1803,9.1803,9.1803,9.1803,9.1803,9.1803,9.1803,9.1803,9.1803,9.1803,9.1803,9.1803,9.1803,9.1803,9.1803,9.1803,9.1803,5.9174,6.0019,6.0857,6.1178,6.3745,6.7857,7.4154,7.9,8.3777,8.8873,9.2525,9.5124,9.6434,9.7857,9.844,9.7777,9.6492,9.4716,9.2353,8.9963,8.7208,8.4014,8.1492,7.8625,7.5245,7.1484,6.7996,6.4943,6.2033,5.9903,5.851,5.8437,5.9024,6.026,6.5118,6.9389,7.334,7.9543,8.3471,8.571,8.8629,9.0134,9.0629,9.0922,9.1363,9.1803,9.1803,9.1803,9.173,9.1216,9.0849,9.0408,8.9381,8.8316,8.7288,8.6444,8.5306,8.4205,8.3895,8.248,8.0608,7.8662,7.5175,7.1872,7.0477,6.8738,6.7564,6.8091,6.8605,6.8972,6.8972,6.7871,6.6659,6.5852,6.3392,6.1117,0.0,5.8657,5.829,5.9086,6.2511,6.5595,6.7774,6.9192,7.0807,7.2716,7.4588,7.6864,7.9669,8.259,8.5416,8.8096,8.9491,9.0702,9.1803,9.1803,9.1803,9.1803,9.1803,9.1803,9.1803,9.1803,9.1803,9.1803,9.1803,9.1803,9.1803,9.1803,9.1803,9.1803,9.1803,9.1803,9.1803,9.1803,9.1803,9.1803,6.0453,6.1788,6.2933,6.2921,6.7338,7.2367,7.6793,8.155,8.6614,9.2064,9.563,9.8152,9.9289,10.0599,10.0912,9.9432,9.8496,9.7128,9.5021,9.37,9.1712,8.875,8.7281,8.4283,7.9473,7.5978,7.2253,6.8204,6.4716,6.2536,6.1569,6.0003,6.0077,6.1679,6.5007,6.9192,7.4074,7.9764,8.4132,8.7381,8.9711,9.0665,9.0739,9.151,9.1803,9.1803,9.1803,9.1803,9.1803,9.1803,9.1289,9.0665,9.0665,8.9564,8.8096,8.7344,8.6518,8.5673,8.4939,8.4115,8.2957,8.0608,7.8148,7.5726,7.334,7.2188,7.16,7.1564,7.1527,7.1527,7.149,6.9522,6.759,6.6696,6.3723,6.0713,5.84,5.8033,5.829,5.9086,6.0566,6.2144,6.3809,6.6122,6.8495,7.0866,7.3289,7.6093,7.9376,8.1929,8.4739,8.7986,8.8923,9.017,9.1767,9.1803,9.1803,9.1803,9.1803,9.1803,9.1803,9.1803,9.1803,9.1803,9.1803,9.1803,9.1803,9.1803,9.1803,9.1803,9.1803,9.1803,9.1803,9.1803,9.1803,9.1803,6.2824,6.5445,6.8134,6.9725,7.1798,7.4749,7.9226,8.3807,8.8507,9.3271,9.6953,9.9535,10.0509,10.191,10.2295,10.122,9.9953,9.8662,9.7316,9.5616,9.3781,9.1806,9.0532,8.8143,8.4489,8.0768,7.6683,7.2194,6.8188,6.4634,6.1569,6.0566,6.0297,6.0896,6.4751,6.9192,7.4074,7.9764,8.5086,8.9784,9.0996,9.1473,9.151,9.173,9.1803,9.1803,9.1803,9.1803,9.1803,9.1803,9.1657,9.1473,9.1473,9.0408,8.9033,8.8849,8.7785,8.6664,8.6427,8.582,8.4903,8.3654,8.1525,7.9286,7.7451,7.6371,7.5601,7.4992,7.4882,7.4698,7.4096,7.2004,6.9743,6.7737,6.3613,6.0272,5.9049,5.84,5.829,5.9086,5.9563,6.0456,6.2071,6.3919,6.5791,6.7614,6.9963,7.2753,7.5983,7.9653,8.3104,8.6297,8.8335,9.017,9.1767,9.1803,9.1803,9.1803,9.1803,9.1803,9.1803,9.1803,9.1803,9.1803,9.1803,9.1803,9.1803,9.1803,9.1803,9.1803,9.1803,9.1803,9.1803,9.1803,9.1803,9.1803,6.5444,6.9108,7.2991,7.5448,7.7579,7.97,8.1907,8.6086,9.0612,9.5145,9.8537,10.0896,10.191,10.2894,10.3127,10.1807,10.0875,9.9993,9.8918,9.7938,9.6631,9.4876,9.3944,9.1783,8.8223,8.4427,8.0024,7.5013,7.0587,6.6462,6.2671,6.1117,6.0603,6.1043,6.409,6.8128,7.3156,8.0608,8.6407,9.0665,9.1473,9.1803,0.0,9.1803,9.1803,9.1803,9.1803,9.1803,9.1803,9.1803,9.1803,9.1803,9.1803,9.0959,8.9913,8.9913,8.8776,8.7509,8.7509,8.6958,8.6114,8.5343,8.3838,8.226,8.1012,8.0057,7.9197,7.8405,7.7965,7.7231,7.5726,7.3435,7.0697,6.721,6.3723,6.1178,6.037,5.9575,5.9208,5.9673,6.004,6.0334,6.0529,6.2365,6.4053,6.5338,6.8017,7.0991,7.4221,7.7928,8.1599,8.5159,8.7619,8.9674,9.1253,9.162,9.1803,9.1803,9.1803,9.1803,9.1803,9.1803,9.1803,9.1803,9.1803,9.1803,9.1803,9.1803,9.1803,9.1803,9.1803,9.1803,9.1803,9.1803,9.1803,9.1803,6.8873,7.3122,7.7484,8.0265,8.3566,8.5728,8.5396,8.8748,9.2884,9.7225,10.0006,10.2012,10.311,10.37,10.3514,10.2106,10.1708,10.1112,9.9984,10.0099,9.9395,9.7678,9.7101,9.4991,9.1103,8.7341,8.2685,7.7113,7.2383,6.7982,6.3991,6.1545,6.0786,6.152,6.3442,6.7283,7.2995,8.2003,8.7582,9.0519,9.1436,9.1803,9.1803,9.1803,9.1803,9.1803,9.1803,9.1803,9.1803,9.1803,9.1803,9.1803,9.1803,9.1253,9.0592,9.0592,8.9528,8.8353,8.8353,8.7766,8.6995,8.6297,8.5527,8.4719,8.3895,8.3177,8.2406,8.1489,8.0681,7.9376,7.6864,7.4184,7.0903,6.6499,6.4371,6.3013,6.2181,6.1374,6.086,6.075,6.1153,0.0,5.949,6.1361,6.2952,6.3735,6.6659,6.9889,7.3193,7.657,8.0277,8.4315,8.6885,8.8977,9.0592,9.14,9.1803,9.1803,9.1803,9.1803,9.1803,9.1803,9.1803,9.1803,9.1803,9.1803,9.1803,9.1803,9.1803,9.1803,9.1803,9.1803,9.1803,9.1803,9.1803,9.1803,7.5085,7.8359,8.1503,8.3898,8.7023,8.9814,9.159,9.3079,9.5139,9.8259,10.0405,10.1999,10.3104,10.3898,10.3998,10.3094,10.2607,10.1917,10.0903,10.062,10.0102,9.9167,9.874,9.7024,9.3701,9.0022,8.5223,7.9245,7.3958,6.8801,6.38,6.1496,6.0493,6.075,6.3759,7.0,7.8641,8.3671,8.7288,8.973,9.1216,9.1803,9.1803,9.1803,9.1803,9.1803,9.1803,9.1803,9.1803,9.1803,9.1803,9.1803,9.1803,9.1253,9.0592,9.0592,8.9913,8.9179,8.9179,8.8592,8.7949,8.7802,8.7178,8.6371,8.5563,8.527,8.4756,8.3271,8.2333,8.1048,7.8589,7.4515,7.0793,6.8628,6.6916,6.5558,6.4787,6.3943,6.3172,6.2462,6.1337,6.0493,6.0224,6.119,6.1851,6.2047,6.4457,6.7637,7.149,7.5417,7.9417,8.3491,8.6591,8.8977,9.0592,9.14,9.1803,9.1803,9.1803,9.1803,9.1803,9.1803,9.1803,9.1803,9.1803,9.1803,9.1803,9.1803,9.1803,9.1803,9.1803,9.1803,9.1803,9.1803,9.1803,9.1803,7.9638,8.2604,8.5432,8.7708,9.0841,9.3829,9.6088,9.7559,9.8821,9.9975,10.1319,10.2514,10.3288,10.372,10.3786,10.321,10.3115,10.2717,10.2005,10.2016,10.1602,10.071,9.9784,9.8063,9.5624,9.19,8.7108,8.1128,7.6165,7.0791,6.516,6.2768,6.1655,6.1875,6.683,7.3046,8.0073,8.4112,8.7178,8.9546,9.1143,9.1803,9.1803,9.1803,9.1803,9.1803,9.1803,9.1803,9.1803,9.1803,9.1803,9.1803,9.1803,9.1546,9.1216,9.1216,9.0665,9.0024,9.0024,8.9436,8.8702,8.8316,8.7912,8.7399,8.6628,8.6407,8.6077,8.4903,8.3985,8.2296,7.861,7.5307,7.2481,7.0463,6.9472,6.8554,6.7343,6.6843,6.5962,6.4297,6.3417,6.2279,6.0566,6.075,6.0786,6.037,6.3025,6.6072,6.9265,7.3619,7.7913,8.2023,8.5673,8.8353,8.995,9.1179,9.1803,9.1803,9.1803,9.1803,9.1803,9.1803,9.1803,9.1803,9.1803,9.1803,9.1803,9.1803,9.1803,9.1803,9.1803,9.1803,9.1803,9.1803,9.1803,9.1803,8.3742,8.6536,8.9295,9.1399,9.4348,9.7218,9.9502,10.1191,10.2102,10.1674,10.2309,10.3099,10.3573,10.3713,10.3599,10.3405,10.3606,10.3512,10.2895,10.2994,10.2801,10.1992,10.058,9.8983,9.7229,9.3703,8.9081,8.339,7.8763,7.3431,6.7616,6.5042,6.4114,6.4848,7.066,7.5983,8.0791,8.4499,8.7435,8.9767,9.1216,9.1803,9.1803,9.1803,9.1803,9.1803,9.1803,9.1803,9.1803,9.1803,9.1803,9.1803,9.1803,9.1803,9.1803,9.1803,9.1363,9.0849,9.0849,9.028,8.9473,8.8683,8.8316,8.7986,8.7161,8.6978,8.6775,8.5967,8.4903,8.281,7.861,7.6481,7.472,7.2665,7.2188,7.1564,7.011,6.9779,6.8788,6.6352,6.5618,6.415,6.1178,6.0591,6.015,5.949,6.1998,6.48,6.7554,7.1945,7.6335,8.0608,8.4499,8.7344,8.9143,9.0739,9.162,9.1803,9.1803,9.1803,9.1803,9.1803,9.1803,9.1803,9.1803,9.1803,9.1803,9.1803,9.1803,9.1803,9.1803,9.1803,9.1803,9.1803,9.1803,9.1803,8.7881,9.0502,9.3054,9.4675,9.6945,9.9285,10.1598,10.2598,10.3111,10.2902,10.2981,10.3393,10.4124,10.4194,10.42,10.42,10.42,10.3915,10.3114,10.27,10.2615,10.2706,10.1496,10.0196,9.8909,9.5996,9.1907,8.6655,8.174,7.6646,7.1404,6.8577,6.8421,7.0646,7.4184,7.8479,8.3234,8.5803,8.8262,9.0537,9.1436,9.1803,9.1803,9.1803,9.1803,9.1803,9.1803,9.1803,9.1803,9.1803,9.1803,9.1803,9.1803,9.1803,9.1803,9.1803,9.173,9.1693,9.1693,9.1106,9.028,8.9473,8.8757,8.7986,8.7161,8.6978,8.6775,8.5967,8.3985,8.1819,7.9926,7.8222,7.6775,7.5799,7.505,7.4258,7.3377,7.2606,7.1284,6.8862,6.6609,6.4591,6.2756,6.1251,6.0382,6.0309,6.1263,6.3552,6.748,7.0881,7.4918,7.9779,8.3104,8.5967,8.828,8.9931,9.1069,9.1803,9.1803,9.1803,9.1803,9.1803,9.1803,9.1803,9.1803,9.1803,9.1803,9.1803,9.1803,9.1803,9.1803,9.1803,9.1803,9.1803,9.1803,9.1803,9.233,9.4399,9.6331,9.7814,9.9607,10.1327,10.2707,10.347,10.4004,10.3902,10.3897,10.41,10.4377,10.4377,10.4501,10.4609,10.4785,10.4711,10.4116,10.3596,10.3389,10.3295,10.2007,10.1005,10.0719,9.8169,9.4709,9.0268,8.5897,8.1056,7.5895,7.3267,7.334,7.5799,7.8552,8.2186,8.6407,8.8353,9.0005,9.14,9.2244,9.2281,9.1803,9.1803,9.1803,9.1803,9.1803,9.1803,9.1803,9.1803,9.1803,9.1803,9.1803,9.1803,9.1803,9.1803,9.1803,9.1803,9.1803,9.1583,9.1143,9.0317,8.951,8.8702,8.7912,8.7344,8.6904,8.6591,8.4976,8.2994,8.0901,7.9984,7.894,7.7105,7.6995,7.6497,7.4661,7.4133,7.2863,6.9963,6.7907,6.5705,6.305,6.2205,6.1618,6.1153,6.234,6.4249,6.6843,7.0954,7.5028,7.8956,8.2663,8.5747,8.8169,8.9821,9.0996,9.1803,9.1803,9.1803,9.1803,9.1803,9.1803,9.1803,9.1803,9.1803,9.1803,9.1803,9.1803,9.1803,9.1803,9.1803,9.1803,9.1803,9.2134,9.2574,9.6055,9.767,9.9119,10.0395,10.1706,10.281,10.3505,10.4091,10.4501,10.4501,10.4501,10.4501,10.4501,10.4501,10.4587,10.4887,10.509,10.518,10.4878,10.4401,10.4,10.3691,10.2493,10.1699,10.1589,9.9658,9.7075,9.3756,8.992,8.5735,8.1298,7.8888,7.8809,8.0828,8.3251,8.6151,8.9344,9.0739,9.1803,9.2574,9.3198,9.3088,9.2501,9.2281,9.217,9.2134,9.1877,9.1803,9.1803,9.1803,9.1803,9.1803,9.1803,9.1803,9.1803,9.1803,9.1803,9.1803,9.1803,9.1803,9.162,9.0812,9.017,8.9473,8.8426,8.7766,8.7142,8.6427,8.538,8.3948,8.1746,8.1158,8.0408,7.8683,7.8516,7.8002,7.6225,7.5344,7.3949,7.1468,6.9302,6.7063,6.4494,6.404,6.3649,6.3062,6.4567,6.5999,6.7136,7.1321,7.5285,7.8846,8.2627,8.5747,8.8169,8.9821,9.0996,9.1803,9.1803,9.1803,9.1803,9.1803,9.1803,9.1803,9.1803,9.1803,9.1803,9.1803,9.1803,9.1803,9.1803,9.195,9.217,9.217,9.2721,9.3455,9.8745,10.0016,10.1292,10.1987,10.281,10.3604,10.4397,10.4501,10.4501,10.4501,10.4501,10.4501,10.4501,10.4501,10.4587,10.4887,10.4882,10.503,10.5389,10.4722,10.4071,10.3588,10.309,10.2197,10.1012,10.0213,9.8849,9.6954,9.3562,9.0526,8.774,8.5515,8.4903,8.582,8.8225,9.0207,9.1803,9.2721,9.3529,9.4263,9.4263,9.4263,9.4189,9.3382,9.3088,9.2978,9.2097,9.1803,9.1803,9.1803,9.1803,9.1803,9.1803,9.1803,9.1803,9.1803,9.1803,9.1803,9.1803,9.1803,9.162,9.0812,9.0592,9.0188,8.8573,8.8206,8.7509,8.5123,8.4609,8.4095,8.248,8.1525,8.1012,8.0975,7.9617,7.8589,7.8552,7.646,7.4588,7.3744,7.0844,6.8568,6.7737,6.6916,6.6439,6.6439,6.7944,6.8862,6.8848,7.1945,7.5557,7.9669,8.292,8.5747,8.8169,8.9821,9.0996,9.1803,9.1803,9.1803,9.1803,9.1803,9.1803,9.1803,9.1803,9.1803,9.1803,9.1803,9.1803,9.1803,9.1803,9.2317,9.3088,9.3088,9.3602,9.4299,10.1706,10.2293,10.278,10.3574,10.3983,10.4225,10.4501,10.4501,10.4501,10.4501,10.4501,10.4501,10.4501,10.4501,10.4712,10.5213,10.5208,10.5512,10.6004,10.5326,10.4878,10.501,10.4009,10.3508,10.3718,10.2729,10.1292,9.96,9.7615,9.4541,9.0538,8.984,8.9638,8.9931,9.1326,9.2831,9.4336,9.4611,9.4887,9.5144,9.5144,9.4777,9.4263,9.4006,9.3932,9.3822,9.2978,9.2684,9.2611,9.1987,9.1803,9.1803,9.1803,9.1803,9.1803,9.1803,9.1803,9.1803,9.1803,9.1803,9.173,9.1473,9.1033,9.0482,8.9968,8.8977,8.7655,8.5783,8.4976,8.4278,8.3214,8.237,8.1636,8.1085,8.0094,7.9229,7.8662,7.646,7.461,7.378,7.1321,6.9633,6.9353,6.9082,6.9192,6.9729,7.1248,7.1688,7.0573,7.3597,7.6974,8.0498,8.3728,8.6591,8.8996,9.0078,9.0996,9.1803,9.1803,9.1803,9.1803,9.1803,9.1803,9.1803,9.1803,9.1803,9.1803,9.1803,9.1803,9.1803,9.1803,9.195,9.2207,9.2207,9.3088,9.4299,10.3604,10.3811,10.3914,10.4397,10.4501,10.4501,10.4501,10.4501,10.4501,10.4501,10.4501,10.4501,10.4501,10.4501,10.4712,10.5218,10.5213,10.5384,10.5876,10.5514,10.5214,10.5103,10.4323,10.3907,10.4077,10.3299,10.2485,10.158,9.9979,9.7498,9.4079,9.4079,9.4079,9.4116,9.4666,9.5474,9.6392,9.6098,9.5951,9.5951,9.5951,9.5658,9.518,9.4887,9.474,9.4666,9.3859,9.3565,9.3418,9.2574,9.2281,9.2244,9.1913,9.1803,9.1803,9.1803,9.1803,9.1803,9.1803,9.1803,9.1803,9.1803,9.1436,9.0959,9.0665,8.9344,8.7839,8.6518,8.56,8.4719,8.3601,8.2994,8.2406,8.1599,8.0514,7.9633,7.9119,7.69,7.5175,7.4661,7.2753,7.1431,7.1431,7.1431,7.1651,7.2165,7.3707,7.4441,7.4059,7.624,7.8993,8.226,8.5196,8.7729,8.984,9.0665,9.1289,9.1803,9.1803,9.1803,9.1803,9.1803,9.1803,9.1803,9.1803,9.1803,9.1803,9.1803,9.1803,9.1803,9.1803,9.1987,9.2317,9.2611,9.3602,9.4777,10.4501,10.4501,10.4501,10.4501,10.4501,10.4501,10.4501,10.4501,10.4501,10.4501,10.4501,10.4501,10.4501,10.4501,10.4621,10.4921,10.4917,10.5001,10.5424,10.5389,10.5076,10.4275,10.4086,10.3614,10.2799,10.2404,10.251,10.2921,10.1109,9.9456,9.8134,9.808,9.8063,9.799,9.799,9.799,9.7933,9.7126,9.6795,9.6795,9.6722,9.6685,9.6612,9.5878,9.5565,9.5474,9.4666,9.4373,9.4263,9.3455,9.3161,9.2978,9.2134,9.184,9.1803,9.1803,9.1803,9.1803,9.1803,9.1803,9.1803,9.1803,9.1803,9.1583,9.0776,8.9454,8.8133,8.7234,8.6444,8.5416,8.3858,8.3491,8.3161,8.2406,8.0881,7.9816,7.9816,7.7671,7.613,7.6166,7.4808,7.3891,7.4052,7.4052,7.4089,7.4199,7.5579,7.7157,7.8846,7.9743,8.1599,8.4682,8.7105,8.9124,9.0665,9.1436,9.1803,9.1803,9.1803,9.1803,9.1803,9.1803,9.1803,9.1803,9.1803,9.1803,9.1803,9.1803,9.1803,9.1803,9.1877,9.2391,9.3198,9.4006,9.4813,9.5602,10.4501,10.4501,10.4501,10.4501,10.4501,10.4501,10.4501,10.4501,10.4501,10.4501,10.4501,10.4501,10.4501,10.4501,10.4496,10.4591,10.4797,10.5001,10.5424,10.5389,10.5076,10.4275,10.3881,10.3504,10.3098,10.2798,10.289,10.34,10.2201,10.1111,10.0387,9.9946,9.9402,9.8814,9.8814,9.8814,9.8778,9.797,9.7603,9.7566,9.6942,9.6685,9.6685,9.6502,9.6428,9.6318,9.5511,9.5217,9.5107,9.4299,9.3602,9.3051,9.2868,9.2354,9.1803,9.1803,9.1803,9.1803,9.1803,9.1803,9.1803,9.1803,9.1803,9.1583,9.0776,9.0298,8.9638,8.8206,8.7288,8.6407,8.5416,8.4242,8.3344,8.3124,8.1232,7.9816,7.9816,7.7671,7.635,7.6922,7.613,7.6019,7.7304,7.7451,7.7928,7.9176,7.9617,8.0571,8.217,8.3618,8.5013,8.6407,8.8793,9.0519,9.151,9.1693,9.1803,9.1803,9.1803,9.1803,9.1803,9.1803,9.1803,9.1803,9.1803,9.1803,9.1803,9.1803,9.1803,9.1877,9.2537,9.2941,9.3198,9.4006,9.4813,9.5528,10.4501,10.4501,10.4501,10.4501,10.4501,10.4501,10.4501,10.4501,10.4501,10.4501,10.4501,10.4501,10.4501,10.4501,10.4501,10.4501,10.4617,10.4797,10.5011,10.5011,10.4629,10.3901,10.3394,10.3,10.2677,10.2404,10.2614,10.3086,10.2591,10.2076,10.1402,10.1195,10.0701,9.9996,9.9766,9.9659,9.9585,9.8374,9.7916,9.7823,9.7016,9.6685,9.6685,9.6685,9.6685,9.6649,9.6208,9.6061,9.5951,9.5107,9.4556,9.4153,9.3749,9.3051,9.2391,9.2391,9.2097,9.1803,9.1803,9.1803,9.1803,9.1803,9.1803,9.1693,9.1253,9.0849,9.0372,8.9491,8.8353,8.7288,8.6481,8.5049,8.3728,8.2994,8.1122,7.9669,7.9302,7.8075,7.7524,7.8369,7.8369,7.8846,8.0131,8.0241,8.0608,8.1489,8.1893,8.281,8.4425,8.6004,8.7105,8.7545,8.9528,9.0996,9.1803,9.1803,9.1803,9.1803,9.2207,9.2391,9.2391,9.2794,9.2941,9.2941,9.2941,9.2941,9.2941,9.2941,9.2941,9.2978,9.3455,9.3639,9.3749,9.4556,9.5144,9.5528,10.4501,10.4501,10.4501,10.4501,10.4501,10.4501,10.4501,10.4501,10.4501,10.4501,10.4501,10.4501,10.4501,10.4501,10.4501,10.4501,10.4501,10.4501,10.4501,10.4501,10.4121,10.3224,10.2776,10.2272,10.1811,10.1809,10.2077,10.2592,10.279,10.2614,10.1916,10.1996,10.1779,10.1408,10.079,10.0503,10.0393,9.8888,9.819,9.8007,9.7199,9.6795,9.6685,9.6685,9.6685,9.6685,9.6685,9.6685,9.6612,9.5895,9.5602,9.5382,9.4703,9.3932,9.3272,9.3272,9.2684,9.195,9.184,9.1803,9.1803,9.1803,9.1803,9.1803,9.1803,9.1253,9.0739,9.0629,8.9528,8.828,8.7344,8.5967,8.4425,8.281,8.1211,7.989,7.9066,7.8846,7.9103,8.0036,8.0755,8.1599,8.2627,8.2737,8.2847,8.3104,8.3765,8.4776,8.6261,8.7766,8.8573,8.8573,9.0005,9.1106,9.1803,9.1913,9.1987,9.2024,9.2868,9.3272,9.3308,9.3969,9.4299,9.4299,9.4299,9.4299,9.4299,9.4299,9.4299,9.4299,9.441,9.4483,9.4556,9.5401,9.5675,9.5804,10.4501,10.4501,10.4501,10.4501,10.4501,10.4501,10.4501,10.4501,10.4501,10.4501,10.4501,10.4501,10.4501,10.4501,10.4501,10.4501,10.4501,10.4501,10.4501,10.4501,10.3914,10.2401,10.2288,10.189,10.101,10.2005,10.2594,10.2792,10.2907,10.3097,10.3398,10.2404,10.2107,10.2192,10.1596,10.1274,10.1294,10.0283,9.9548,9.8851,9.8043,9.7309,9.6685,9.6685,9.6685,9.6685,9.6685,9.6685,9.6685,9.6575,9.6061,9.5455,9.5345,9.4777,9.4116,9.4116,9.3529,9.2758,9.1987,9.1803,9.1803,9.1803,9.1803,9.1803,9.1803,9.1693,9.1436,9.0739,9.0408,8.9784,8.828,8.7252,8.6114,8.4499,8.2884,8.1562,8.0755,8.0021,8.0147,8.1652,8.1929,8.2847,8.5029,8.5233,8.5783,8.7178,8.7399,8.7876,8.8776,8.973,9.0225,9.0225,9.1143,9.1657,9.1803,9.2537,9.2905,9.2905,9.3712,9.4116,9.4116,9.4226,9.4299,9.4299,9.4299,9.4299,9.4299,9.4299,9.4299,9.4373,9.507,9.5327,9.542,9.6208,9.6502,9.6539,10.4501,10.4501,10.4501,10.4501,10.4501,10.4501,10.4501,10.4501,10.4501,10.4501,10.4501,10.4501,10.4501,10.4501,10.4501,10.4501,10.4501,10.4501,10.4501,10.4501,10.4018,10.278,10.2401,10.1815,10.099,10.199,10.2795,10.3204,10.331,10.3389,10.3508,10.3188,10.2811,10.2207,10.2195,10.1898,10.1384,10.0613,10.0099,9.9695,9.8888,9.8337,9.8007,9.8007,9.7713,9.7346,9.7346,9.7052,9.6685,9.6685,9.6465,9.6171,9.6171,9.5584,9.496,9.496,9.4079,9.2905,9.2024,9.1803,9.1803,9.1803,9.1803,9.1803,9.1803,9.1803,9.1693,9.1326,9.0922,9.0372,8.9638,8.8133,8.6628,8.5453,8.3508,8.2076,8.1709,8.1305,8.1872,8.3891,8.4535,8.5563,8.7545,8.7729,8.8059,8.8776,8.8849,8.9179,8.9987,9.0408,9.0812,9.1216,9.162,9.2024,9.2501,9.2905,9.3308,9.3749,9.4556,9.496,9.496,9.5401,9.5584,9.5584,9.5584,9.5584,9.5584,9.5584,9.5584,9.5621,9.5988,9.6135,9.6171,9.6575,9.6685,9.6685,10.4501,10.4501,10.4501,10.4501,10.4501,10.4501,10.4501,10.4501,10.4501,10.4501,10.4501,10.4501,10.4501,10.4501,10.4501,10.4501,10.4501,10.4501,10.4501,10.4501,10.4091,10.3298,10.2524,10.1798,10.138,10.2122,10.2811,10.3405,10.3706,10.3916,10.3798,10.3992,10.3598,10.2706,10.2704,10.2412,10.1677,10.0907,10.0503,10.0209,9.9622,9.9292,9.9108,9.9108,9.8741,9.819,9.819,9.7787,9.7273,9.7273,9.7126,9.6979,9.6979,9.6428,9.5804,9.5804,9.4777,9.3418,9.2391,9.2097,9.206,9.184,9.1803,9.1803,9.1803,9.1803,9.1803,9.1803,9.1326,9.0812,9.0629,8.9087,8.7472,8.6261,8.4499,8.3177,8.281,8.292,8.3801,8.582,8.6811,8.7895,8.951,8.9693,8.9767,8.995,8.995,9.0207,9.0849,9.0886,9.1253,9.206,9.2097,9.2427,9.3088,9.3492,9.3969,9.4593,9.5401,9.5804,9.5785,9.6428,9.6685,9.6685,9.6685,9.6685,9.6685,9.6685,9.6685,9.6685,9.6685,9.6685,9.6685,9.6685,9.6685,9.6685,10.4501,10.4501,10.4501,10.4501,10.4501,10.4501,10.4501,10.4501,10.4501,10.4501,10.4501,10.4501,10.4501,10.4501,10.4501,10.4501,10.4501,10.4501,10.4501,10.4501,10.4091,10.3298,10.2183,10.1705,10.1909,10.2297,10.2811,10.3309,10.4108,10.4725,10.5076,10.4582,10.4495,10.4513,10.33,10.2705,10.2595,10.1808,10.098,10.0283,10.0209,9.9769,9.9108,9.9108,9.9071,9.9035,9.9035,9.8961,9.8924,9.8924,9.8447,9.7787,9.7787,9.7273,9.6612,9.6612,9.5988,9.4978,9.3418,9.3015,9.2831,9.1987,9.1803,9.1803,9.1803,9.1803,9.1803,9.1803,9.173,9.1473,9.0739,9.0427,8.9601,8.7271,8.6757,8.6151,8.4646,8.5049,8.5857,8.6794,8.7619,8.8757,9.0372,9.0519,9.0812,9.1583,9.162,9.1657,9.1693,9.1693,9.2097,9.2978,9.3015,9.3051,9.3088,9.4593,9.5345,9.5418,9.6245,9.6612,9.6612,9.6685,9.6685,9.6685,9.6685,9.6685,9.6685,9.6685,9.6685,9.6685,9.6685,9.6685,9.6685,9.6685,9.6685,9.6685,10.4501,10.4501,10.4501,10.4501,10.4501,10.4501,10.4501,10.4501,10.4501,10.4501,10.4501,10.4501,10.4501,10.4501,10.4501,10.4501,10.4501,10.4591,10.4703,10.4703,10.4302,10.3298,10.3111,10.2694,10.2302,10.2996,10.358,10.3804,10.4608,10.5212,10.5514,10.5393,10.5179,10.479,10.44,10.3602,10.2705,10.2412,10.1788,10.098,10.098,10.0927,10.0613,10.0613,10.0283,9.9842,9.9842,9.9512,9.9108,9.9108,9.8924,9.8631,9.8631,9.8447,9.808,9.7603,9.6869,9.5988,9.4868,9.4226,9.3749,9.3418,9.3345,9.3345,9.3345,9.2941,9.2611,9.2611,9.217,9.1693,9.14,9.0959,9.0298,8.9363,8.839,8.7692,8.7601,8.7399,8.7766,8.9069,8.9491,9.0115,9.1253,9.1326,9.1473,9.1767,9.1803,9.1803,9.1803,9.2317,9.2978,9.3822,9.4336,9.4574,9.4574,9.5198,9.5749,9.6245,9.6539,9.6685,9.6685,9.6685,9.6685,9.6685,9.6685,9.6685,9.6685,9.6685,9.6685,9.6685,9.6685,9.6685,9.6685,9.6685,9.6685,9.6685,10.4501,10.4501,10.4501,10.4501,10.4501,10.4501,10.4501,10.4501,10.4501,10.4501,10.4501,10.4501,10.4501,10.4501,10.4501,10.4501,10.4501,10.4587,10.4917,10.5095,10.4787,10.4006,10.3887,10.3614,10.3099,10.3579,10.4074,10.4395,10.5102,10.5595,10.5904,10.6004,10.5812,10.5299,10.5191,10.4483,10.3382,10.2925,10.2412,10.1918,10.1624,10.1514,10.1514,10.1514,10.122,10.0686,10.0686,10.0319,9.9842,9.9842,9.9695,9.9475,9.9475,9.9292,9.8998,9.8447,9.7713,9.6942,9.6392,9.5658,9.4923,9.441,9.4299,9.4299,9.4299,9.3859,9.3492,9.3492,9.2794,9.2207,9.2207,9.1546,9.0886,9.0629,8.9674,8.905,8.9363,8.916,8.9381,9.0482,9.0812,9.1179,9.173,9.1803,9.1803,9.1803,9.1803,9.1913,9.217,9.3015,9.3859,9.4666,9.5217,9.5602,9.5878,9.5859,9.6171,9.6685,9.6685,9.6685,9.6685,9.6685,9.6685,9.6685,9.6685,9.6685,9.6685,9.6685,9.6685,9.6685,9.6685,9.6685,9.6685,9.6685,9.6685,9.6685,10.4501,10.4501,10.4501,10.4501,10.4501,10.4501,10.4501,10.4501,10.4501,10.4501,10.4501,10.4501,10.4501,10.4501,10.4501,10.4501,10.4501,10.4587,10.4917,10.5506,10.5674,10.5384,10.4395,10.4095,10.47,10.4017,10.4109,10.5186,10.548,10.5925,10.6376,10.6376,10.6376,10.6397,10.5495,10.5107,10.4997,10.3403,10.2705,10.2595,10.1788,10.1514,10.1514,10.1514,10.1514,10.1514,10.1514,10.1514,10.1514,10.1514,10.1,10.0283,10.0283,9.9769,9.9108,9.9108,9.8557,9.7916,9.7916,9.7309,9.6318,9.4703,9.4299,9.4299,9.4299,9.4299,9.4299,9.4299,9.3675,9.3125,9.3125,9.2391,9.1546,9.0776,9.0629,9.0354,8.9546,9.0134,9.0629,9.0629,9.1326,9.1803,9.1803,9.1803,9.1803,9.1803,9.1803,9.2207,9.3088,9.3859,9.4666,9.5455,9.5492,9.5914,9.6685,9.6685,9.6685,9.6685,9.6722,9.6722,9.6722,9.6722,9.6722,9.6722,9.6722,9.6722,9.6722,9.6685,9.6685,9.6685,9.6685,9.6685,9.6685,9.6685,9.6685,9.6685,10.4501,10.4501,10.4501,10.4501,10.4501,10.4501,10.4501,10.4501,10.4501,10.4501,10.4501,10.4501,10.4501,10.4501,10.4501,10.4501,10.4712,10.5213,10.6098,10.6909,10.7291,10.721,10.5916,10.519,10.5291,10.4888,10.4996,10.5513,10.5608,10.5925,10.6376,10.6376,10.6376,10.6376,10.6119,10.5715,10.5107,10.4593,10.41,10.3513,10.2705,10.2301,10.2301,10.1677,10.1514,10.1514,10.1514,10.1514,10.1514,10.1514,10.131,10.109,10.109,10.0613,9.9952,9.9952,9.9365,9.8741,9.8741,9.8557,9.8007,9.6392,9.5988,9.5988,9.5988,9.5547,9.5144,9.5144,9.452,9.3932,9.3932,9.3712,9.3492,9.3235,9.3198,9.3125,9.2868,9.3051,9.3198,9.3198,9.2905,9.2721,9.2721,9.217,9.206,9.2684,9.3235,9.3896,9.474,9.5034,9.5511,9.6318,9.6355,9.6465,9.6685,9.6685,9.6685,9.6722,9.7273,9.753,9.7566,9.8117,9.8374,9.8374,9.7787,9.753,9.7493,9.6942,9.6685,9.6685,9.6685,9.6685,9.6685,9.6685,9.6685,9.6685,10.4501,10.4501,10.4501,10.4501,10.4501,10.4501,10.4501,10.4501,10.4501,10.4501,10.4501,10.4501,10.4501,10.4501,10.4501,10.4501,10.5011,10.5697,10.6799,10.7729,10.828,10.8486,10.7605,10.6997,10.6607,10.5828,10.5608,10.6185,10.5785,10.5925,10.6376,10.6376,10.6376,10.6376,10.6376,10.6082,10.5605,10.518,10.4777,10.432,10.3513,10.3182,10.3109,10.2595,10.2322,10.2008,10.2008,10.1808,10.1514,10.1514,10.1514,10.1514,10.1514,10.122,10.0796,10.0796,10.0209,9.9585,9.9585,9.9365,9.8888,9.7897,9.764,9.7566,9.7236,9.6795,9.6355,9.6061,9.5327,9.4777,9.4777,9.452,9.4299,9.4299,9.4299,9.4299,9.4299,9.4299,9.4299,9.4299,9.3859,9.3565,9.3565,9.3088,9.3015,9.3529,9.4336,9.4997,9.5455,9.5785,9.6355,9.7163,9.7163,9.7346,9.764,9.764,9.7493,9.7163,9.797,9.8374,9.8374,9.8888,9.9108,9.9071,9.8264,9.7916,9.7843,9.7016,9.6685,9.6685,9.6685,9.6685,9.6685,9.6685,9.6685,9.6685,10.4501,10.4501,10.4501,10.4501,10.4501,10.4501,10.4501,10.4501,10.4501,10.4501,10.4501,10.4501,10.4501,10.4501,10.4501,10.4501,10.5296,10.631,10.7218,10.8098,10.8792,10.9387,10.9304,10.9018,10.8218,10.6604,10.6199,10.7289,10.6189,10.5911,10.6376,10.6376,10.6376,10.6376,10.6376,10.6376,10.6302,10.5605,10.518,10.5107,10.432,10.399,10.399,10.388,10.3403,10.2815,10.2815,10.2301,10.1698,10.1604,10.1587,10.1514,10.1514,10.1514,10.1514,10.1514,10.098,10.0393,10.0393,9.9879,9.9328,9.9328,9.9328,9.9071,9.819,9.8026,9.7787,9.7052,9.6282,9.5712,9.5712,9.507,9.452,9.452,9.452,9.452,9.452,9.452,9.452,9.452,9.4446,9.441,9.441,9.441,9.441,9.441,9.5144,9.5639,9.5712,9.6428,9.7163,9.797,9.8026,9.8374,9.9088,9.9181,9.8814,9.8007,9.8814,9.9218,9.9218,9.9292,9.9328,9.9292,9.8447,9.8117,9.8043,9.7236,9.6906,9.6906,9.6906,9.6869,9.6795,9.6795,9.6759,9.6685,10.4501,10.4501,10.4501,10.4501,10.4501,10.4501,10.4501,10.4501,10.4501,10.4501,10.4501,10.4501,10.4501,10.4501,10.4501,10.4501,10.55,10.6681,10.8098,10.8907,10.9608,11.0109,11.0096,11.0098,10.9896,10.7895,10.7194,10.78,10.651,10.612,10.6376,10.6376,10.6376,10.6376,10.6376,10.6376,10.6376,10.6192,10.6082,10.6009,10.5201,10.4777,10.4798,10.41,10.3806,10.3586,10.3586,10.3513,10.3293,10.2705,10.2008,10.1514,10.1514,10.1514,10.1514,10.1514,10.1404,10.12,10.12,10.109,10.098,10.098,10.098,10.0613,9.9181,9.8851,9.8814,9.8631,9.7933,9.7383,9.7383,9.6722,9.6171,9.6171,9.6171,9.6171,9.6171,9.6171,9.6171,9.6171,9.5621,9.5254,9.5254,9.5217,9.5217,9.5254,9.5988,9.6722,9.7346,9.753,9.8007,9.8814,9.8851,9.8924,9.9108,9.9732,9.9659,9.8851,9.9659,9.9989,10.0099,10.0686,10.098,10.0907,10.0099,9.9769,9.9732,9.8924,9.8594,9.8594,9.8594,9.819,9.764,9.764,9.7236,9.6685,10.4501,10.4501,10.4501,10.4501,10.4501,10.4501,10.4501,10.4501,10.4501,10.4501,10.4501,10.4501,10.4501,10.4501,10.4621,10.4887,10.5796,10.6882,10.8286,10.9192,10.992,11.0622,11.07,11.0804,11.0804,10.9313,10.8405,10.8212,10.7103,10.6493,10.6376,10.6376,10.6376,10.6376,10.6376,10.6376,10.6376,10.6376,10.6376,10.6397,10.5899,10.5715,10.5715,10.5275,10.4798,10.4504,10.4504,10.421,10.3806,10.3403,10.2999,10.2615,10.2191,10.2081,10.2008,10.1604,10.1514,10.1514,10.1514,10.1514,10.1514,10.1514,10.1514,10.122,9.9952,9.9659,9.9548,9.9162,9.8778,9.8484,9.8484,9.8117,9.786,9.786,9.753,9.7273,9.7273,9.6942,9.6685,9.6685,9.6318,9.6061,9.6061,9.6061,9.6061,9.6061,9.6832,9.7456,9.7879,9.8264,9.8851,9.9659,9.9659,9.9879,10.0209,10.0706,10.0706,10.0283,10.0706,10.0927,10.0907,10.1274,10.1514,10.1514,10.0613,10.0283,10.0209,9.9438,9.9108,9.9108,9.9108,9.8631,9.7916,9.7916,9.7383,9.6685,10.4501,10.4501,10.4501,10.4501,10.4501,10.4501,10.4501,10.4501,10.4501,10.4501,10.4501,10.4501,10.4501,10.4501,10.4707,10.5296,10.6026,10.6999,10.8399,10.9194,11.0002,11.0776,11.111,11.1221,11.1221,11.0487,10.9702,10.8713,10.7688,10.6991,10.6596,10.6507,10.6376,10.6376,10.6376,10.6376,10.6376,10.6376,10.6376,10.6376,10.6376,10.6376,10.6376,10.6376,10.6009,10.529,10.529,10.4798,10.41,10.41,10.399,10.3806,10.3109,10.2889,10.2815,10.2081,10.1918,10.1918,10.1918,10.1918,10.1918,10.1918,10.1808,10.1494,10.0907,10.0613,10.0319,9.9659,9.9402,9.9328,9.9328,9.9181,9.9108,9.9108,9.8557,9.8117,9.8117,9.753,9.7126,9.7126,9.7126,9.7126,9.7126,9.7126,9.7126,9.7126,9.7713,9.8154,9.83,9.8924,9.9659,10.0503,10.0503,10.0796,10.1514,10.1514,10.1514,10.1514,10.1514,10.1514,10.1514,10.1514,10.1514,10.1514,10.0796,10.0503,10.0503,9.9805,9.9512,9.9512,9.9512,9.9035,9.8264,9.8154,9.7603,9.6906,10.4501,10.4501,10.4501,10.4501,10.4501,10.4501,10.4501,10.4501,10.4501,10.4501,10.4501,10.4501,10.4501,10.4501,10.4707,10.5296,10.6197,10.7201,10.869,10.9499,11.0296,11.1096,11.1199,11.1221,11.1221,11.1111,11.0612,10.9783,10.83,10.7492,10.7388,10.6706,10.6376,10.6376,10.6376,10.6376,10.6376,10.6376,10.6376,10.6376,10.6376,10.6376,10.6376,10.6376,10.6302,10.6192,10.6192,10.5715,10.4887,10.4887,10.4504,10.388,10.3806,10.3696,10.3696,10.3586,10.3586,10.3586,10.3586,10.3586,10.3586,10.3586,10.3109,10.2522,10.2412,10.1788,10.1274,10.122,10.0613,10.0099,10.0099,9.9585,9.9108,9.9108,9.9035,9.8961,9.8961,9.8851,9.8778,9.8778,9.8778,9.8778,9.8778,9.8778,9.8778,9.8778,9.8888,9.9255,9.9952,10.0099,10.0503,10.1274,10.131,10.1404,10.1514,10.1514,10.1514,10.1514,10.1514,10.1514,10.1514,10.1514,10.1514,10.1514,10.1404,10.131,10.1274,10.12,10.122,10.122,10.122,10.0706,9.9879,9.9181,9.8447,9.775,10.4501,10.4501,10.4501,10.4501,10.4501,10.4501,10.4501,10.4501,10.4501,10.4501,10.4501,10.4501,10.4501,10.4617,10.5011,10.5593,10.6479,10.7596,10.8896,10.9608,11.0402,11.1177,11.1221,11.1221,11.1221,11.1221,11.1001,11.0707,10.9518,10.849,10.7609,10.7205,10.678,10.6376,10.6376,10.6376,10.6376,10.6376,10.6376,10.6376,10.6376,10.6376,10.6376,10.6376,10.6376,10.6376,10.6376,10.6213,10.5789,10.5789,10.5605,10.5201,10.4724,10.4614,10.4504,10.399,10.388,10.388,10.388,10.388,10.388,10.388,10.3586,10.3403,10.3403,10.3109,10.2615,10.1698,10.12,10.1,10.1,10.0686,10.0393,10.0393,10.0099,9.9769,9.9769,9.9402,9.9108,9.9108,9.9108,9.9108,9.9108,9.9108,9.9108,9.9108,9.9512,9.9916,10.0283,10.0686,10.109,10.1514,10.1514,10.1514,10.1514,10.1514,10.1514,10.1514,10.1514,10.1514,10.1514,10.1514,10.1514,10.1514,10.1514,10.1514,10.1514,10.1514,10.1514,10.1514,10.1514,10.098,10.0209,9.9402,9.8888,9.8557]}]]